<?xml version="1.0" encoding="UTF-8" standalone="no" ?>
<gpx xmlns="http://www.topografix.com/GPX/1/1" xmlns:xsi="http://www.w3.org/2001/XMLSchema-instance" xsi:schemaLocation="http://www.topografix.com/GPX/1/1 http://www.topografix.com/GPX/1/1/gpx.xsd" version="1.1" creator="VisuGPX - https://www.visugpx.com">
  <metadata>
    <name>Le Pinet par les sangles du Fouda Blanc et du Pinet</name>
    <desc><![CDATA[Belle ballade empruntant les magnifiques et vertigineux sangles du Pinet et du Fouda Blanc.]]></desc>
  </metadata>
  <trk>
    <name><![CDATA[2013-07-01 07:58:33]]></name>
    <trkseg>
      <trkpt lat="45.41249" lon="5.88667">
        <ele>1031.15</ele>
        <time>2013-06-30T08:05:58Z</time>
      </trkpt>
      <trkpt lat="45.41249" lon="5.88668">
        <ele>1032.11</ele>
        <time>2013-06-30T08:06:01Z</time>
      </trkpt>
      <trkpt lat="45.41251" lon="5.88667">
        <ele>1035</ele>
        <time>2013-06-30T08:06:21Z</time>
      </trkpt>
      <trkpt lat="45.41251" lon="5.88667">
        <ele>1031.63</ele>
        <time>2013-06-30T08:06:23Z</time>
      </trkpt>
      <trkpt lat="45.4125" lon="5.88666">
        <ele>1035</ele>
        <time>2013-06-30T08:06:26Z</time>
      </trkpt>
      <trkpt lat="45.41249" lon="5.88662">
        <ele>1037.4</ele>
        <time>2013-06-30T08:06:48Z</time>
      </trkpt>
      <trkpt lat="45.41248" lon="5.88663">
        <ele>1037.4</ele>
        <time>2013-06-30T08:07:14Z</time>
      </trkpt>
      <trkpt lat="45.41249" lon="5.88661">
        <ele>1037.88</ele>
        <time>2013-06-30T08:07:46Z</time>
      </trkpt>
      <trkpt lat="45.41248" lon="5.88667">
        <ele>1038.36</ele>
        <time>2013-06-30T08:08:21Z</time>
      </trkpt>
      <trkpt lat="45.41249" lon="5.88665">
        <ele>1038.36</ele>
        <time>2013-06-30T08:08:45Z</time>
      </trkpt>
      <trkpt lat="45.41249" lon="5.8866">
        <ele>1037.88</ele>
        <time>2013-06-30T08:09:09Z</time>
      </trkpt>
      <trkpt lat="45.41248" lon="5.8866">
        <ele>1039.8</ele>
        <time>2013-06-30T08:09:19Z</time>
      </trkpt>
      <trkpt lat="45.4125" lon="5.88664">
        <ele>1039.8</ele>
        <time>2013-06-30T08:09:43Z</time>
      </trkpt>
      <trkpt lat="45.41248" lon="5.88667">
        <ele>1039.8</ele>
        <time>2013-06-30T08:10:12Z</time>
      </trkpt>
      <trkpt lat="45.41247" lon="5.88661">
        <ele>1039.8</ele>
        <time>2013-06-30T08:10:51Z</time>
      </trkpt>
      <trkpt lat="45.41248" lon="5.8866">
        <ele>1039.8</ele>
        <time>2013-06-30T08:11:17Z</time>
      </trkpt>
      <trkpt lat="45.41249" lon="5.88663">
        <ele>1040.28</ele>
        <time>2013-06-30T08:11:53Z</time>
      </trkpt>
      <trkpt lat="45.41249" lon="5.88663">
        <ele>1040.28</ele>
        <time>2013-06-30T08:12:21Z</time>
      </trkpt>
      <trkpt lat="45.41249" lon="5.88666">
        <ele>1040.28</ele>
        <time>2013-06-30T08:12:41Z</time>
      </trkpt>
      <trkpt lat="45.41251" lon="5.88666">
        <ele>1040.28</ele>
        <time>2013-06-30T08:13:03Z</time>
      </trkpt>
      <trkpt lat="45.41251" lon="5.88666">
        <ele>1038.84</ele>
        <time>2013-06-30T08:13:19Z</time>
      </trkpt>
      <trkpt lat="45.4125" lon="5.88665">
        <ele>1039.8</ele>
        <time>2013-06-30T08:13:22Z</time>
      </trkpt>
      <trkpt lat="45.4125" lon="5.88665">
        <ele>1040.28</ele>
        <time>2013-06-30T08:13:42Z</time>
      </trkpt>
      <trkpt lat="45.4125" lon="5.88665">
        <ele>1040.28</ele>
        <time>2013-06-30T08:13:43Z</time>
      </trkpt>
      <trkpt lat="45.4125" lon="5.88665">
        <ele>1040.28</ele>
        <time>2013-06-30T08:13:54Z</time>
      </trkpt>
      <trkpt lat="45.4125" lon="5.88667">
        <ele>1040.28</ele>
        <time>2013-06-30T08:14:05Z</time>
      </trkpt>
      <trkpt lat="45.41249" lon="5.88667">
        <ele>1040.28</ele>
        <time>2013-06-30T08:14:18Z</time>
      </trkpt>
      <trkpt lat="45.4125" lon="5.88667">
        <ele>1040.76</ele>
        <time>2013-06-30T08:14:34Z</time>
      </trkpt>
      <trkpt lat="45.41249" lon="5.8867">
        <ele>1040.76</ele>
        <time>2013-06-30T08:14:54Z</time>
      </trkpt>
      <trkpt lat="45.4125" lon="5.88664">
        <ele>1040.76</ele>
        <time>2013-06-30T08:15:21Z</time>
      </trkpt>
      <trkpt lat="45.41248" lon="5.8867">
        <ele>1040.76</ele>
        <time>2013-06-30T08:15:38Z</time>
      </trkpt>
      <trkpt lat="45.41245" lon="5.88672">
        <ele>1040.76</ele>
        <time>2013-06-30T08:15:42Z</time>
      </trkpt>
      <trkpt lat="45.41227" lon="5.88693">
        <ele>1042.69</ele>
        <time>2013-06-30T08:16:03Z</time>
      </trkpt>
      <trkpt lat="45.41217" lon="5.88707">
        <ele>1044.61</ele>
        <time>2013-06-30T08:16:17Z</time>
      </trkpt>
      <trkpt lat="45.4121" lon="5.88715">
        <ele>1046.05</ele>
        <time>2013-06-30T08:16:27Z</time>
      </trkpt>
      <trkpt lat="45.41207" lon="5.88718">
        <ele>1047.01</ele>
        <time>2013-06-30T08:16:31Z</time>
      </trkpt>
      <trkpt lat="45.41202" lon="5.88724">
        <ele>1048.45</ele>
        <time>2013-06-30T08:16:42Z</time>
      </trkpt>
      <trkpt lat="45.41196" lon="5.88733">
        <ele>1050.38</ele>
        <time>2013-06-30T08:16:54Z</time>
      </trkpt>
      <trkpt lat="45.4119" lon="5.88745">
        <ele>1052.3</ele>
        <time>2013-06-30T08:17:04Z</time>
      </trkpt>
      <trkpt lat="45.41183" lon="5.88756">
        <ele>1054.22</ele>
        <time>2013-06-30T08:17:17Z</time>
      </trkpt>
      <trkpt lat="45.41178" lon="5.8877">
        <ele>1057.11</ele>
        <time>2013-06-30T08:17:31Z</time>
      </trkpt>
      <trkpt lat="45.41176" lon="5.88782">
        <ele>1059.03</ele>
        <time>2013-06-30T08:17:42Z</time>
      </trkpt>
      <trkpt lat="45.4117" lon="5.88791">
        <ele>1060.95</ele>
        <time>2013-06-30T08:17:52Z</time>
      </trkpt>
      <trkpt lat="45.41163" lon="5.88798">
        <ele>1063.36</ele>
        <time>2013-06-30T08:18:06Z</time>
      </trkpt>
      <trkpt lat="45.41157" lon="5.88806">
        <ele>1065.28</ele>
        <time>2013-06-30T08:18:19Z</time>
      </trkpt>
      <trkpt lat="45.41151" lon="5.88813">
        <ele>1067.68</ele>
        <time>2013-06-30T08:18:31Z</time>
      </trkpt>
      <trkpt lat="45.41147" lon="5.88828">
        <ele>1070.57</ele>
        <time>2013-06-30T08:18:48Z</time>
      </trkpt>
      <trkpt lat="45.4114" lon="5.88837">
        <ele>1072.97</ele>
        <time>2013-06-30T08:19:02Z</time>
      </trkpt>
      <trkpt lat="45.41137" lon="5.88841">
        <ele>1074.41</ele>
        <time>2013-06-30T08:19:15Z</time>
      </trkpt>
      <trkpt lat="45.41128" lon="5.8885">
        <ele>1076.81</ele>
        <time>2013-06-30T08:19:30Z</time>
      </trkpt>
      <trkpt lat="45.41123" lon="5.8886">
        <ele>1079.7</ele>
        <time>2013-06-30T08:19:44Z</time>
      </trkpt>
      <trkpt lat="45.41117" lon="5.88866">
        <ele>1082.1</ele>
        <time>2013-06-30T08:20:00Z</time>
      </trkpt>
      <trkpt lat="45.41109" lon="5.88871">
        <ele>1084.5</ele>
        <time>2013-06-30T08:20:13Z</time>
      </trkpt>
      <trkpt lat="45.411" lon="5.88875">
        <ele>1086.91</ele>
        <time>2013-06-30T08:20:27Z</time>
      </trkpt>
      <trkpt lat="45.41095" lon="5.88881">
        <ele>1089.31</ele>
        <time>2013-06-30T08:20:39Z</time>
      </trkpt>
      <trkpt lat="45.41092" lon="5.88889">
        <ele>1091.71</ele>
        <time>2013-06-30T08:20:52Z</time>
      </trkpt>
      <trkpt lat="45.41087" lon="5.88894">
        <ele>1094.12</ele>
        <time>2013-06-30T08:21:06Z</time>
      </trkpt>
      <trkpt lat="45.41082" lon="5.88902">
        <ele>1096.52</ele>
        <time>2013-06-30T08:21:17Z</time>
      </trkpt>
      <trkpt lat="45.41074" lon="5.88907">
        <ele>1099.4</ele>
        <time>2013-06-30T08:21:30Z</time>
      </trkpt>
      <trkpt lat="45.41067" lon="5.88918">
        <ele>1102.29</ele>
        <time>2013-06-30T08:21:46Z</time>
      </trkpt>
      <trkpt lat="45.41061" lon="5.88927">
        <ele>1104.21</ele>
        <time>2013-06-30T08:21:58Z</time>
      </trkpt>
      <trkpt lat="45.41057" lon="5.88937">
        <ele>1106.61</ele>
        <time>2013-06-30T08:22:12Z</time>
      </trkpt>
      <trkpt lat="45.41053" lon="5.88946">
        <ele>1109.02</ele>
        <time>2013-06-30T08:22:24Z</time>
      </trkpt>
      <trkpt lat="45.41048" lon="5.88959">
        <ele>1111.42</ele>
        <time>2013-06-30T08:22:37Z</time>
      </trkpt>
      <trkpt lat="45.41044" lon="5.88975">
        <ele>1109.98</ele>
        <time>2013-06-30T08:22:50Z</time>
      </trkpt>
      <trkpt lat="45.41044" lon="5.88978">
        <ele>1109.5</ele>
        <time>2013-06-30T08:22:52Z</time>
      </trkpt>
      <trkpt lat="45.41037" lon="5.89003">
        <ele>1107.1</ele>
        <time>2013-06-30T08:23:11Z</time>
      </trkpt>
      <trkpt lat="45.41035" lon="5.89021">
        <ele>1106.61</ele>
        <time>2013-06-30T08:23:24Z</time>
      </trkpt>
      <trkpt lat="45.41034" lon="5.89038">
        <ele>1106.61</ele>
        <time>2013-06-30T08:23:36Z</time>
      </trkpt>
      <trkpt lat="45.41034" lon="5.8906">
        <ele>1108.06</ele>
        <time>2013-06-30T08:23:53Z</time>
      </trkpt>
      <trkpt lat="45.41034" lon="5.89069">
        <ele>1108.06</ele>
        <time>2013-06-30T08:24:01Z</time>
      </trkpt>
      <trkpt lat="45.41038" lon="5.89087">
        <ele>1108.54</ele>
        <time>2013-06-30T08:24:11Z</time>
      </trkpt>
      <trkpt lat="45.41037" lon="5.89096">
        <ele>1107.1</ele>
        <time>2013-06-30T08:24:18Z</time>
      </trkpt>
      <trkpt lat="45.41039" lon="5.89118">
        <ele>1107.58</ele>
        <time>2013-06-30T08:24:29Z</time>
      </trkpt>
      <trkpt lat="45.41035" lon="5.89125">
        <ele>1107.58</ele>
        <time>2013-06-30T08:24:35Z</time>
      </trkpt>
      <trkpt lat="45.41025" lon="5.89141">
        <ele>1105.65</ele>
        <time>2013-06-30T08:24:49Z</time>
      </trkpt>
      <trkpt lat="45.41015" lon="5.89159">
        <ele>1104.21</ele>
        <time>2013-06-30T08:25:02Z</time>
      </trkpt>
      <trkpt lat="45.41012" lon="5.89164">
        <ele>1103.25</ele>
        <time>2013-06-30T08:25:09Z</time>
      </trkpt>
      <trkpt lat="45.41001" lon="5.89173">
        <ele>1102.77</ele>
        <time>2013-06-30T08:25:20Z</time>
      </trkpt>
      <trkpt lat="45.40997" lon="5.89183">
        <ele>1103.25</ele>
        <time>2013-06-30T08:25:29Z</time>
      </trkpt>
      <trkpt lat="45.40984" lon="5.89196">
        <ele>1103.25</ele>
        <time>2013-06-30T08:25:42Z</time>
      </trkpt>
      <trkpt lat="45.40969" lon="5.89206">
        <ele>1103.25</ele>
        <time>2013-06-30T08:25:52Z</time>
      </trkpt>
      <trkpt lat="45.40959" lon="5.89211">
        <ele>1103.73</ele>
        <time>2013-06-30T08:25:59Z</time>
      </trkpt>
      <trkpt lat="45.40953" lon="5.89235">
        <ele>1104.69</ele>
        <time>2013-06-30T08:26:14Z</time>
      </trkpt>
      <trkpt lat="45.40951" lon="5.89236">
        <ele>1103.25</ele>
        <time>2013-06-30T08:26:17Z</time>
      </trkpt>
      <trkpt lat="45.40946" lon="5.89239">
        <ele>1103.25</ele>
        <time>2013-06-30T08:26:21Z</time>
      </trkpt>
      <trkpt lat="45.40939" lon="5.89248">
        <ele>1100.37</ele>
        <time>2013-06-30T08:26:32Z</time>
      </trkpt>
      <trkpt lat="45.40928" lon="5.89253">
        <ele>1099.4</ele>
        <time>2013-06-30T08:26:44Z</time>
      </trkpt>
      <trkpt lat="45.40924" lon="5.89257">
        <ele>1098.44</ele>
        <time>2013-06-30T08:26:54Z</time>
      </trkpt>
      <trkpt lat="45.40918" lon="5.89262">
        <ele>1098.44</ele>
        <time>2013-06-30T08:27:01Z</time>
      </trkpt>
      <trkpt lat="45.40913" lon="5.89272">
        <ele>1098.44</ele>
        <time>2013-06-30T08:27:09Z</time>
      </trkpt>
      <trkpt lat="45.409" lon="5.89283">
        <ele>1099.89</ele>
        <time>2013-06-30T08:27:20Z</time>
      </trkpt>
      <trkpt lat="45.40891" lon="5.89289">
        <ele>1099.89</ele>
        <time>2013-06-30T08:27:30Z</time>
      </trkpt>
      <trkpt lat="45.40881" lon="5.89295">
        <ele>1097.96</ele>
        <time>2013-06-30T08:27:35Z</time>
      </trkpt>
      <trkpt lat="45.40865" lon="5.89311">
        <ele>1098.44</ele>
        <time>2013-06-30T08:27:48Z</time>
      </trkpt>
      <trkpt lat="45.40862" lon="5.89321">
        <ele>1099.89</ele>
        <time>2013-06-30T08:27:53Z</time>
      </trkpt>
      <trkpt lat="45.4086" lon="5.8934">
        <ele>1099.89</ele>
        <time>2013-06-30T08:28:02Z</time>
      </trkpt>
      <trkpt lat="45.40861" lon="5.89347">
        <ele>1098.92</ele>
        <time>2013-06-30T08:28:07Z</time>
      </trkpt>
      <trkpt lat="45.40861" lon="5.89366">
        <ele>1096.04</ele>
        <time>2013-06-30T08:28:22Z</time>
      </trkpt>
      <trkpt lat="45.4086" lon="5.89368">
        <ele>1096.04</ele>
        <time>2013-06-30T08:28:23Z</time>
      </trkpt>
      <trkpt lat="45.40857" lon="5.89388">
        <ele>1095.08</ele>
        <time>2013-06-30T08:28:37Z</time>
      </trkpt>
      <trkpt lat="45.40853" lon="5.89403">
        <ele>1094.6</ele>
        <time>2013-06-30T08:28:48Z</time>
      </trkpt>
      <trkpt lat="45.40854" lon="5.89406">
        <ele>1094.6</ele>
        <time>2013-06-30T08:28:49Z</time>
      </trkpt>
      <trkpt lat="45.40852" lon="5.89423">
        <ele>1094.6</ele>
        <time>2013-06-30T08:29:02Z</time>
      </trkpt>
      <trkpt lat="45.40852" lon="5.89428">
        <ele>1096.04</ele>
        <time>2013-06-30T08:29:05Z</time>
      </trkpt>
      <trkpt lat="45.40853" lon="5.89443">
        <ele>1097.96</ele>
        <time>2013-06-30T08:29:16Z</time>
      </trkpt>
      <trkpt lat="45.40851" lon="5.8946">
        <ele>1098.92</ele>
        <time>2013-06-30T08:29:29Z</time>
      </trkpt>
      <trkpt lat="45.40842" lon="5.89479">
        <ele>1100.85</ele>
        <time>2013-06-30T08:29:44Z</time>
      </trkpt>
      <trkpt lat="45.40839" lon="5.89487">
        <ele>1100.85</ele>
        <time>2013-06-30T08:29:52Z</time>
      </trkpt>
      <trkpt lat="45.40829" lon="5.89504">
        <ele>1099.4</ele>
        <time>2013-06-30T08:30:06Z</time>
      </trkpt>
      <trkpt lat="45.40825" lon="5.89512">
        <ele>1099.4</ele>
        <time>2013-06-30T08:30:18Z</time>
      </trkpt>
      <trkpt lat="45.40818" lon="5.89516">
        <ele>1100.85</ele>
        <time>2013-06-30T08:30:27Z</time>
      </trkpt>
      <trkpt lat="45.40806" lon="5.89523">
        <ele>1101.81</ele>
        <time>2013-06-30T08:30:41Z</time>
      </trkpt>
      <trkpt lat="45.40798" lon="5.89531">
        <ele>1104.21</ele>
        <time>2013-06-30T08:30:55Z</time>
      </trkpt>
      <trkpt lat="45.40788" lon="5.89535">
        <ele>1105.17</ele>
        <time>2013-06-30T08:31:11Z</time>
      </trkpt>
      <trkpt lat="45.40776" lon="5.89542">
        <ele>1106.61</ele>
        <time>2013-06-30T08:31:24Z</time>
      </trkpt>
      <trkpt lat="45.40762" lon="5.89545">
        <ele>1107.58</ele>
        <time>2013-06-30T08:31:38Z</time>
      </trkpt>
      <trkpt lat="45.40747" lon="5.8955">
        <ele>1108.06</ele>
        <time>2013-06-30T08:31:52Z</time>
      </trkpt>
      <trkpt lat="45.40735" lon="5.89554">
        <ele>1108.06</ele>
        <time>2013-06-30T08:32:06Z</time>
      </trkpt>
      <trkpt lat="45.40725" lon="5.89552">
        <ele>1108.54</ele>
        <time>2013-06-30T08:32:18Z</time>
      </trkpt>
      <trkpt lat="45.40712" lon="5.89554">
        <ele>1110.94</ele>
        <time>2013-06-30T08:32:31Z</time>
      </trkpt>
      <trkpt lat="45.40702" lon="5.89551">
        <ele>1111.42</ele>
        <time>2013-06-30T08:32:40Z</time>
      </trkpt>
      <trkpt lat="45.40687" lon="5.89546">
        <ele>1111.42</ele>
        <time>2013-06-30T08:32:53Z</time>
      </trkpt>
      <trkpt lat="45.40672" lon="5.89541">
        <ele>1112.86</ele>
        <time>2013-06-30T08:33:08Z</time>
      </trkpt>
      <trkpt lat="45.40657" lon="5.89537">
        <ele>1115.27</ele>
        <time>2013-06-30T08:33:22Z</time>
      </trkpt>
      <trkpt lat="45.40646" lon="5.89531">
        <ele>1116.23</ele>
        <time>2013-06-30T08:33:34Z</time>
      </trkpt>
      <trkpt lat="45.40636" lon="5.89528">
        <ele>1117.67</ele>
        <time>2013-06-30T08:33:47Z</time>
      </trkpt>
      <trkpt lat="45.40623" lon="5.89523">
        <ele>1121.03</ele>
        <time>2013-06-30T08:34:00Z</time>
      </trkpt>
      <trkpt lat="45.40612" lon="5.89514">
        <ele>1121.52</ele>
        <time>2013-06-30T08:34:14Z</time>
      </trkpt>
      <trkpt lat="45.40604" lon="5.89511">
        <ele>1120.55</ele>
        <time>2013-06-30T08:34:19Z</time>
      </trkpt>
      <trkpt lat="45.40585" lon="5.89509">
        <ele>1120.07</ele>
        <time>2013-06-30T08:34:31Z</time>
      </trkpt>
      <trkpt lat="45.40579" lon="5.8951">
        <ele>1121.03</ele>
        <time>2013-06-30T08:34:38Z</time>
      </trkpt>
      <trkpt lat="45.40569" lon="5.89511">
        <ele>1123.44</ele>
        <time>2013-06-30T08:34:51Z</time>
      </trkpt>
      <trkpt lat="45.40557" lon="5.89512">
        <ele>1125.84</ele>
        <time>2013-06-30T08:35:06Z</time>
      </trkpt>
      <trkpt lat="45.4055" lon="5.89512">
        <ele>1127.28</ele>
        <time>2013-06-30T08:35:18Z</time>
      </trkpt>
      <trkpt lat="45.40538" lon="5.89515">
        <ele>1129.69</ele>
        <time>2013-06-30T08:35:34Z</time>
      </trkpt>
      <trkpt lat="45.4053" lon="5.89521">
        <ele>1132.09</ele>
        <time>2013-06-30T08:35:46Z</time>
      </trkpt>
      <trkpt lat="45.40525" lon="5.89527">
        <ele>1132.57</ele>
        <time>2013-06-30T08:35:53Z</time>
      </trkpt>
      <trkpt lat="45.40512" lon="5.89537">
        <ele>1131.61</ele>
        <time>2013-06-30T08:36:05Z</time>
      </trkpt>
      <trkpt lat="45.40508" lon="5.89554">
        <ele>1131.61</ele>
        <time>2013-06-30T08:36:20Z</time>
      </trkpt>
      <trkpt lat="45.405" lon="5.89564">
        <ele>1132.09</ele>
        <time>2013-06-30T08:36:33Z</time>
      </trkpt>
      <trkpt lat="45.40498" lon="5.89566">
        <ele>1133.05</ele>
        <time>2013-06-30T08:36:36Z</time>
      </trkpt>
      <trkpt lat="45.40485" lon="5.89572">
        <ele>1133.53</ele>
        <time>2013-06-30T08:36:49Z</time>
      </trkpt>
      <trkpt lat="45.40476" lon="5.89576">
        <ele>1134.49</ele>
        <time>2013-06-30T08:37:00Z</time>
      </trkpt>
      <trkpt lat="45.40466" lon="5.89587">
        <ele>1136.42</ele>
        <time>2013-06-30T08:37:13Z</time>
      </trkpt>
      <trkpt lat="45.40461" lon="5.89597">
        <ele>1137.86</ele>
        <time>2013-06-30T08:37:21Z</time>
      </trkpt>
      <trkpt lat="45.40458" lon="5.89606">
        <ele>1137.86</ele>
        <time>2013-06-30T08:37:26Z</time>
      </trkpt>
      <trkpt lat="45.40455" lon="5.89608">
        <ele>1137.86</ele>
        <time>2013-06-30T08:37:29Z</time>
      </trkpt>
      <trkpt lat="45.40444" lon="5.89617">
        <ele>1136.42</ele>
        <time>2013-06-30T08:37:41Z</time>
      </trkpt>
      <trkpt lat="45.40435" lon="5.89625">
        <ele>1135.45</ele>
        <time>2013-06-30T08:37:47Z</time>
      </trkpt>
      <trkpt lat="45.40425" lon="5.89647">
        <ele>1134.49</ele>
        <time>2013-06-30T08:38:01Z</time>
      </trkpt>
      <trkpt lat="45.40423" lon="5.89665">
        <ele>1135.94</ele>
        <time>2013-06-30T08:38:14Z</time>
      </trkpt>
      <trkpt lat="45.40422" lon="5.89666">
        <ele>1135.94</ele>
        <time>2013-06-30T08:38:17Z</time>
      </trkpt>
      <trkpt lat="45.4042" lon="5.89681">
        <ele>1134.49</ele>
        <time>2013-06-30T08:38:27Z</time>
      </trkpt>
      <trkpt lat="45.40416" lon="5.89695">
        <ele>1134.97</ele>
        <time>2013-06-30T08:38:39Z</time>
      </trkpt>
      <trkpt lat="45.4041" lon="5.89713">
        <ele>1136.9</ele>
        <time>2013-06-30T08:38:52Z</time>
      </trkpt>
      <trkpt lat="45.40407" lon="5.89734">
        <ele>1135.45</ele>
        <time>2013-06-30T08:39:03Z</time>
      </trkpt>
      <trkpt lat="45.40402" lon="5.89748">
        <ele>1136.9</ele>
        <time>2013-06-30T08:39:16Z</time>
      </trkpt>
      <trkpt lat="45.40397" lon="5.89758">
        <ele>1138.34</ele>
        <time>2013-06-30T08:39:28Z</time>
      </trkpt>
      <trkpt lat="45.40392" lon="5.89772">
        <ele>1138.82</ele>
        <time>2013-06-30T08:39:40Z</time>
      </trkpt>
      <trkpt lat="45.4039" lon="5.89784">
        <ele>1139.3</ele>
        <time>2013-06-30T08:39:50Z</time>
      </trkpt>
      <trkpt lat="45.40389" lon="5.89804">
        <ele>1141.22</ele>
        <time>2013-06-30T08:40:03Z</time>
      </trkpt>
      <trkpt lat="45.40388" lon="5.8982">
        <ele>1142.66</ele>
        <time>2013-06-30T08:40:17Z</time>
      </trkpt>
      <trkpt lat="45.40387" lon="5.89836">
        <ele>1145.07</ele>
        <time>2013-06-30T08:40:29Z</time>
      </trkpt>
      <trkpt lat="45.4038" lon="5.89854">
        <ele>1147.47</ele>
        <time>2013-06-30T08:40:44Z</time>
      </trkpt>
      <trkpt lat="45.40374" lon="5.89864">
        <ele>1150.35</ele>
        <time>2013-06-30T08:40:57Z</time>
      </trkpt>
      <trkpt lat="45.4037" lon="5.89877">
        <ele>1152.76</ele>
        <time>2013-06-30T08:41:09Z</time>
      </trkpt>
      <trkpt lat="45.40367" lon="5.89888">
        <ele>1154.2</ele>
        <time>2013-06-30T08:41:20Z</time>
      </trkpt>
      <trkpt lat="45.40367" lon="5.89902">
        <ele>1156.12</ele>
        <time>2013-06-30T08:41:32Z</time>
      </trkpt>
      <trkpt lat="45.40366" lon="5.89916">
        <ele>1158.05</ele>
        <time>2013-06-30T08:41:45Z</time>
      </trkpt>
      <trkpt lat="45.40363" lon="5.89924">
        <ele>1160.45</ele>
        <time>2013-06-30T08:41:59Z</time>
      </trkpt>
      <trkpt lat="45.40357" lon="5.89933">
        <ele>1162.85</ele>
        <time>2013-06-30T08:42:12Z</time>
      </trkpt>
      <trkpt lat="45.40354" lon="5.89943">
        <ele>1165.74</ele>
        <time>2013-06-30T08:42:26Z</time>
      </trkpt>
      <trkpt lat="45.40354" lon="5.89956">
        <ele>1168.14</ele>
        <time>2013-06-30T08:42:40Z</time>
      </trkpt>
      <trkpt lat="45.40351" lon="5.89968">
        <ele>1171.5</ele>
        <time>2013-06-30T08:42:53Z</time>
      </trkpt>
      <trkpt lat="45.40346" lon="5.89981">
        <ele>1173.91</ele>
        <time>2013-06-30T08:43:06Z</time>
      </trkpt>
      <trkpt lat="45.40346" lon="5.89984">
        <ele>1175.35</ele>
        <time>2013-06-30T08:43:18Z</time>
      </trkpt>
      <trkpt lat="45.40343" lon="5.8998">
        <ele>1176.79</ele>
        <time>2013-06-30T08:43:33Z</time>
      </trkpt>
      <trkpt lat="45.40342" lon="5.89982">
        <ele>1177.27</ele>
        <time>2013-06-30T08:43:53Z</time>
      </trkpt>
      <trkpt lat="45.4034" lon="5.89982">
        <ele>1175.83</ele>
        <time>2013-06-30T08:44:02Z</time>
      </trkpt>
      <trkpt lat="45.4034" lon="5.89981">
        <ele>1177.27</ele>
        <time>2013-06-30T08:44:22Z</time>
      </trkpt>
      <trkpt lat="45.40342" lon="5.89992">
        <ele>1178.23</ele>
        <time>2013-06-30T08:44:54Z</time>
      </trkpt>
      <trkpt lat="45.40339" lon="5.89985">
        <ele>1178.23</ele>
        <time>2013-06-30T08:45:07Z</time>
      </trkpt>
      <trkpt lat="45.40338" lon="5.89987">
        <ele>1178.23</ele>
        <time>2013-06-30T08:45:27Z</time>
      </trkpt>
      <trkpt lat="45.4034" lon="5.89981">
        <ele>1178.23</ele>
        <time>2013-06-30T08:45:53Z</time>
      </trkpt>
      <trkpt lat="45.4034" lon="5.89984">
        <ele>1178.71</ele>
        <time>2013-06-30T08:46:08Z</time>
      </trkpt>
      <trkpt lat="45.40344" lon="5.89993">
        <ele>1181.12</ele>
        <time>2013-06-30T08:46:21Z</time>
      </trkpt>
      <trkpt lat="45.40342" lon="5.90004">
        <ele>1183.52</ele>
        <time>2013-06-30T08:46:35Z</time>
      </trkpt>
      <trkpt lat="45.40336" lon="5.90014">
        <ele>1185.44</ele>
        <time>2013-06-30T08:46:47Z</time>
      </trkpt>
      <trkpt lat="45.40334" lon="5.90022">
        <ele>1187.85</ele>
        <time>2013-06-30T08:47:00Z</time>
      </trkpt>
      <trkpt lat="45.4033" lon="5.9003">
        <ele>1189.77</ele>
        <time>2013-06-30T08:47:12Z</time>
      </trkpt>
      <trkpt lat="45.4033" lon="5.9004">
        <ele>1192.65</ele>
        <time>2013-06-30T08:47:25Z</time>
      </trkpt>
      <trkpt lat="45.40329" lon="5.90049">
        <ele>1194.58</ele>
        <time>2013-06-30T08:47:37Z</time>
      </trkpt>
      <trkpt lat="45.4033" lon="5.90057">
        <ele>1196.5</ele>
        <time>2013-06-30T08:47:47Z</time>
      </trkpt>
      <trkpt lat="45.40331" lon="5.90065">
        <ele>1198.9</ele>
        <time>2013-06-30T08:47:57Z</time>
      </trkpt>
      <trkpt lat="45.40333" lon="5.90075">
        <ele>1201.3</ele>
        <time>2013-06-30T08:48:11Z</time>
      </trkpt>
      <trkpt lat="45.4033" lon="5.90078">
        <ele>1201.79</ele>
        <time>2013-06-30T08:48:15Z</time>
      </trkpt>
      <trkpt lat="45.4033" lon="5.90087">
        <ele>1203.71</ele>
        <time>2013-06-30T08:48:25Z</time>
      </trkpt>
      <trkpt lat="45.40333" lon="5.90099">
        <ele>1205.63</ele>
        <time>2013-06-30T08:48:38Z</time>
      </trkpt>
      <trkpt lat="45.40332" lon="5.9011">
        <ele>1207.55</ele>
        <time>2013-06-30T08:48:48Z</time>
      </trkpt>
      <trkpt lat="45.40334" lon="5.9012">
        <ele>1209.96</ele>
        <time>2013-06-30T08:49:02Z</time>
      </trkpt>
      <trkpt lat="45.40334" lon="5.90127">
        <ele>1212.36</ele>
        <time>2013-06-30T08:49:16Z</time>
      </trkpt>
      <trkpt lat="45.40332" lon="5.90136">
        <ele>1214.76</ele>
        <time>2013-06-30T08:49:31Z</time>
      </trkpt>
      <trkpt lat="45.40332" lon="5.9014">
        <ele>1217.65</ele>
        <time>2013-06-30T08:49:44Z</time>
      </trkpt>
      <trkpt lat="45.40328" lon="5.90143">
        <ele>1219.57</ele>
        <time>2013-06-30T08:49:58Z</time>
      </trkpt>
      <trkpt lat="45.40326" lon="5.90153">
        <ele>1222.45</ele>
        <time>2013-06-30T08:50:09Z</time>
      </trkpt>
      <trkpt lat="45.40323" lon="5.90158">
        <ele>1223.9</ele>
        <time>2013-06-30T08:50:21Z</time>
      </trkpt>
      <trkpt lat="45.40316" lon="5.90163">
        <ele>1225.34</ele>
        <time>2013-06-30T08:50:32Z</time>
      </trkpt>
      <trkpt lat="45.40316" lon="5.9017">
        <ele>1226.78</ele>
        <time>2013-06-30T08:50:43Z</time>
      </trkpt>
      <trkpt lat="45.40313" lon="5.90179">
        <ele>1228.22</ele>
        <time>2013-06-30T08:50:54Z</time>
      </trkpt>
      <trkpt lat="45.40315" lon="5.90187">
        <ele>1229.66</ele>
        <time>2013-06-30T08:51:08Z</time>
      </trkpt>
      <trkpt lat="45.40314" lon="5.90193">
        <ele>1231.59</ele>
        <time>2013-06-30T08:51:20Z</time>
      </trkpt>
      <trkpt lat="45.40315" lon="5.90204">
        <ele>1233.51</ele>
        <time>2013-06-30T08:51:36Z</time>
      </trkpt>
      <trkpt lat="45.40316" lon="5.90207">
        <ele>1235.91</ele>
        <time>2013-06-30T08:51:50Z</time>
      </trkpt>
      <trkpt lat="45.40317" lon="5.90213">
        <ele>1237.35</ele>
        <time>2013-06-30T08:52:02Z</time>
      </trkpt>
      <trkpt lat="45.40318" lon="5.90216">
        <ele>1238.8</ele>
        <time>2013-06-30T08:52:15Z</time>
      </trkpt>
      <trkpt lat="45.40324" lon="5.90218">
        <ele>1240.24</ele>
        <time>2013-06-30T08:52:26Z</time>
      </trkpt>
      <trkpt lat="45.4033" lon="5.90227">
        <ele>1242.64</ele>
        <time>2013-06-30T08:52:38Z</time>
      </trkpt>
      <trkpt lat="45.40329" lon="5.90234">
        <ele>1245.04</ele>
        <time>2013-06-30T08:52:52Z</time>
      </trkpt>
      <trkpt lat="45.40326" lon="5.90243">
        <ele>1246.97</ele>
        <time>2013-06-30T08:53:04Z</time>
      </trkpt>
      <trkpt lat="45.40322" lon="5.90252">
        <ele>1248.41</ele>
        <time>2013-06-30T08:53:16Z</time>
      </trkpt>
      <trkpt lat="45.40325" lon="5.90266">
        <ele>1249.85</ele>
        <time>2013-06-30T08:53:32Z</time>
      </trkpt>
      <trkpt lat="45.40326" lon="5.90277">
        <ele>1251.77</ele>
        <time>2013-06-30T08:53:46Z</time>
      </trkpt>
      <trkpt lat="45.40331" lon="5.90287">
        <ele>1254.18</ele>
        <time>2013-06-30T08:54:00Z</time>
      </trkpt>
      <trkpt lat="45.40334" lon="5.9029">
        <ele>1256.58</ele>
        <time>2013-06-30T08:54:12Z</time>
      </trkpt>
      <trkpt lat="45.40338" lon="5.90287">
        <ele>1258.98</ele>
        <time>2013-06-30T08:54:25Z</time>
      </trkpt>
      <trkpt lat="45.40345" lon="5.9028">
        <ele>1261.39</ele>
        <time>2013-06-30T08:54:40Z</time>
      </trkpt>
      <trkpt lat="45.4035" lon="5.90276">
        <ele>1263.79</ele>
        <time>2013-06-30T08:54:53Z</time>
      </trkpt>
      <trkpt lat="45.40352" lon="5.90273">
        <ele>1264.75</ele>
        <time>2013-06-30T08:55:06Z</time>
      </trkpt>
      <trkpt lat="45.40352" lon="5.90275">
        <ele>1265.71</ele>
        <time>2013-06-30T08:55:22Z</time>
      </trkpt>
      <trkpt lat="45.40352" lon="5.90282">
        <ele>1266.67</ele>
        <time>2013-06-30T08:55:35Z</time>
      </trkpt>
      <trkpt lat="45.40353" lon="5.90292">
        <ele>1268.6</ele>
        <time>2013-06-30T08:55:50Z</time>
      </trkpt>
      <trkpt lat="45.40348" lon="5.90303">
        <ele>1271</ele>
        <time>2013-06-30T08:56:05Z</time>
      </trkpt>
      <trkpt lat="45.40347" lon="5.90304">
        <ele>1271.48</ele>
        <time>2013-06-30T08:56:06Z</time>
      </trkpt>
      <trkpt lat="45.40349" lon="5.90312">
        <ele>1273.4</ele>
        <time>2013-06-30T08:56:18Z</time>
      </trkpt>
      <trkpt lat="45.4036" lon="5.90322">
        <ele>1275.81</ele>
        <time>2013-06-30T08:56:30Z</time>
      </trkpt>
      <trkpt lat="45.40362" lon="5.90331">
        <ele>1277.73</ele>
        <time>2013-06-30T08:56:43Z</time>
      </trkpt>
      <trkpt lat="45.40363" lon="5.90337">
        <ele>1279.65</ele>
        <time>2013-06-30T08:56:55Z</time>
      </trkpt>
      <trkpt lat="45.4036" lon="5.90348">
        <ele>1282.06</ele>
        <time>2013-06-30T08:57:08Z</time>
      </trkpt>
      <trkpt lat="45.40359" lon="5.90358">
        <ele>1284.46</ele>
        <time>2013-06-30T08:57:21Z</time>
      </trkpt>
      <trkpt lat="45.4035" lon="5.90365">
        <ele>1285.42</ele>
        <time>2013-06-30T08:57:35Z</time>
      </trkpt>
      <trkpt lat="45.40346" lon="5.90369">
        <ele>1286.86</ele>
        <time>2013-06-30T08:57:45Z</time>
      </trkpt>
      <trkpt lat="45.40345" lon="5.90378">
        <ele>1289.27</ele>
        <time>2013-06-30T08:57:58Z</time>
      </trkpt>
      <trkpt lat="45.40342" lon="5.90385">
        <ele>1291.19</ele>
        <time>2013-06-30T08:58:10Z</time>
      </trkpt>
      <trkpt lat="45.4034" lon="5.90388">
        <ele>1291.67</ele>
        <time>2013-06-30T08:58:25Z</time>
      </trkpt>
      <trkpt lat="45.40336" lon="5.90396">
        <ele>1291.67</ele>
        <time>2013-06-30T08:58:53Z</time>
      </trkpt>
      <trkpt lat="45.40338" lon="5.90394">
        <ele>1291.67</ele>
        <time>2013-06-30T08:59:24Z</time>
      </trkpt>
      <trkpt lat="45.40333" lon="5.90394">
        <ele>1291.67</ele>
        <time>2013-06-30T08:59:48Z</time>
      </trkpt>
      <trkpt lat="45.40338" lon="5.90389">
        <ele>1292.15</ele>
        <time>2013-06-30T09:00:23Z</time>
      </trkpt>
      <trkpt lat="45.40337" lon="5.90387">
        <ele>1292.15</ele>
        <time>2013-06-30T09:00:43Z</time>
      </trkpt>
      <trkpt lat="45.40334" lon="5.90385">
        <ele>1292.15</ele>
        <time>2013-06-30T09:00:59Z</time>
      </trkpt>
      <trkpt lat="45.40336" lon="5.90388">
        <ele>1292.15</ele>
        <time>2013-06-30T09:01:13Z</time>
      </trkpt>
      <trkpt lat="45.40338" lon="5.90387">
        <ele>1292.63</ele>
        <time>2013-06-30T09:01:34Z</time>
      </trkpt>
      <trkpt lat="45.40339" lon="5.9039">
        <ele>1294.07</ele>
        <time>2013-06-30T09:01:47Z</time>
      </trkpt>
      <trkpt lat="45.40342" lon="5.90395">
        <ele>1295.99</ele>
        <time>2013-06-30T09:02:00Z</time>
      </trkpt>
      <trkpt lat="45.40345" lon="5.904">
        <ele>1298.4</ele>
        <time>2013-06-30T09:02:13Z</time>
      </trkpt>
      <trkpt lat="45.40342" lon="5.90404">
        <ele>1300.8</ele>
        <time>2013-06-30T09:02:24Z</time>
      </trkpt>
      <trkpt lat="45.40344" lon="5.90411">
        <ele>1303.2</ele>
        <time>2013-06-30T09:02:36Z</time>
      </trkpt>
      <trkpt lat="45.40348" lon="5.90418">
        <ele>1305.13</ele>
        <time>2013-06-30T09:02:49Z</time>
      </trkpt>
      <trkpt lat="45.40357" lon="5.90421">
        <ele>1305.13</ele>
        <time>2013-06-30T09:03:00Z</time>
      </trkpt>
      <trkpt lat="45.4036" lon="5.90425">
        <ele>1307.05</ele>
        <time>2013-06-30T09:03:14Z</time>
      </trkpt>
      <trkpt lat="45.40358" lon="5.90433">
        <ele>1309.93</ele>
        <time>2013-06-30T09:03:27Z</time>
      </trkpt>
      <trkpt lat="45.40357" lon="5.9044">
        <ele>1311.86</ele>
        <time>2013-06-30T09:03:39Z</time>
      </trkpt>
      <trkpt lat="45.40359" lon="5.90444">
        <ele>1313.78</ele>
        <time>2013-06-30T09:03:51Z</time>
      </trkpt>
      <trkpt lat="45.4036" lon="5.90447">
        <ele>1315.22</ele>
        <time>2013-06-30T09:03:59Z</time>
      </trkpt>
      <trkpt lat="45.40358" lon="5.90452">
        <ele>1317.14</ele>
        <time>2013-06-30T09:04:11Z</time>
      </trkpt>
      <trkpt lat="45.40357" lon="5.90453">
        <ele>1319.07</ele>
        <time>2013-06-30T09:04:22Z</time>
      </trkpt>
      <trkpt lat="45.40357" lon="5.90458">
        <ele>1320.51</ele>
        <time>2013-06-30T09:04:33Z</time>
      </trkpt>
      <trkpt lat="45.4036" lon="5.90462">
        <ele>1322.43</ele>
        <time>2013-06-30T09:04:44Z</time>
      </trkpt>
      <trkpt lat="45.4036" lon="5.90463">
        <ele>1323.87</ele>
        <time>2013-06-30T09:04:54Z</time>
      </trkpt>
      <trkpt lat="45.4036" lon="5.90465">
        <ele>1325.31</ele>
        <time>2013-06-30T09:05:05Z</time>
      </trkpt>
      <trkpt lat="45.40358" lon="5.90468">
        <ele>1327.72</ele>
        <time>2013-06-30T09:05:18Z</time>
      </trkpt>
      <trkpt lat="45.40355" lon="5.90469">
        <ele>1329.64</ele>
        <time>2013-06-30T09:05:29Z</time>
      </trkpt>
      <trkpt lat="45.40352" lon="5.90475">
        <ele>1331.56</ele>
        <time>2013-06-30T09:05:39Z</time>
      </trkpt>
      <trkpt lat="45.40356" lon="5.90479">
        <ele>1333.49</ele>
        <time>2013-06-30T09:05:51Z</time>
      </trkpt>
      <trkpt lat="45.40356" lon="5.90485">
        <ele>1335.41</ele>
        <time>2013-06-30T09:06:01Z</time>
      </trkpt>
      <trkpt lat="45.40355" lon="5.90487">
        <ele>1336.37</ele>
        <time>2013-06-30T09:06:10Z</time>
      </trkpt>
      <trkpt lat="45.40358" lon="5.90492">
        <ele>1338.77</ele>
        <time>2013-06-30T09:06:22Z</time>
      </trkpt>
      <trkpt lat="45.40355" lon="5.90496">
        <ele>1341.18</ele>
        <time>2013-06-30T09:06:35Z</time>
      </trkpt>
      <trkpt lat="45.40361" lon="5.90501">
        <ele>1343.1</ele>
        <time>2013-06-30T09:06:47Z</time>
      </trkpt>
      <trkpt lat="45.40362" lon="5.90503">
        <ele>1343.58</ele>
        <time>2013-06-30T09:06:51Z</time>
      </trkpt>
      <trkpt lat="45.40363" lon="5.90507">
        <ele>1345.5</ele>
        <time>2013-06-30T09:07:04Z</time>
      </trkpt>
      <trkpt lat="45.40363" lon="5.9051">
        <ele>1348.39</ele>
        <time>2013-06-30T09:07:18Z</time>
      </trkpt>
      <trkpt lat="45.40359" lon="5.9051">
        <ele>1351.27</ele>
        <time>2013-06-30T09:07:31Z</time>
      </trkpt>
      <trkpt lat="45.40353" lon="5.90509">
        <ele>1353.19</ele>
        <time>2013-06-30T09:07:42Z</time>
      </trkpt>
      <trkpt lat="45.40349" lon="5.90507">
        <ele>1355.12</ele>
        <time>2013-06-30T09:07:52Z</time>
      </trkpt>
      <trkpt lat="45.40347" lon="5.90507">
        <ele>1356.08</ele>
        <time>2013-06-30T09:07:59Z</time>
      </trkpt>
      <trkpt lat="45.40344" lon="5.90509">
        <ele>1358.48</ele>
        <time>2013-06-30T09:08:11Z</time>
      </trkpt>
      <trkpt lat="45.40343" lon="5.90509">
        <ele>1358.48</ele>
        <time>2013-06-30T09:08:12Z</time>
      </trkpt>
      <trkpt lat="45.40338" lon="5.90509">
        <ele>1360.4</ele>
        <time>2013-06-30T09:08:24Z</time>
      </trkpt>
      <trkpt lat="45.40337" lon="5.9051">
        <ele>1362.81</ele>
        <time>2013-06-30T09:08:37Z</time>
      </trkpt>
      <trkpt lat="45.40342" lon="5.90513">
        <ele>1364.73</ele>
        <time>2013-06-30T09:08:49Z</time>
      </trkpt>
      <trkpt lat="45.40344" lon="5.90512">
        <ele>1366.65</ele>
        <time>2013-06-30T09:09:00Z</time>
      </trkpt>
      <trkpt lat="45.40351" lon="5.90511">
        <ele>1368.57</ele>
        <time>2013-06-30T09:09:12Z</time>
      </trkpt>
      <trkpt lat="45.40353" lon="5.90515">
        <ele>1370.02</ele>
        <time>2013-06-30T09:09:19Z</time>
      </trkpt>
      <trkpt lat="45.40358" lon="5.90519">
        <ele>1372.9</ele>
        <time>2013-06-30T09:09:32Z</time>
      </trkpt>
      <trkpt lat="45.40361" lon="5.9053">
        <ele>1374.34</ele>
        <time>2013-06-30T09:09:43Z</time>
      </trkpt>
      <trkpt lat="45.40362" lon="5.90532">
        <ele>1375.3</ele>
        <time>2013-06-30T09:09:45Z</time>
      </trkpt>
      <trkpt lat="45.40364" lon="5.90537">
        <ele>1376.75</ele>
        <time>2013-06-30T09:09:55Z</time>
      </trkpt>
      <trkpt lat="45.40366" lon="5.90541">
        <ele>1378.67</ele>
        <time>2013-06-30T09:10:06Z</time>
      </trkpt>
      <trkpt lat="45.40366" lon="5.90544">
        <ele>1380.11</ele>
        <time>2013-06-30T09:10:16Z</time>
      </trkpt>
      <trkpt lat="45.40366" lon="5.90547">
        <ele>1380.59</ele>
        <time>2013-06-30T09:10:29Z</time>
      </trkpt>
      <trkpt lat="45.40363" lon="5.90544">
        <ele>1381.07</ele>
        <time>2013-06-30T09:10:46Z</time>
      </trkpt>
      <trkpt lat="45.40359" lon="5.90541">
        <ele>1381.07</ele>
        <time>2013-06-30T09:11:02Z</time>
      </trkpt>
      <trkpt lat="45.40358" lon="5.90542">
        <ele>1381.07</ele>
        <time>2013-06-30T09:11:26Z</time>
      </trkpt>
      <trkpt lat="45.40356" lon="5.90539">
        <ele>1381.07</ele>
        <time>2013-06-30T09:11:45Z</time>
      </trkpt>
      <trkpt lat="45.40357" lon="5.90546">
        <ele>1382.03</ele>
        <time>2013-06-30T09:11:58Z</time>
      </trkpt>
      <trkpt lat="45.40358" lon="5.90551">
        <ele>1384.44</ele>
        <time>2013-06-30T09:12:08Z</time>
      </trkpt>
      <trkpt lat="45.40365" lon="5.90556">
        <ele>1386.36</ele>
        <time>2013-06-30T09:12:20Z</time>
      </trkpt>
      <trkpt lat="45.40367" lon="5.90559">
        <ele>1388.28</ele>
        <time>2013-06-30T09:12:30Z</time>
      </trkpt>
      <trkpt lat="45.40373" lon="5.90561">
        <ele>1391.65</ele>
        <time>2013-06-30T09:12:43Z</time>
      </trkpt>
      <trkpt lat="45.40378" lon="5.90563">
        <ele>1393.09</ele>
        <time>2013-06-30T09:12:54Z</time>
      </trkpt>
      <trkpt lat="45.40385" lon="5.90571">
        <ele>1395.97</ele>
        <time>2013-06-30T09:13:06Z</time>
      </trkpt>
      <trkpt lat="45.40386" lon="5.90577">
        <ele>1397.41</ele>
        <time>2013-06-30T09:13:17Z</time>
      </trkpt>
      <trkpt lat="45.40389" lon="5.90585">
        <ele>1399.82</ele>
        <time>2013-06-30T09:13:29Z</time>
      </trkpt>
      <trkpt lat="45.40393" lon="5.90591">
        <ele>1402.22</ele>
        <time>2013-06-30T09:13:43Z</time>
      </trkpt>
      <trkpt lat="45.40393" lon="5.90595">
        <ele>1404.62</ele>
        <time>2013-06-30T09:13:54Z</time>
      </trkpt>
      <trkpt lat="45.40401" lon="5.906">
        <ele>1406.07</ele>
        <time>2013-06-30T09:14:05Z</time>
      </trkpt>
      <trkpt lat="45.40402" lon="5.90605">
        <ele>1408.47</ele>
        <time>2013-06-30T09:14:18Z</time>
      </trkpt>
      <trkpt lat="45.40403" lon="5.9061">
        <ele>1410.39</ele>
        <time>2013-06-30T09:14:29Z</time>
      </trkpt>
      <trkpt lat="45.40403" lon="5.90619">
        <ele>1412.79</ele>
        <time>2013-06-30T09:14:42Z</time>
      </trkpt>
      <trkpt lat="45.40405" lon="5.90629">
        <ele>1415.2</ele>
        <time>2013-06-30T09:14:55Z</time>
      </trkpt>
      <trkpt lat="45.40406" lon="5.90636">
        <ele>1417.12</ele>
        <time>2013-06-30T09:15:05Z</time>
      </trkpt>
      <trkpt lat="45.40407" lon="5.90642">
        <ele>1418.56</ele>
        <time>2013-06-30T09:15:16Z</time>
      </trkpt>
      <trkpt lat="45.40411" lon="5.90648">
        <ele>1420.97</ele>
        <time>2013-06-30T09:15:29Z</time>
      </trkpt>
      <trkpt lat="45.40408" lon="5.90654">
        <ele>1421.45</ele>
        <time>2013-06-30T09:15:40Z</time>
      </trkpt>
      <trkpt lat="45.40409" lon="5.90654">
        <ele>1421.93</ele>
        <time>2013-06-30T09:15:56Z</time>
      </trkpt>
      <trkpt lat="45.40406" lon="5.90657">
        <ele>1421.45</ele>
        <time>2013-06-30T09:16:12Z</time>
      </trkpt>
      <trkpt lat="45.40407" lon="5.90657">
        <ele>1422.89</ele>
        <time>2013-06-30T09:16:19Z</time>
      </trkpt>
      <trkpt lat="45.40427" lon="5.90664">
        <ele>1421.93</ele>
        <time>2013-06-30T09:16:53Z</time>
      </trkpt>
      <trkpt lat="45.40415" lon="5.90658">
        <ele>1422.41</ele>
        <time>2013-06-30T09:17:16Z</time>
      </trkpt>
      <trkpt lat="45.40418" lon="5.90654">
        <ele>1423.37</ele>
        <time>2013-06-30T09:17:39Z</time>
      </trkpt>
      <trkpt lat="45.40426" lon="5.90656">
        <ele>1423.37</ele>
        <time>2013-06-30T09:18:07Z</time>
      </trkpt>
      <trkpt lat="45.4041" lon="5.90659">
        <ele>1423.85</ele>
        <time>2013-06-30T09:18:40Z</time>
      </trkpt>
      <trkpt lat="45.40412" lon="5.90658">
        <ele>1423.85</ele>
        <time>2013-06-30T09:19:11Z</time>
      </trkpt>
      <trkpt lat="45.40416" lon="5.90656">
        <ele>1424.81</ele>
        <time>2013-06-30T09:19:28Z</time>
      </trkpt>
      <trkpt lat="45.40419" lon="5.90663">
        <ele>1426.73</ele>
        <time>2013-06-30T09:19:42Z</time>
      </trkpt>
      <trkpt lat="45.40423" lon="5.9067">
        <ele>1429.14</ele>
        <time>2013-06-30T09:19:55Z</time>
      </trkpt>
      <trkpt lat="45.40424" lon="5.90674">
        <ele>1430.58</ele>
        <time>2013-06-30T09:20:07Z</time>
      </trkpt>
      <trkpt lat="45.40425" lon="5.90679">
        <ele>1432.02</ele>
        <time>2013-06-30T09:20:18Z</time>
      </trkpt>
      <trkpt lat="45.40425" lon="5.90677">
        <ele>1433.46</ele>
        <time>2013-06-30T09:20:26Z</time>
      </trkpt>
      <trkpt lat="45.40424" lon="5.90687">
        <ele>1435.39</ele>
        <time>2013-06-30T09:20:38Z</time>
      </trkpt>
      <trkpt lat="45.40422" lon="5.90693">
        <ele>1437.31</ele>
        <time>2013-06-30T09:20:51Z</time>
      </trkpt>
      <trkpt lat="45.40425" lon="5.90695">
        <ele>1439.71</ele>
        <time>2013-06-30T09:21:03Z</time>
      </trkpt>
      <trkpt lat="45.40428" lon="5.90701">
        <ele>1440.67</ele>
        <time>2013-06-30T09:21:13Z</time>
      </trkpt>
      <trkpt lat="45.40431" lon="5.90708">
        <ele>1442.6</ele>
        <time>2013-06-30T09:21:24Z</time>
      </trkpt>
      <trkpt lat="45.40432" lon="5.90714">
        <ele>1444.52</ele>
        <time>2013-06-30T09:21:34Z</time>
      </trkpt>
      <trkpt lat="45.4043" lon="5.90721">
        <ele>1445.48</ele>
        <time>2013-06-30T09:21:46Z</time>
      </trkpt>
      <trkpt lat="45.40434" lon="5.9073">
        <ele>1446.44</ele>
        <time>2013-06-30T09:21:58Z</time>
      </trkpt>
      <trkpt lat="45.40442" lon="5.90741">
        <ele>1448.36</ele>
        <time>2013-06-30T09:22:10Z</time>
      </trkpt>
      <trkpt lat="45.40446" lon="5.90746">
        <ele>1450.29</ele>
        <time>2013-06-30T09:22:20Z</time>
      </trkpt>
      <trkpt lat="45.40443" lon="5.90754">
        <ele>1452.21</ele>
        <time>2013-06-30T09:22:31Z</time>
      </trkpt>
      <trkpt lat="45.40445" lon="5.90758">
        <ele>1452.69</ele>
        <time>2013-06-30T09:22:37Z</time>
      </trkpt>
      <trkpt lat="45.40453" lon="5.90768">
        <ele>1454.13</ele>
        <time>2013-06-30T09:22:51Z</time>
      </trkpt>
      <trkpt lat="45.4045" lon="5.90777">
        <ele>1455.57</ele>
        <time>2013-06-30T09:23:02Z</time>
      </trkpt>
      <trkpt lat="45.40446" lon="5.90781">
        <ele>1457.02</ele>
        <time>2013-06-30T09:23:14Z</time>
      </trkpt>
      <trkpt lat="45.40452" lon="5.90789">
        <ele>1457.5</ele>
        <time>2013-06-30T09:23:26Z</time>
      </trkpt>
      <trkpt lat="45.40457" lon="5.90797">
        <ele>1458.46</ele>
        <time>2013-06-30T09:23:37Z</time>
      </trkpt>
      <trkpt lat="45.40458" lon="5.90809">
        <ele>1459.42</ele>
        <time>2013-06-30T09:23:50Z</time>
      </trkpt>
      <trkpt lat="45.40463" lon="5.90818">
        <ele>1460.38</ele>
        <time>2013-06-30T09:24:01Z</time>
      </trkpt>
      <trkpt lat="45.40476" lon="5.90833">
        <ele>1461.34</ele>
        <time>2013-06-30T09:24:14Z</time>
      </trkpt>
      <trkpt lat="45.40479" lon="5.90849">
        <ele>1461.82</ele>
        <time>2013-06-30T09:24:29Z</time>
      </trkpt>
      <trkpt lat="45.40479" lon="5.90855">
        <ele>1462.3</ele>
        <time>2013-06-30T09:24:40Z</time>
      </trkpt>
      <trkpt lat="45.40487" lon="5.90869">
        <ele>1462.78</ele>
        <time>2013-06-30T09:24:53Z</time>
      </trkpt>
      <trkpt lat="45.4049" lon="5.90877">
        <ele>1463.26</ele>
        <time>2013-06-30T09:25:01Z</time>
      </trkpt>
      <trkpt lat="45.40497" lon="5.90896">
        <ele>1463.74</ele>
        <time>2013-06-30T09:25:15Z</time>
      </trkpt>
      <trkpt lat="45.40502" lon="5.90917">
        <ele>1465.19</ele>
        <time>2013-06-30T09:25:33Z</time>
      </trkpt>
      <trkpt lat="45.40504" lon="5.9093">
        <ele>1465.67</ele>
        <time>2013-06-30T09:25:47Z</time>
      </trkpt>
      <trkpt lat="45.40506" lon="5.90932">
        <ele>1465.67</ele>
        <time>2013-06-30T09:25:58Z</time>
      </trkpt>
      <trkpt lat="45.40507" lon="5.90936">
        <ele>1465.67</ele>
        <time>2013-06-30T09:26:11Z</time>
      </trkpt>
      <trkpt lat="45.40512" lon="5.90942">
        <ele>1465.67</ele>
        <time>2013-06-30T09:26:24Z</time>
      </trkpt>
      <trkpt lat="45.40519" lon="5.90948">
        <ele>1466.15</ele>
        <time>2013-06-30T09:26:37Z</time>
      </trkpt>
      <trkpt lat="45.40518" lon="5.90949">
        <ele>1466.15</ele>
        <time>2013-06-30T09:26:52Z</time>
      </trkpt>
      <trkpt lat="45.40519" lon="5.9095">
        <ele>1466.15</ele>
        <time>2013-06-30T09:27:05Z</time>
      </trkpt>
      <trkpt lat="45.40521" lon="5.90952">
        <ele>1466.15</ele>
        <time>2013-06-30T09:27:25Z</time>
      </trkpt>
      <trkpt lat="45.40529" lon="5.90962">
        <ele>1466.63</ele>
        <time>2013-06-30T09:27:38Z</time>
      </trkpt>
      <trkpt lat="45.40536" lon="5.90973">
        <ele>1467.11</ele>
        <time>2013-06-30T09:27:50Z</time>
      </trkpt>
      <trkpt lat="45.4055" lon="5.9099">
        <ele>1468.07</ele>
        <time>2013-06-30T09:28:08Z</time>
      </trkpt>
      <trkpt lat="45.4055" lon="5.90991">
        <ele>1468.07</ele>
        <time>2013-06-30T09:28:09Z</time>
      </trkpt>
      <trkpt lat="45.40562" lon="5.91003">
        <ele>1469.03</ele>
        <time>2013-06-30T09:28:25Z</time>
      </trkpt>
      <trkpt lat="45.40578" lon="5.91015">
        <ele>1469.51</ele>
        <time>2013-06-30T09:28:43Z</time>
      </trkpt>
      <trkpt lat="45.40592" lon="5.91028">
        <ele>1471.44</ele>
        <time>2013-06-30T09:28:59Z</time>
      </trkpt>
      <trkpt lat="45.40601" lon="5.91039">
        <ele>1471.44</ele>
        <time>2013-06-30T09:29:12Z</time>
      </trkpt>
      <trkpt lat="45.40611" lon="5.91052">
        <ele>1472.4</ele>
        <time>2013-06-30T09:29:27Z</time>
      </trkpt>
      <trkpt lat="45.40618" lon="5.91062">
        <ele>1472.88</ele>
        <time>2013-06-30T09:29:41Z</time>
      </trkpt>
      <trkpt lat="45.40621" lon="5.91075">
        <ele>1474.32</ele>
        <time>2013-06-30T09:29:53Z</time>
      </trkpt>
      <trkpt lat="45.4063" lon="5.91084">
        <ele>1476.24</ele>
        <time>2013-06-30T09:30:08Z</time>
      </trkpt>
      <trkpt lat="45.40634" lon="5.91079">
        <ele>1478.16</ele>
        <time>2013-06-30T09:30:19Z</time>
      </trkpt>
      <trkpt lat="45.40638" lon="5.91077">
        <ele>1480.09</ele>
        <time>2013-06-30T09:30:31Z</time>
      </trkpt>
      <trkpt lat="45.40644" lon="5.91082">
        <ele>1481.53</ele>
        <time>2013-06-30T09:30:44Z</time>
      </trkpt>
      <trkpt lat="45.40647" lon="5.91091">
        <ele>1482.97</ele>
        <time>2013-06-30T09:30:55Z</time>
      </trkpt>
      <trkpt lat="45.40652" lon="5.91099">
        <ele>1484.41</ele>
        <time>2013-06-30T09:31:08Z</time>
      </trkpt>
      <trkpt lat="45.40655" lon="5.91106">
        <ele>1485.85</ele>
        <time>2013-06-30T09:31:19Z</time>
      </trkpt>
      <trkpt lat="45.40659" lon="5.91114">
        <ele>1487.3</ele>
        <time>2013-06-30T09:31:31Z</time>
      </trkpt>
      <trkpt lat="45.40662" lon="5.91127">
        <ele>1487.78</ele>
        <time>2013-06-30T09:31:44Z</time>
      </trkpt>
      <trkpt lat="45.40664" lon="5.91141">
        <ele>1488.74</ele>
        <time>2013-06-30T09:31:57Z</time>
      </trkpt>
      <trkpt lat="45.40664" lon="5.91144">
        <ele>1488.74</ele>
        <time>2013-06-30T09:31:59Z</time>
      </trkpt>
      <trkpt lat="45.40667" lon="5.91164">
        <ele>1489.7</ele>
        <time>2013-06-30T09:32:14Z</time>
      </trkpt>
      <trkpt lat="45.40668" lon="5.91167">
        <ele>1490.18</ele>
        <time>2013-06-30T09:32:17Z</time>
      </trkpt>
      <trkpt lat="45.4067" lon="5.91169">
        <ele>1490.18</ele>
        <time>2013-06-30T09:32:20Z</time>
      </trkpt>
      <trkpt lat="45.40676" lon="5.91183">
        <ele>1490.66</ele>
        <time>2013-06-30T09:32:35Z</time>
      </trkpt>
      <trkpt lat="45.40683" lon="5.91192">
        <ele>1491.62</ele>
        <time>2013-06-30T09:32:48Z</time>
      </trkpt>
      <trkpt lat="45.40688" lon="5.91201">
        <ele>1492.1</ele>
        <time>2013-06-30T09:33:02Z</time>
      </trkpt>
      <trkpt lat="45.40691" lon="5.9121">
        <ele>1493.55</ele>
        <time>2013-06-30T09:33:13Z</time>
      </trkpt>
      <trkpt lat="45.40698" lon="5.91219">
        <ele>1494.51</ele>
        <time>2013-06-30T09:33:25Z</time>
      </trkpt>
      <trkpt lat="45.407" lon="5.91225">
        <ele>1494.99</ele>
        <time>2013-06-30T09:33:31Z</time>
      </trkpt>
      <trkpt lat="45.40707" lon="5.91234">
        <ele>1495.95</ele>
        <time>2013-06-30T09:33:45Z</time>
      </trkpt>
      <trkpt lat="45.40712" lon="5.91238">
        <ele>1497.39</ele>
        <time>2013-06-30T09:33:55Z</time>
      </trkpt>
      <trkpt lat="45.40717" lon="5.91245">
        <ele>1498.83</ele>
        <time>2013-06-30T09:34:06Z</time>
      </trkpt>
      <trkpt lat="45.40721" lon="5.91248">
        <ele>1499.79</ele>
        <time>2013-06-30T09:34:17Z</time>
      </trkpt>
      <trkpt lat="45.40726" lon="5.91253">
        <ele>1502.2</ele>
        <time>2013-06-30T09:34:29Z</time>
      </trkpt>
      <trkpt lat="45.40729" lon="5.91257">
        <ele>1504.6</ele>
        <time>2013-06-30T09:34:41Z</time>
      </trkpt>
      <trkpt lat="45.40733" lon="5.91254">
        <ele>1506.52</ele>
        <time>2013-06-30T09:34:52Z</time>
      </trkpt>
      <trkpt lat="45.40739" lon="5.91253">
        <ele>1507.48</ele>
        <time>2013-06-30T09:35:05Z</time>
      </trkpt>
      <trkpt lat="45.40745" lon="5.91265">
        <ele>1508.93</ele>
        <time>2013-06-30T09:35:18Z</time>
      </trkpt>
      <trkpt lat="45.40752" lon="5.91276">
        <ele>1509.89</ele>
        <time>2013-06-30T09:35:30Z</time>
      </trkpt>
      <trkpt lat="45.40758" lon="5.91288">
        <ele>1510.85</ele>
        <time>2013-06-30T09:35:44Z</time>
      </trkpt>
      <trkpt lat="45.40765" lon="5.91292">
        <ele>1511.33</ele>
        <time>2013-06-30T09:35:56Z</time>
      </trkpt>
      <trkpt lat="45.40773" lon="5.91292">
        <ele>1513.25</ele>
        <time>2013-06-30T09:36:09Z</time>
      </trkpt>
      <trkpt lat="45.40778" lon="5.91291">
        <ele>1515.66</ele>
        <time>2013-06-30T09:36:20Z</time>
      </trkpt>
      <trkpt lat="45.40783" lon="5.91291">
        <ele>1517.1</ele>
        <time>2013-06-30T09:36:31Z</time>
      </trkpt>
      <trkpt lat="45.40787" lon="5.91286">
        <ele>1519.02</ele>
        <time>2013-06-30T09:36:43Z</time>
      </trkpt>
      <trkpt lat="45.40791" lon="5.91282">
        <ele>1520.46</ele>
        <time>2013-06-30T09:36:56Z</time>
      </trkpt>
      <trkpt lat="45.40793" lon="5.91282">
        <ele>1521.9</ele>
        <time>2013-06-30T09:37:07Z</time>
      </trkpt>
      <trkpt lat="45.40799" lon="5.91286">
        <ele>1523.83</ele>
        <time>2013-06-30T09:37:18Z</time>
      </trkpt>
      <trkpt lat="45.40803" lon="5.91288">
        <ele>1525.75</ele>
        <time>2013-06-30T09:37:31Z</time>
      </trkpt>
      <trkpt lat="45.40806" lon="5.91285">
        <ele>1527.67</ele>
        <time>2013-06-30T09:37:42Z</time>
      </trkpt>
      <trkpt lat="45.40809" lon="5.91288">
        <ele>1528.15</ele>
        <time>2013-06-30T09:37:52Z</time>
      </trkpt>
      <trkpt lat="45.40814" lon="5.91303">
        <ele>1528.15</ele>
        <time>2013-06-30T09:38:07Z</time>
      </trkpt>
      <trkpt lat="45.40822" lon="5.91313">
        <ele>1528.63</ele>
        <time>2013-06-30T09:38:20Z</time>
      </trkpt>
      <trkpt lat="45.4083" lon="5.91314">
        <ele>1528.63</ele>
        <time>2013-06-30T09:38:33Z</time>
      </trkpt>
      <trkpt lat="45.40837" lon="5.91312">
        <ele>1529.59</ele>
        <time>2013-06-30T09:38:44Z</time>
      </trkpt>
      <trkpt lat="45.4084" lon="5.91302">
        <ele>1531.04</ele>
        <time>2013-06-30T09:38:57Z</time>
      </trkpt>
      <trkpt lat="45.40843" lon="5.91292">
        <ele>1532.96</ele>
        <time>2013-06-30T09:39:09Z</time>
      </trkpt>
      <trkpt lat="45.40842" lon="5.91279">
        <ele>1534.4</ele>
        <time>2013-06-30T09:39:22Z</time>
      </trkpt>
      <trkpt lat="45.40844" lon="5.91269">
        <ele>1535.84</ele>
        <time>2013-06-30T09:39:34Z</time>
      </trkpt>
      <trkpt lat="45.40843" lon="5.91254">
        <ele>1535.84</ele>
        <time>2013-06-30T09:39:47Z</time>
      </trkpt>
      <trkpt lat="45.40841" lon="5.9124">
        <ele>1537.29</ele>
        <time>2013-06-30T09:39:59Z</time>
      </trkpt>
      <trkpt lat="45.40842" lon="5.9123">
        <ele>1540.17</ele>
        <time>2013-06-30T09:40:10Z</time>
      </trkpt>
      <trkpt lat="45.40841" lon="5.91221">
        <ele>1542.57</ele>
        <time>2013-06-30T09:40:22Z</time>
      </trkpt>
      <trkpt lat="45.40838" lon="5.9121">
        <ele>1544.5</ele>
        <time>2013-06-30T09:40:34Z</time>
      </trkpt>
      <trkpt lat="45.40837" lon="5.91202">
        <ele>1545.94</ele>
        <time>2013-06-30T09:40:45Z</time>
      </trkpt>
      <trkpt lat="45.40838" lon="5.91195">
        <ele>1547.86</ele>
        <time>2013-06-30T09:40:56Z</time>
      </trkpt>
      <trkpt lat="45.40832" lon="5.91186">
        <ele>1549.3</ele>
        <time>2013-06-30T09:41:08Z</time>
      </trkpt>
      <trkpt lat="45.40833" lon="5.91174">
        <ele>1551.22</ele>
        <time>2013-06-30T09:41:21Z</time>
      </trkpt>
      <trkpt lat="45.40838" lon="5.91168">
        <ele>1553.15</ele>
        <time>2013-06-30T09:41:34Z</time>
      </trkpt>
      <trkpt lat="45.40841" lon="5.91163">
        <ele>1554.11</ele>
        <time>2013-06-30T09:41:45Z</time>
      </trkpt>
      <trkpt lat="45.40841" lon="5.91159">
        <ele>1555.07</ele>
        <time>2013-06-30T09:41:59Z</time>
      </trkpt>
      <trkpt lat="45.4084" lon="5.9115">
        <ele>1558.43</ele>
        <time>2013-06-30T09:42:13Z</time>
      </trkpt>
      <trkpt lat="45.40838" lon="5.91146">
        <ele>1559.88</ele>
        <time>2013-06-30T09:42:19Z</time>
      </trkpt>
      <trkpt lat="45.40835" lon="5.9114">
        <ele>1560.84</ele>
        <time>2013-06-30T09:42:33Z</time>
      </trkpt>
      <trkpt lat="45.40836" lon="5.91141">
        <ele>1559.4</ele>
        <time>2013-06-30T09:42:37Z</time>
      </trkpt>
      <trkpt lat="45.40839" lon="5.91156">
        <ele>1557.47</ele>
        <time>2013-06-30T09:42:51Z</time>
      </trkpt>
      <trkpt lat="45.40839" lon="5.91157">
        <ele>1556.03</ele>
        <time>2013-06-30T09:43:02Z</time>
      </trkpt>
      <trkpt lat="45.40845" lon="5.9116">
        <ele>1555.55</ele>
        <time>2013-06-30T09:43:14Z</time>
      </trkpt>
      <trkpt lat="45.40847" lon="5.9116">
        <ele>1556.99</ele>
        <time>2013-06-30T09:43:20Z</time>
      </trkpt>
      <trkpt lat="45.40851" lon="5.91162">
        <ele>1558.92</ele>
        <time>2013-06-30T09:43:32Z</time>
      </trkpt>
      <trkpt lat="45.40855" lon="5.91169">
        <ele>1560.36</ele>
        <time>2013-06-30T09:43:43Z</time>
      </trkpt>
      <trkpt lat="45.40859" lon="5.91173">
        <ele>1562.76</ele>
        <time>2013-06-30T09:43:56Z</time>
      </trkpt>
      <trkpt lat="45.40864" lon="5.91172">
        <ele>1564.68</ele>
        <time>2013-06-30T09:44:08Z</time>
      </trkpt>
      <trkpt lat="45.40867" lon="5.91169">
        <ele>1567.09</ele>
        <time>2013-06-30T09:44:22Z</time>
      </trkpt>
      <trkpt lat="45.4087" lon="5.91171">
        <ele>1569.01</ele>
        <time>2013-06-30T09:44:33Z</time>
      </trkpt>
      <trkpt lat="45.40874" lon="5.91169">
        <ele>1570.93</ele>
        <time>2013-06-30T09:44:45Z</time>
      </trkpt>
      <trkpt lat="45.40876" lon="5.91167">
        <ele>1572.85</ele>
        <time>2013-06-30T09:44:56Z</time>
      </trkpt>
      <trkpt lat="45.4088" lon="5.91168">
        <ele>1574.3</ele>
        <time>2013-06-30T09:45:08Z</time>
      </trkpt>
      <trkpt lat="45.40883" lon="5.91166">
        <ele>1576.7</ele>
        <time>2013-06-30T09:45:18Z</time>
      </trkpt>
      <trkpt lat="45.40886" lon="5.91171">
        <ele>1577.66</ele>
        <time>2013-06-30T09:45:30Z</time>
      </trkpt>
      <trkpt lat="45.40888" lon="5.91175">
        <ele>1579.58</ele>
        <time>2013-06-30T09:45:41Z</time>
      </trkpt>
      <trkpt lat="45.40891" lon="5.91182">
        <ele>1581.03</ele>
        <time>2013-06-30T09:45:53Z</time>
      </trkpt>
      <trkpt lat="45.40895" lon="5.91183">
        <ele>1582.95</ele>
        <time>2013-06-30T09:46:04Z</time>
      </trkpt>
      <trkpt lat="45.409" lon="5.91188">
        <ele>1585.35</ele>
        <time>2013-06-30T09:46:19Z</time>
      </trkpt>
      <trkpt lat="45.40905" lon="5.9119">
        <ele>1587.27</ele>
        <time>2013-06-30T09:46:30Z</time>
      </trkpt>
      <trkpt lat="45.40909" lon="5.91192">
        <ele>1588.72</ele>
        <time>2013-06-30T09:46:40Z</time>
      </trkpt>
      <trkpt lat="45.40912" lon="5.91194">
        <ele>1590.64</ele>
        <time>2013-06-30T09:46:50Z</time>
      </trkpt>
      <trkpt lat="45.40915" lon="5.91195">
        <ele>1591.6</ele>
        <time>2013-06-30T09:47:02Z</time>
      </trkpt>
      <trkpt lat="45.40919" lon="5.91206">
        <ele>1592.08</ele>
        <time>2013-06-30T09:47:15Z</time>
      </trkpt>
      <trkpt lat="45.40924" lon="5.9121">
        <ele>1593.04</ele>
        <time>2013-06-30T09:47:23Z</time>
      </trkpt>
      <trkpt lat="45.40931" lon="5.91214">
        <ele>1594.96</ele>
        <time>2013-06-30T09:47:34Z</time>
      </trkpt>
      <trkpt lat="45.40935" lon="5.91217">
        <ele>1596.89</ele>
        <time>2013-06-30T09:47:43Z</time>
      </trkpt>
      <trkpt lat="45.40939" lon="5.91221">
        <ele>1598.81</ele>
        <time>2013-06-30T09:47:54Z</time>
      </trkpt>
      <trkpt lat="45.40941" lon="5.91224">
        <ele>1600.25</ele>
        <time>2013-06-30T09:48:04Z</time>
      </trkpt>
      <trkpt lat="45.40947" lon="5.91228">
        <ele>1602.17</ele>
        <time>2013-06-30T09:48:16Z</time>
      </trkpt>
      <trkpt lat="45.40953" lon="5.91233">
        <ele>1604.1</ele>
        <time>2013-06-30T09:48:28Z</time>
      </trkpt>
      <trkpt lat="45.40958" lon="5.91237">
        <ele>1606.02</ele>
        <time>2013-06-30T09:48:39Z</time>
      </trkpt>
      <trkpt lat="45.40959" lon="5.91237">
        <ele>1607.94</ele>
        <time>2013-06-30T09:48:49Z</time>
      </trkpt>
      <trkpt lat="45.40959" lon="5.91235">
        <ele>1607.94</ele>
        <time>2013-06-30T09:48:59Z</time>
      </trkpt>
      <trkpt lat="45.40959" lon="5.91234">
        <ele>1608.9</ele>
        <time>2013-06-30T09:49:03Z</time>
      </trkpt>
      <trkpt lat="45.4096" lon="5.91234">
        <ele>1606.02</ele>
        <time>2013-06-30T09:49:06Z</time>
      </trkpt>
      <trkpt lat="45.4096" lon="5.91234">
        <ele>1609.38</ele>
        <time>2013-06-30T09:49:07Z</time>
      </trkpt>
      <trkpt lat="45.4096" lon="5.91236">
        <ele>1606.98</ele>
        <time>2013-06-30T09:49:35Z</time>
      </trkpt>
      <trkpt lat="45.40959" lon="5.91231">
        <ele>1606.98</ele>
        <time>2013-06-30T09:50:02Z</time>
      </trkpt>
      <trkpt lat="45.40961" lon="5.91228">
        <ele>1606.98</ele>
        <time>2013-06-30T09:50:33Z</time>
      </trkpt>
      <trkpt lat="45.40961" lon="5.91232">
        <ele>1606.98</ele>
        <time>2013-06-30T09:50:57Z</time>
      </trkpt>
      <trkpt lat="45.40958" lon="5.91228">
        <ele>1606.98</ele>
        <time>2013-06-30T09:51:20Z</time>
      </trkpt>
      <trkpt lat="45.40955" lon="5.91232">
        <ele>1606.98</ele>
        <time>2013-06-30T09:51:50Z</time>
      </trkpt>
      <trkpt lat="45.40955" lon="5.91233">
        <ele>1606.98</ele>
        <time>2013-06-30T09:52:15Z</time>
      </trkpt>
      <trkpt lat="45.40954" lon="5.9123">
        <ele>1606.98</ele>
        <time>2013-06-30T09:52:46Z</time>
      </trkpt>
      <trkpt lat="45.40961" lon="5.91234">
        <ele>1606.98</ele>
        <time>2013-06-30T09:53:19Z</time>
      </trkpt>
      <trkpt lat="45.40959" lon="5.91234">
        <ele>1606.02</ele>
        <time>2013-06-30T09:53:40Z</time>
      </trkpt>
      <trkpt lat="45.40962" lon="5.91231">
        <ele>1606.02</ele>
        <time>2013-06-30T09:54:02Z</time>
      </trkpt>
      <trkpt lat="45.4096" lon="5.91233">
        <ele>1606.02</ele>
        <time>2013-06-30T09:54:30Z</time>
      </trkpt>
      <trkpt lat="45.4096" lon="5.91235">
        <ele>1606.02</ele>
        <time>2013-06-30T09:54:55Z</time>
      </trkpt>
      <trkpt lat="45.40963" lon="5.91232">
        <ele>1606.02</ele>
        <time>2013-06-30T09:55:19Z</time>
      </trkpt>
      <trkpt lat="45.4096" lon="5.91228">
        <ele>1606.02</ele>
        <time>2013-06-30T09:55:42Z</time>
      </trkpt>
      <trkpt lat="45.40962" lon="5.91229">
        <ele>1607.46</ele>
        <time>2013-06-30T09:55:56Z</time>
      </trkpt>
      <trkpt lat="45.40961" lon="5.91231">
        <ele>1606.98</ele>
        <time>2013-06-30T09:56:13Z</time>
      </trkpt>
      <trkpt lat="45.40963" lon="5.9123">
        <ele>1606.98</ele>
        <time>2013-06-30T09:56:34Z</time>
      </trkpt>
      <trkpt lat="45.40964" lon="5.91231">
        <ele>1606.5</ele>
        <time>2013-06-30T09:56:55Z</time>
      </trkpt>
      <trkpt lat="45.40961" lon="5.91231">
        <ele>1606.5</ele>
        <time>2013-06-30T09:57:07Z</time>
      </trkpt>
      <trkpt lat="45.40961" lon="5.91232">
        <ele>1607.94</ele>
        <time>2013-06-30T09:57:17Z</time>
      </trkpt>
      <trkpt lat="45.40962" lon="5.91233">
        <ele>1607.94</ele>
        <time>2013-06-30T09:57:41Z</time>
      </trkpt>
      <trkpt lat="45.40958" lon="5.91233">
        <ele>1607.94</ele>
        <time>2013-06-30T09:58:03Z</time>
      </trkpt>
      <trkpt lat="45.40954" lon="5.91227">
        <ele>1607.46</ele>
        <time>2013-06-30T09:58:19Z</time>
      </trkpt>
      <trkpt lat="45.40951" lon="5.9122">
        <ele>1607.46</ele>
        <time>2013-06-30T09:58:32Z</time>
      </trkpt>
      <trkpt lat="45.40947" lon="5.91214">
        <ele>1607.46</ele>
        <time>2013-06-30T09:58:38Z</time>
      </trkpt>
      <trkpt lat="45.40944" lon="5.91207">
        <ele>1607.46</ele>
        <time>2013-06-30T09:58:50Z</time>
      </trkpt>
      <trkpt lat="45.4094" lon="5.91205">
        <ele>1607.46</ele>
        <time>2013-06-30T09:59:04Z</time>
      </trkpt>
      <trkpt lat="45.40938" lon="5.91203">
        <ele>1607.46</ele>
        <time>2013-06-30T09:59:20Z</time>
      </trkpt>
      <trkpt lat="45.40933" lon="5.91206">
        <ele>1607.46</ele>
        <time>2013-06-30T09:59:31Z</time>
      </trkpt>
      <trkpt lat="45.40925" lon="5.91196">
        <ele>1607.46</ele>
        <time>2013-06-30T09:59:44Z</time>
      </trkpt>
      <trkpt lat="45.40915" lon="5.91179">
        <ele>1606.5</ele>
        <time>2013-06-30T09:59:59Z</time>
      </trkpt>
      <trkpt lat="45.4091" lon="5.91154">
        <ele>1606.02</ele>
        <time>2013-06-30T10:00:13Z</time>
      </trkpt>
      <trkpt lat="45.40899" lon="5.91156">
        <ele>1606.02</ele>
        <time>2013-06-30T10:00:27Z</time>
      </trkpt>
      <trkpt lat="45.40888" lon="5.91156">
        <ele>1606.02</ele>
        <time>2013-06-30T10:00:41Z</time>
      </trkpt>
      <trkpt lat="45.40866" lon="5.91126">
        <ele>1606.5</ele>
        <time>2013-06-30T10:00:58Z</time>
      </trkpt>
      <trkpt lat="45.40876" lon="5.91088">
        <ele>1607.46</ele>
        <time>2013-06-30T10:01:10Z</time>
      </trkpt>
      <trkpt lat="45.40878" lon="5.91088">
        <ele>1607.46</ele>
        <time>2013-06-30T10:01:11Z</time>
      </trkpt>
      <trkpt lat="45.40881" lon="5.91077">
        <ele>1607.94</ele>
        <time>2013-06-30T10:01:24Z</time>
      </trkpt>
      <trkpt lat="45.40878" lon="5.91065">
        <ele>1607.94</ele>
        <time>2013-06-30T10:01:37Z</time>
      </trkpt>
      <trkpt lat="45.40874" lon="5.91048">
        <ele>1607.94</ele>
        <time>2013-06-30T10:01:51Z</time>
      </trkpt>
      <trkpt lat="45.40869" lon="5.91033">
        <ele>1608.42</ele>
        <time>2013-06-30T10:02:06Z</time>
      </trkpt>
      <trkpt lat="45.40867" lon="5.91026">
        <ele>1608.9</ele>
        <time>2013-06-30T10:02:18Z</time>
      </trkpt>
      <trkpt lat="45.40861" lon="5.91013">
        <ele>1608.9</ele>
        <time>2013-06-30T10:02:33Z</time>
      </trkpt>
      <trkpt lat="45.4086" lon="5.91012">
        <ele>1608.9</ele>
        <time>2013-06-30T10:02:34Z</time>
      </trkpt>
      <trkpt lat="45.40857" lon="5.91007">
        <ele>1609.86</ele>
        <time>2013-06-30T10:02:40Z</time>
      </trkpt>
      <trkpt lat="45.4085" lon="5.90995">
        <ele>1609.86</ele>
        <time>2013-06-30T10:02:54Z</time>
      </trkpt>
      <trkpt lat="45.40843" lon="5.90981">
        <ele>1611.31</ele>
        <time>2013-06-30T10:03:08Z</time>
      </trkpt>
      <trkpt lat="45.40838" lon="5.90969">
        <ele>1611.79</ele>
        <time>2013-06-30T10:03:21Z</time>
      </trkpt>
      <trkpt lat="45.40832" lon="5.90959">
        <ele>1612.75</ele>
        <time>2013-06-30T10:03:33Z</time>
      </trkpt>
      <trkpt lat="45.4083" lon="5.90958">
        <ele>1613.23</ele>
        <time>2013-06-30T10:03:36Z</time>
      </trkpt>
      <trkpt lat="45.40824" lon="5.90951">
        <ele>1614.19</ele>
        <time>2013-06-30T10:03:49Z</time>
      </trkpt>
      <trkpt lat="45.4082" lon="5.90945">
        <ele>1614.67</ele>
        <time>2013-06-30T10:03:59Z</time>
      </trkpt>
      <trkpt lat="45.40816" lon="5.90934">
        <ele>1616.59</ele>
        <time>2013-06-30T10:04:12Z</time>
      </trkpt>
      <trkpt lat="45.4081" lon="5.90929">
        <ele>1617.56</ele>
        <time>2013-06-30T10:04:23Z</time>
      </trkpt>
      <trkpt lat="45.40802" lon="5.90921">
        <ele>1618.52</ele>
        <time>2013-06-30T10:04:37Z</time>
      </trkpt>
      <trkpt lat="45.40794" lon="5.90909">
        <ele>1619.48</ele>
        <time>2013-06-30T10:04:52Z</time>
      </trkpt>
      <trkpt lat="45.40788" lon="5.90901">
        <ele>1619.96</ele>
        <time>2013-06-30T10:05:04Z</time>
      </trkpt>
      <trkpt lat="45.40785" lon="5.90893">
        <ele>1619.48</ele>
        <time>2013-06-30T10:05:12Z</time>
      </trkpt>
      <trkpt lat="45.40779" lon="5.90879">
        <ele>1620.44</ele>
        <time>2013-06-30T10:05:27Z</time>
      </trkpt>
      <trkpt lat="45.40771" lon="5.90868">
        <ele>1620.44</ele>
        <time>2013-06-30T10:05:45Z</time>
      </trkpt>
      <trkpt lat="45.40765" lon="5.90851">
        <ele>1621.88</ele>
        <time>2013-06-30T10:06:03Z</time>
      </trkpt>
      <trkpt lat="45.40759" lon="5.90842">
        <ele>1622.36</ele>
        <time>2013-06-30T10:06:15Z</time>
      </trkpt>
      <trkpt lat="45.40756" lon="5.90836">
        <ele>1622.36</ele>
        <time>2013-06-30T10:06:25Z</time>
      </trkpt>
      <trkpt lat="45.40749" lon="5.9083">
        <ele>1622.36</ele>
        <time>2013-06-30T10:06:40Z</time>
      </trkpt>
      <trkpt lat="45.40746" lon="5.90821">
        <ele>1622.36</ele>
        <time>2013-06-30T10:06:53Z</time>
      </trkpt>
      <trkpt lat="45.4074" lon="5.90807">
        <ele>1623.8</ele>
        <time>2013-06-30T10:07:07Z</time>
      </trkpt>
      <trkpt lat="45.40737" lon="5.9079">
        <ele>1625.25</ele>
        <time>2013-06-30T10:07:23Z</time>
      </trkpt>
      <trkpt lat="45.40734" lon="5.90777">
        <ele>1626.69</ele>
        <time>2013-06-30T10:07:38Z</time>
      </trkpt>
      <trkpt lat="45.40731" lon="5.90761">
        <ele>1627.17</ele>
        <time>2013-06-30T10:07:53Z</time>
      </trkpt>
      <trkpt lat="45.40729" lon="5.9075">
        <ele>1628.61</ele>
        <time>2013-06-30T10:08:06Z</time>
      </trkpt>
      <trkpt lat="45.40726" lon="5.90737">
        <ele>1629.09</ele>
        <time>2013-06-30T10:08:19Z</time>
      </trkpt>
      <trkpt lat="45.40725" lon="5.90725">
        <ele>1630.05</ele>
        <time>2013-06-30T10:08:33Z</time>
      </trkpt>
      <trkpt lat="45.40724" lon="5.90724">
        <ele>1630.05</ele>
        <time>2013-06-30T10:08:34Z</time>
      </trkpt>
      <trkpt lat="45.40722" lon="5.90713">
        <ele>1630.53</ele>
        <time>2013-06-30T10:08:47Z</time>
      </trkpt>
      <trkpt lat="45.40721" lon="5.907">
        <ele>1631.98</ele>
        <time>2013-06-30T10:09:02Z</time>
      </trkpt>
      <trkpt lat="45.40721" lon="5.90698">
        <ele>1633.9</ele>
        <time>2013-06-30T10:09:06Z</time>
      </trkpt>
      <trkpt lat="45.40719" lon="5.90691">
        <ele>1634.38</ele>
        <time>2013-06-30T10:09:18Z</time>
      </trkpt>
      <trkpt lat="45.40717" lon="5.9068">
        <ele>1632.94</ele>
        <time>2013-06-30T10:09:31Z</time>
      </trkpt>
      <trkpt lat="45.40718" lon="5.90679">
        <ele>1634.38</ele>
        <time>2013-06-30T10:09:33Z</time>
      </trkpt>
      <trkpt lat="45.40719" lon="5.90672">
        <ele>1636.78</ele>
        <time>2013-06-30T10:09:44Z</time>
      </trkpt>
      <trkpt lat="45.40718" lon="5.90661">
        <ele>1637.26</ele>
        <time>2013-06-30T10:09:58Z</time>
      </trkpt>
      <trkpt lat="45.40718" lon="5.9065">
        <ele>1639.19</ele>
        <time>2013-06-30T10:10:12Z</time>
      </trkpt>
      <trkpt lat="45.40717" lon="5.90634">
        <ele>1640.63</ele>
        <time>2013-06-30T10:10:27Z</time>
      </trkpt>
      <trkpt lat="45.40718" lon="5.90626">
        <ele>1641.11</ele>
        <time>2013-06-30T10:10:38Z</time>
      </trkpt>
      <trkpt lat="45.40718" lon="5.90611">
        <ele>1642.55</ele>
        <time>2013-06-30T10:10:54Z</time>
      </trkpt>
      <trkpt lat="45.40718" lon="5.90594">
        <ele>1643.51</ele>
        <time>2013-06-30T10:11:09Z</time>
      </trkpt>
      <trkpt lat="45.40717" lon="5.90583">
        <ele>1643.99</ele>
        <time>2013-06-30T10:11:21Z</time>
      </trkpt>
      <trkpt lat="45.40717" lon="5.90573">
        <ele>1644.47</ele>
        <time>2013-06-30T10:11:34Z</time>
      </trkpt>
      <trkpt lat="45.40717" lon="5.90568">
        <ele>1644.47</ele>
        <time>2013-06-30T10:11:43Z</time>
      </trkpt>
      <trkpt lat="45.40718" lon="5.90562">
        <ele>1646.4</ele>
        <time>2013-06-30T10:11:54Z</time>
      </trkpt>
      <trkpt lat="45.40719" lon="5.90554">
        <ele>1646.88</ele>
        <time>2013-06-30T10:12:07Z</time>
      </trkpt>
      <trkpt lat="45.40719" lon="5.90544">
        <ele>1647.84</ele>
        <time>2013-06-30T10:12:20Z</time>
      </trkpt>
      <trkpt lat="45.40719" lon="5.90538">
        <ele>1648.8</ele>
        <time>2013-06-30T10:12:31Z</time>
      </trkpt>
      <trkpt lat="45.40718" lon="5.90539">
        <ele>1649.28</ele>
        <time>2013-06-30T10:13:03Z</time>
      </trkpt>
      <trkpt lat="45.40718" lon="5.90537">
        <ele>1649.28</ele>
        <time>2013-06-30T10:13:22Z</time>
      </trkpt>
      <trkpt lat="45.40719" lon="5.90536">
        <ele>1649.28</ele>
        <time>2013-06-30T10:13:35Z</time>
      </trkpt>
      <trkpt lat="45.40721" lon="5.90527">
        <ele>1649.28</ele>
        <time>2013-06-30T10:13:48Z</time>
      </trkpt>
      <trkpt lat="45.40722" lon="5.90517">
        <ele>1651.2</ele>
        <time>2013-06-30T10:14:01Z</time>
      </trkpt>
      <trkpt lat="45.40723" lon="5.90504">
        <ele>1653.12</ele>
        <time>2013-06-30T10:14:16Z</time>
      </trkpt>
      <trkpt lat="45.40723" lon="5.90496">
        <ele>1653.6</ele>
        <time>2013-06-30T10:14:28Z</time>
      </trkpt>
      <trkpt lat="45.40723" lon="5.9049">
        <ele>1654.57</ele>
        <time>2013-06-30T10:14:43Z</time>
      </trkpt>
      <trkpt lat="45.40725" lon="5.9048">
        <ele>1656.49</ele>
        <time>2013-06-30T10:14:58Z</time>
      </trkpt>
      <trkpt lat="45.40725" lon="5.90468">
        <ele>1657.93</ele>
        <time>2013-06-30T10:15:11Z</time>
      </trkpt>
      <trkpt lat="45.40725" lon="5.90459">
        <ele>1658.89</ele>
        <time>2013-06-30T10:15:23Z</time>
      </trkpt>
      <trkpt lat="45.40724" lon="5.90454">
        <ele>1659.37</ele>
        <time>2013-06-30T10:15:35Z</time>
      </trkpt>
      <trkpt lat="45.40723" lon="5.90448">
        <ele>1660.33</ele>
        <time>2013-06-30T10:15:49Z</time>
      </trkpt>
      <trkpt lat="45.40722" lon="5.90438">
        <ele>1661.78</ele>
        <time>2013-06-30T10:16:01Z</time>
      </trkpt>
      <trkpt lat="45.40722" lon="5.90428">
        <ele>1664.66</ele>
        <time>2013-06-30T10:16:17Z</time>
      </trkpt>
      <trkpt lat="45.40723" lon="5.90419">
        <ele>1667.06</ele>
        <time>2013-06-30T10:16:30Z</time>
      </trkpt>
      <trkpt lat="45.40722" lon="5.9041">
        <ele>1668.99</ele>
        <time>2013-06-30T10:16:42Z</time>
      </trkpt>
      <trkpt lat="45.40722" lon="5.90399">
        <ele>1670.91</ele>
        <time>2013-06-30T10:16:56Z</time>
      </trkpt>
      <trkpt lat="45.40723" lon="5.90392">
        <ele>1673.79</ele>
        <time>2013-06-30T10:17:09Z</time>
      </trkpt>
      <trkpt lat="45.40724" lon="5.90386">
        <ele>1676.2</ele>
        <time>2013-06-30T10:17:20Z</time>
      </trkpt>
      <trkpt lat="45.40726" lon="5.90388">
        <ele>1677.64</ele>
        <time>2013-06-30T10:17:30Z</time>
      </trkpt>
      <trkpt lat="45.40727" lon="5.90388">
        <ele>1677.64</ele>
        <time>2013-06-30T10:17:36Z</time>
      </trkpt>
      <trkpt lat="45.40727" lon="5.9038">
        <ele>1680.52</ele>
        <time>2013-06-30T10:17:48Z</time>
      </trkpt>
      <trkpt lat="45.40728" lon="5.90375">
        <ele>1681.48</ele>
        <time>2013-06-30T10:18:01Z</time>
      </trkpt>
      <trkpt lat="45.40729" lon="5.90367">
        <ele>1682.93</ele>
        <time>2013-06-30T10:18:12Z</time>
      </trkpt>
      <trkpt lat="45.40727" lon="5.90357">
        <ele>1684.37</ele>
        <time>2013-06-30T10:18:25Z</time>
      </trkpt>
      <trkpt lat="45.40728" lon="5.90353">
        <ele>1686.77</ele>
        <time>2013-06-30T10:18:36Z</time>
      </trkpt>
      <trkpt lat="45.40727" lon="5.90347">
        <ele>1688.69</ele>
        <time>2013-06-30T10:18:47Z</time>
      </trkpt>
      <trkpt lat="45.40728" lon="5.90341">
        <ele>1690.62</ele>
        <time>2013-06-30T10:18:58Z</time>
      </trkpt>
      <trkpt lat="45.40732" lon="5.90334">
        <ele>1692.06</ele>
        <time>2013-06-30T10:19:11Z</time>
      </trkpt>
      <trkpt lat="45.40737" lon="5.90331">
        <ele>1692.06</ele>
        <time>2013-06-30T10:19:26Z</time>
      </trkpt>
      <trkpt lat="45.40747" lon="5.90328">
        <ele>1692.06</ele>
        <time>2013-06-30T10:19:43Z</time>
      </trkpt>
      <trkpt lat="45.40749" lon="5.90328">
        <ele>1690.62</ele>
        <time>2013-06-30T10:19:55Z</time>
      </trkpt>
      <trkpt lat="45.40752" lon="5.90326">
        <ele>1690.62</ele>
        <time>2013-06-30T10:19:59Z</time>
      </trkpt>
      <trkpt lat="45.40755" lon="5.90324">
        <ele>1690.62</ele>
        <time>2013-06-30T10:20:03Z</time>
      </trkpt>
      <trkpt lat="45.40762" lon="5.90321">
        <ele>1692.06</ele>
        <time>2013-06-30T10:20:13Z</time>
      </trkpt>
      <trkpt lat="45.40773" lon="5.90317">
        <ele>1693.02</ele>
        <time>2013-06-30T10:20:30Z</time>
      </trkpt>
      <trkpt lat="45.40784" lon="5.90315">
        <ele>1693.5</ele>
        <time>2013-06-30T10:20:45Z</time>
      </trkpt>
      <trkpt lat="45.40793" lon="5.90311">
        <ele>1693.5</ele>
        <time>2013-06-30T10:21:00Z</time>
      </trkpt>
      <trkpt lat="45.40806" lon="5.90313">
        <ele>1693.5</ele>
        <time>2013-06-30T10:21:19Z</time>
      </trkpt>
      <trkpt lat="45.40809" lon="5.90314">
        <ele>1692.54</ele>
        <time>2013-06-30T10:21:24Z</time>
      </trkpt>
      <trkpt lat="45.4082" lon="5.90323">
        <ele>1692.06</ele>
        <time>2013-06-30T10:21:40Z</time>
      </trkpt>
      <trkpt lat="45.40826" lon="5.90331">
        <ele>1693.5</ele>
        <time>2013-06-30T10:21:54Z</time>
      </trkpt>
      <trkpt lat="45.40825" lon="5.90332">
        <ele>1693.5</ele>
        <time>2013-06-30T10:22:08Z</time>
      </trkpt>
      <trkpt lat="45.40826" lon="5.90328">
        <ele>1693.5</ele>
        <time>2013-06-30T10:22:24Z</time>
      </trkpt>
      <trkpt lat="45.4083" lon="5.90334">
        <ele>1693.5</ele>
        <time>2013-06-30T10:22:38Z</time>
      </trkpt>
      <trkpt lat="45.40831" lon="5.90333">
        <ele>1693.5</ele>
        <time>2013-06-30T10:23:02Z</time>
      </trkpt>
      <trkpt lat="45.4083" lon="5.90326">
        <ele>1693.5</ele>
        <time>2013-06-30T10:23:33Z</time>
      </trkpt>
      <trkpt lat="45.40829" lon="5.90329">
        <ele>1693.5</ele>
        <time>2013-06-30T10:23:53Z</time>
      </trkpt>
      <trkpt lat="45.40829" lon="5.90331">
        <ele>1693.5</ele>
        <time>2013-06-30T10:24:14Z</time>
      </trkpt>
      <trkpt lat="45.40835" lon="5.9033">
        <ele>1691.58</ele>
        <time>2013-06-30T10:24:37Z</time>
      </trkpt>
      <trkpt lat="45.40849" lon="5.90329">
        <ele>1690.14</ele>
        <time>2013-06-30T10:24:53Z</time>
      </trkpt>
      <trkpt lat="45.4086" lon="5.90327">
        <ele>1689.17</ele>
        <time>2013-06-30T10:25:07Z</time>
      </trkpt>
      <trkpt lat="45.40865" lon="5.90327">
        <ele>1689.17</ele>
        <time>2013-06-30T10:25:17Z</time>
      </trkpt>
      <trkpt lat="45.40872" lon="5.90326">
        <ele>1688.69</ele>
        <time>2013-06-30T10:25:25Z</time>
      </trkpt>
      <trkpt lat="45.40883" lon="5.90318">
        <ele>1686.77</ele>
        <time>2013-06-30T10:25:39Z</time>
      </trkpt>
      <trkpt lat="45.40895" lon="5.90316">
        <ele>1686.29</ele>
        <time>2013-06-30T10:25:53Z</time>
      </trkpt>
      <trkpt lat="45.409" lon="5.90316">
        <ele>1687.25</ele>
        <time>2013-06-30T10:25:58Z</time>
      </trkpt>
      <trkpt lat="45.40913" lon="5.90316">
        <ele>1687.25</ele>
        <time>2013-06-30T10:26:12Z</time>
      </trkpt>
      <trkpt lat="45.40927" lon="5.90313">
        <ele>1688.21</ele>
        <time>2013-06-30T10:26:29Z</time>
      </trkpt>
      <trkpt lat="45.40935" lon="5.90313">
        <ele>1688.21</ele>
        <time>2013-06-30T10:26:39Z</time>
      </trkpt>
      <trkpt lat="45.40944" lon="5.90317">
        <ele>1688.21</ele>
        <time>2013-06-30T10:26:52Z</time>
      </trkpt>
      <trkpt lat="45.40947" lon="5.90317">
        <ele>1688.21</ele>
        <time>2013-06-30T10:26:56Z</time>
      </trkpt>
      <trkpt lat="45.40956" lon="5.9032">
        <ele>1688.21</ele>
        <time>2013-06-30T10:27:06Z</time>
      </trkpt>
      <trkpt lat="45.40969" lon="5.90327">
        <ele>1686.77</ele>
        <time>2013-06-30T10:27:22Z</time>
      </trkpt>
      <trkpt lat="45.40974" lon="5.90328">
        <ele>1686.29</ele>
        <time>2013-06-30T10:27:27Z</time>
      </trkpt>
      <trkpt lat="45.4099" lon="5.90333">
        <ele>1685.81</ele>
        <time>2013-06-30T10:27:42Z</time>
      </trkpt>
      <trkpt lat="45.40999" lon="5.90335">
        <ele>1685.81</ele>
        <time>2013-06-30T10:27:54Z</time>
      </trkpt>
      <trkpt lat="45.4101" lon="5.90339">
        <ele>1685.81</ele>
        <time>2013-06-30T10:28:08Z</time>
      </trkpt>
      <trkpt lat="45.41016" lon="5.9034">
        <ele>1685.81</ele>
        <time>2013-06-30T10:28:15Z</time>
      </trkpt>
      <trkpt lat="45.4102" lon="5.90343">
        <ele>1685.81</ele>
        <time>2013-06-30T10:28:20Z</time>
      </trkpt>
      <trkpt lat="45.41034" lon="5.90347">
        <ele>1687.73</ele>
        <time>2013-06-30T10:28:34Z</time>
      </trkpt>
      <trkpt lat="45.41048" lon="5.90343">
        <ele>1689.17</ele>
        <time>2013-06-30T10:28:49Z</time>
      </trkpt>
      <trkpt lat="45.41057" lon="5.90341">
        <ele>1692.06</ele>
        <time>2013-06-30T10:29:04Z</time>
      </trkpt>
      <trkpt lat="45.41061" lon="5.90334">
        <ele>1693.98</ele>
        <time>2013-06-30T10:29:16Z</time>
      </trkpt>
      <trkpt lat="45.41066" lon="5.9033">
        <ele>1696.38</ele>
        <time>2013-06-30T10:29:31Z</time>
      </trkpt>
      <trkpt lat="45.41069" lon="5.90323">
        <ele>1697.34</ele>
        <time>2013-06-30T10:29:44Z</time>
      </trkpt>
      <trkpt lat="45.41073" lon="5.90319">
        <ele>1699.27</ele>
        <time>2013-06-30T10:29:57Z</time>
      </trkpt>
      <trkpt lat="45.41076" lon="5.90311">
        <ele>1702.63</ele>
        <time>2013-06-30T10:30:12Z</time>
      </trkpt>
      <trkpt lat="45.41081" lon="5.9031">
        <ele>1705.04</ele>
        <time>2013-06-30T10:30:26Z</time>
      </trkpt>
      <trkpt lat="45.41085" lon="5.90309">
        <ele>1707.44</ele>
        <time>2013-06-30T10:30:40Z</time>
      </trkpt>
      <trkpt lat="45.41087" lon="5.90298">
        <ele>1709.36</ele>
        <time>2013-06-30T10:30:53Z</time>
      </trkpt>
      <trkpt lat="45.41092" lon="5.90289">
        <ele>1712.73</ele>
        <time>2013-06-30T10:31:06Z</time>
      </trkpt>
      <trkpt lat="45.41093" lon="5.90282">
        <ele>1715.13</ele>
        <time>2013-06-30T10:31:20Z</time>
      </trkpt>
      <trkpt lat="45.41092" lon="5.90274">
        <ele>1716.57</ele>
        <time>2013-06-30T10:31:33Z</time>
      </trkpt>
      <trkpt lat="45.41093" lon="5.90269">
        <ele>1718.97</ele>
        <time>2013-06-30T10:31:44Z</time>
      </trkpt>
      <trkpt lat="45.41094" lon="5.90263">
        <ele>1720.42</ele>
        <time>2013-06-30T10:31:54Z</time>
      </trkpt>
      <trkpt lat="45.41096" lon="5.90255">
        <ele>1721.38</ele>
        <time>2013-06-30T10:32:08Z</time>
      </trkpt>
      <trkpt lat="45.41099" lon="5.90254">
        <ele>1721.86</ele>
        <time>2013-06-30T10:32:21Z</time>
      </trkpt>
      <trkpt lat="45.41103" lon="5.90253">
        <ele>1724.26</ele>
        <time>2013-06-30T10:32:36Z</time>
      </trkpt>
      <trkpt lat="45.41106" lon="5.90251">
        <ele>1726.67</ele>
        <time>2013-06-30T10:32:46Z</time>
      </trkpt>
      <trkpt lat="45.4111" lon="5.90244">
        <ele>1729.07</ele>
        <time>2013-06-30T10:32:59Z</time>
      </trkpt>
      <trkpt lat="45.41115" lon="5.90239">
        <ele>1730.51</ele>
        <time>2013-06-30T10:33:11Z</time>
      </trkpt>
      <trkpt lat="45.41122" lon="5.90234">
        <ele>1731.95</ele>
        <time>2013-06-30T10:33:24Z</time>
      </trkpt>
      <trkpt lat="45.41128" lon="5.90229">
        <ele>1732.43</ele>
        <time>2013-06-30T10:33:36Z</time>
      </trkpt>
      <trkpt lat="45.41133" lon="5.90229">
        <ele>1732.43</ele>
        <time>2013-06-30T10:33:51Z</time>
      </trkpt>
      <trkpt lat="45.41139" lon="5.90225">
        <ele>1734.84</ele>
        <time>2013-06-30T10:34:04Z</time>
      </trkpt>
      <trkpt lat="45.41149" lon="5.90221">
        <ele>1735.8</ele>
        <time>2013-06-30T10:34:19Z</time>
      </trkpt>
      <trkpt lat="45.41157" lon="5.90222">
        <ele>1735.8</ele>
        <time>2013-06-30T10:34:30Z</time>
      </trkpt>
      <trkpt lat="45.41168" lon="5.90231">
        <ele>1734.84</ele>
        <time>2013-06-30T10:34:47Z</time>
      </trkpt>
      <trkpt lat="45.41176" lon="5.90238">
        <ele>1733.88</ele>
        <time>2013-06-30T10:35:00Z</time>
      </trkpt>
      <trkpt lat="45.41184" lon="5.90247">
        <ele>1732.91</ele>
        <time>2013-06-30T10:35:16Z</time>
      </trkpt>
      <trkpt lat="45.4119" lon="5.9025">
        <ele>1731.47</ele>
        <time>2013-06-30T10:35:28Z</time>
      </trkpt>
      <trkpt lat="45.41201" lon="5.90256">
        <ele>1730.03</ele>
        <time>2013-06-30T10:35:43Z</time>
      </trkpt>
      <trkpt lat="45.41212" lon="5.90263">
        <ele>1729.55</ele>
        <time>2013-06-30T10:35:55Z</time>
      </trkpt>
      <trkpt lat="45.41225" lon="5.90267">
        <ele>1729.55</ele>
        <time>2013-06-30T10:36:10Z</time>
      </trkpt>
      <trkpt lat="45.4123" lon="5.90268">
        <ele>1729.55</ele>
        <time>2013-06-30T10:36:24Z</time>
      </trkpt>
      <trkpt lat="45.4123" lon="5.90262">
        <ele>1730.99</ele>
        <time>2013-06-30T10:36:42Z</time>
      </trkpt>
      <trkpt lat="45.41236" lon="5.90249">
        <ele>1730.51</ele>
        <time>2013-06-30T10:36:55Z</time>
      </trkpt>
      <trkpt lat="45.41229" lon="5.90264">
        <ele>1730.51</ele>
        <time>2013-06-30T10:37:28Z</time>
      </trkpt>
      <trkpt lat="45.41232" lon="5.90264">
        <ele>1730.51</ele>
        <time>2013-06-30T10:37:42Z</time>
      </trkpt>
      <trkpt lat="45.41235" lon="5.90264">
        <ele>1730.51</ele>
        <time>2013-06-30T10:37:55Z</time>
      </trkpt>
      <trkpt lat="45.41241" lon="5.90266">
        <ele>1730.51</ele>
        <time>2013-06-30T10:38:06Z</time>
      </trkpt>
      <trkpt lat="45.41251" lon="5.90262">
        <ele>1732.91</ele>
        <time>2013-06-30T10:38:21Z</time>
      </trkpt>
      <trkpt lat="45.4126" lon="5.90262">
        <ele>1734.36</ele>
        <time>2013-06-30T10:38:35Z</time>
      </trkpt>
      <trkpt lat="45.41268" lon="5.90259">
        <ele>1735.8</ele>
        <time>2013-06-30T10:38:48Z</time>
      </trkpt>
      <trkpt lat="45.41276" lon="5.90255">
        <ele>1737.24</ele>
        <time>2013-06-30T10:39:01Z</time>
      </trkpt>
      <trkpt lat="45.41281" lon="5.90252">
        <ele>1738.68</ele>
        <time>2013-06-30T10:39:12Z</time>
      </trkpt>
      <trkpt lat="45.41293" lon="5.90247">
        <ele>1740.6</ele>
        <time>2013-06-30T10:39:28Z</time>
      </trkpt>
      <trkpt lat="45.41304" lon="5.90241">
        <ele>1741.08</ele>
        <time>2013-06-30T10:39:44Z</time>
      </trkpt>
      <trkpt lat="45.41312" lon="5.90236">
        <ele>1742.53</ele>
        <time>2013-06-30T10:39:58Z</time>
      </trkpt>
      <trkpt lat="45.41321" lon="5.90228">
        <ele>1743.49</ele>
        <time>2013-06-30T10:40:12Z</time>
      </trkpt>
      <trkpt lat="45.41328" lon="5.90219">
        <ele>1743.97</ele>
        <time>2013-06-30T10:40:26Z</time>
      </trkpt>
      <trkpt lat="45.41333" lon="5.90216">
        <ele>1746.85</ele>
        <time>2013-06-30T10:40:38Z</time>
      </trkpt>
      <trkpt lat="45.41337" lon="5.90208">
        <ele>1748.29</ele>
        <time>2013-06-30T10:40:51Z</time>
      </trkpt>
      <trkpt lat="45.41336" lon="5.90205">
        <ele>1748.78</ele>
        <time>2013-06-30T10:41:09Z</time>
      </trkpt>
      <trkpt lat="45.41341" lon="5.90199">
        <ele>1749.74</ele>
        <time>2013-06-30T10:41:25Z</time>
      </trkpt>
      <trkpt lat="45.41345" lon="5.90199">
        <ele>1751.66</ele>
        <time>2013-06-30T10:41:34Z</time>
      </trkpt>
      <trkpt lat="45.4135" lon="5.90191">
        <ele>1753.1</ele>
        <time>2013-06-30T10:41:46Z</time>
      </trkpt>
      <trkpt lat="45.41358" lon="5.90187">
        <ele>1755.5</ele>
        <time>2013-06-30T10:41:59Z</time>
      </trkpt>
      <trkpt lat="45.41366" lon="5.90181">
        <ele>1757.91</ele>
        <time>2013-06-30T10:42:15Z</time>
      </trkpt>
      <trkpt lat="45.41371" lon="5.90176">
        <ele>1760.31</ele>
        <time>2013-06-30T10:42:26Z</time>
      </trkpt>
      <trkpt lat="45.41374" lon="5.9017">
        <ele>1762.23</ele>
        <time>2013-06-30T10:42:36Z</time>
      </trkpt>
      <trkpt lat="45.4138" lon="5.90166">
        <ele>1763.68</ele>
        <time>2013-06-30T10:42:48Z</time>
      </trkpt>
      <trkpt lat="45.41388" lon="5.90166">
        <ele>1764.16</ele>
        <time>2013-06-30T10:43:01Z</time>
      </trkpt>
      <trkpt lat="45.41391" lon="5.90169">
        <ele>1764.64</ele>
        <time>2013-06-30T10:43:18Z</time>
      </trkpt>
      <trkpt lat="45.41396" lon="5.90177">
        <ele>1767.04</ele>
        <time>2013-06-30T10:43:31Z</time>
      </trkpt>
      <trkpt lat="45.41403" lon="5.90182">
        <ele>1768.48</ele>
        <time>2013-06-30T10:43:45Z</time>
      </trkpt>
      <trkpt lat="45.4141" lon="5.90187">
        <ele>1771.37</ele>
        <time>2013-06-30T10:44:01Z</time>
      </trkpt>
      <trkpt lat="45.41416" lon="5.90191">
        <ele>1772.81</ele>
        <time>2013-06-30T10:44:14Z</time>
      </trkpt>
      <trkpt lat="45.41422" lon="5.90192">
        <ele>1774.73</ele>
        <time>2013-06-30T10:44:27Z</time>
      </trkpt>
      <trkpt lat="45.41426" lon="5.90192">
        <ele>1776.17</ele>
        <time>2013-06-30T10:44:37Z</time>
      </trkpt>
      <trkpt lat="45.41431" lon="5.90188">
        <ele>1777.13</ele>
        <time>2013-06-30T10:44:48Z</time>
      </trkpt>
      <trkpt lat="45.41438" lon="5.90179">
        <ele>1779.06</ele>
        <time>2013-06-30T10:45:01Z</time>
      </trkpt>
      <trkpt lat="45.41446" lon="5.90174">
        <ele>1781.46</ele>
        <time>2013-06-30T10:45:16Z</time>
      </trkpt>
      <trkpt lat="45.41453" lon="5.90171">
        <ele>1782.42</ele>
        <time>2013-06-30T10:45:30Z</time>
      </trkpt>
      <trkpt lat="45.4146" lon="5.90168">
        <ele>1783.38</ele>
        <time>2013-06-30T10:45:43Z</time>
      </trkpt>
      <trkpt lat="45.41465" lon="5.90173">
        <ele>1783.86</ele>
        <time>2013-06-30T10:45:57Z</time>
      </trkpt>
      <trkpt lat="45.41467" lon="5.90174">
        <ele>1782.42</ele>
        <time>2013-06-30T10:46:01Z</time>
      </trkpt>
      <trkpt lat="45.4147" lon="5.9018">
        <ele>1781.94</ele>
        <time>2013-06-30T10:46:17Z</time>
      </trkpt>
      <trkpt lat="45.41476" lon="5.90183">
        <ele>1780.98</ele>
        <time>2013-06-30T10:46:33Z</time>
      </trkpt>
      <trkpt lat="45.41481" lon="5.90188">
        <ele>1780.5</ele>
        <time>2013-06-30T10:46:47Z</time>
      </trkpt>
      <trkpt lat="45.41491" lon="5.90193">
        <ele>1780.5</ele>
        <time>2013-06-30T10:47:01Z</time>
      </trkpt>
      <trkpt lat="45.41499" lon="5.90195">
        <ele>1782.42</ele>
        <time>2013-06-30T10:47:14Z</time>
      </trkpt>
      <trkpt lat="45.41506" lon="5.90197">
        <ele>1781.94</ele>
        <time>2013-06-30T10:47:28Z</time>
      </trkpt>
      <trkpt lat="45.41511" lon="5.90198">
        <ele>1781.94</ele>
        <time>2013-06-30T10:47:42Z</time>
      </trkpt>
      <trkpt lat="45.41518" lon="5.90199">
        <ele>1780.5</ele>
        <time>2013-06-30T10:47:57Z</time>
      </trkpt>
      <trkpt lat="45.41523" lon="5.90205">
        <ele>1779.54</ele>
        <time>2013-06-30T10:48:13Z</time>
      </trkpt>
      <trkpt lat="45.41532" lon="5.90207">
        <ele>1780.98</ele>
        <time>2013-06-30T10:48:26Z</time>
      </trkpt>
      <trkpt lat="45.41541" lon="5.90204">
        <ele>1781.94</ele>
        <time>2013-06-30T10:48:40Z</time>
      </trkpt>
      <trkpt lat="45.4155" lon="5.90205">
        <ele>1783.38</ele>
        <time>2013-06-30T10:48:54Z</time>
      </trkpt>
      <trkpt lat="45.41555" lon="5.90203">
        <ele>1783.86</ele>
        <time>2013-06-30T10:49:08Z</time>
      </trkpt>
      <trkpt lat="45.4156" lon="5.90201">
        <ele>1784.34</ele>
        <time>2013-06-30T10:49:20Z</time>
      </trkpt>
      <trkpt lat="45.41562" lon="5.90201">
        <ele>1784.82</ele>
        <time>2013-06-30T10:49:34Z</time>
      </trkpt>
      <trkpt lat="45.41566" lon="5.90202">
        <ele>1785.31</ele>
        <time>2013-06-30T10:49:42Z</time>
      </trkpt>
      <trkpt lat="45.41575" lon="5.90204">
        <ele>1785.79</ele>
        <time>2013-06-30T10:49:57Z</time>
      </trkpt>
      <trkpt lat="45.41584" lon="5.90203">
        <ele>1786.27</ele>
        <time>2013-06-30T10:50:11Z</time>
      </trkpt>
      <trkpt lat="45.41594" lon="5.90202">
        <ele>1787.23</ele>
        <time>2013-06-30T10:50:27Z</time>
      </trkpt>
      <trkpt lat="45.41602" lon="5.90197">
        <ele>1788.19</ele>
        <time>2013-06-30T10:50:41Z</time>
      </trkpt>
      <trkpt lat="45.41611" lon="5.90192">
        <ele>1789.63</ele>
        <time>2013-06-30T10:50:57Z</time>
      </trkpt>
      <trkpt lat="45.41621" lon="5.90188">
        <ele>1791.55</ele>
        <time>2013-06-30T10:51:13Z</time>
      </trkpt>
      <trkpt lat="45.41628" lon="5.9018">
        <ele>1793</ele>
        <time>2013-06-30T10:51:26Z</time>
      </trkpt>
      <trkpt lat="45.41636" lon="5.90176">
        <ele>1794.92</ele>
        <time>2013-06-30T10:51:39Z</time>
      </trkpt>
      <trkpt lat="45.41644" lon="5.90168">
        <ele>1796.36</ele>
        <time>2013-06-30T10:51:52Z</time>
      </trkpt>
      <trkpt lat="45.41653" lon="5.90159">
        <ele>1797.32</ele>
        <time>2013-06-30T10:52:08Z</time>
      </trkpt>
      <trkpt lat="45.41657" lon="5.90152">
        <ele>1798.76</ele>
        <time>2013-06-30T10:52:21Z</time>
      </trkpt>
      <trkpt lat="45.41661" lon="5.90143">
        <ele>1801.17</ele>
        <time>2013-06-30T10:52:34Z</time>
      </trkpt>
      <trkpt lat="45.41665" lon="5.90135">
        <ele>1803.57</ele>
        <time>2013-06-30T10:52:48Z</time>
      </trkpt>
      <trkpt lat="45.41671" lon="5.90129">
        <ele>1805.49</ele>
        <time>2013-06-30T10:53:00Z</time>
      </trkpt>
      <trkpt lat="45.41679" lon="5.90121">
        <ele>1807.9</ele>
        <time>2013-06-30T10:53:16Z</time>
      </trkpt>
      <trkpt lat="45.41685" lon="5.90114">
        <ele>1809.34</ele>
        <time>2013-06-30T10:53:30Z</time>
      </trkpt>
      <trkpt lat="45.41691" lon="5.90108">
        <ele>1811.26</ele>
        <time>2013-06-30T10:53:43Z</time>
      </trkpt>
      <trkpt lat="45.41697" lon="5.90107">
        <ele>1812.22</ele>
        <time>2013-06-30T10:53:56Z</time>
      </trkpt>
      <trkpt lat="45.41705" lon="5.90114">
        <ele>1812.22</ele>
        <time>2013-06-30T10:54:12Z</time>
      </trkpt>
      <trkpt lat="45.41714" lon="5.90116">
        <ele>1812.22</ele>
        <time>2013-06-30T10:54:26Z</time>
      </trkpt>
      <trkpt lat="45.41726" lon="5.90115">
        <ele>1813.18</ele>
        <time>2013-06-30T10:54:42Z</time>
      </trkpt>
      <trkpt lat="45.41738" lon="5.90112">
        <ele>1814.63</ele>
        <time>2013-06-30T10:54:57Z</time>
      </trkpt>
      <trkpt lat="45.41746" lon="5.90111">
        <ele>1815.11</ele>
        <time>2013-06-30T10:55:09Z</time>
      </trkpt>
      <trkpt lat="45.41755" lon="5.90113">
        <ele>1817.03</ele>
        <time>2013-06-30T10:55:22Z</time>
      </trkpt>
      <trkpt lat="45.41761" lon="5.90109">
        <ele>1818.47</ele>
        <time>2013-06-30T10:55:33Z</time>
      </trkpt>
      <trkpt lat="45.41769" lon="5.90103">
        <ele>1818.47</ele>
        <time>2013-06-30T10:55:46Z</time>
      </trkpt>
      <trkpt lat="45.41773" lon="5.90103">
        <ele>1818.95</ele>
        <time>2013-06-30T10:56:00Z</time>
      </trkpt>
      <trkpt lat="45.41781" lon="5.90099">
        <ele>1819.91</ele>
        <time>2013-06-30T10:56:14Z</time>
      </trkpt>
      <trkpt lat="45.41788" lon="5.90095">
        <ele>1821.84</ele>
        <time>2013-06-30T10:56:26Z</time>
      </trkpt>
      <trkpt lat="45.41796" lon="5.90091">
        <ele>1823.28</ele>
        <time>2013-06-30T10:56:39Z</time>
      </trkpt>
      <trkpt lat="45.41805" lon="5.90082">
        <ele>1824.24</ele>
        <time>2013-06-30T10:56:56Z</time>
      </trkpt>
      <trkpt lat="45.41806" lon="5.90082">
        <ele>1824.72</ele>
        <time>2013-06-30T10:57:09Z</time>
      </trkpt>
      <trkpt lat="45.41804" lon="5.9008">
        <ele>1824.72</ele>
        <time>2013-06-30T10:57:29Z</time>
      </trkpt>
      <trkpt lat="45.41805" lon="5.90082">
        <ele>1823.76</ele>
        <time>2013-06-30T10:58:04Z</time>
      </trkpt>
      <trkpt lat="45.41805" lon="5.90083">
        <ele>1823.76</ele>
        <time>2013-06-30T10:58:33Z</time>
      </trkpt>
      <trkpt lat="45.41806" lon="5.90081">
        <ele>1823.76</ele>
        <time>2013-06-30T10:59:02Z</time>
      </trkpt>
      <trkpt lat="45.41804" lon="5.90079">
        <ele>1822.8</ele>
        <time>2013-06-30T10:59:27Z</time>
      </trkpt>
      <trkpt lat="45.41806" lon="5.90084">
        <ele>1822.8</ele>
        <time>2013-06-30T10:59:55Z</time>
      </trkpt>
      <trkpt lat="45.41805" lon="5.90082">
        <ele>1822.8</ele>
        <time>2013-06-30T11:00:27Z</time>
      </trkpt>
      <trkpt lat="45.41805" lon="5.90075">
        <ele>1822.8</ele>
        <time>2013-06-30T11:00:53Z</time>
      </trkpt>
      <trkpt lat="45.41804" lon="5.90073">
        <ele>1823.76</ele>
        <time>2013-06-30T11:00:58Z</time>
      </trkpt>
      <trkpt lat="45.41805" lon="5.90079">
        <ele>1824.72</ele>
        <time>2013-06-30T11:01:26Z</time>
      </trkpt>
      <trkpt lat="45.41806" lon="5.90081">
        <ele>1823.76</ele>
        <time>2013-06-30T11:01:41Z</time>
      </trkpt>
      <trkpt lat="45.41806" lon="5.90082">
        <ele>1825.2</ele>
        <time>2013-06-30T11:01:43Z</time>
      </trkpt>
      <trkpt lat="45.41806" lon="5.90081">
        <ele>1825.2</ele>
        <time>2013-06-30T11:01:53Z</time>
      </trkpt>
      <trkpt lat="45.41808" lon="5.9008">
        <ele>1825.2</ele>
        <time>2013-06-30T11:02:08Z</time>
      </trkpt>
      <trkpt lat="45.4181" lon="5.90076">
        <ele>1826.16</ele>
        <time>2013-06-30T11:02:23Z</time>
      </trkpt>
      <trkpt lat="45.41815" lon="5.90071">
        <ele>1827.6</ele>
        <time>2013-06-30T11:02:36Z</time>
      </trkpt>
      <trkpt lat="45.4182" lon="5.90065">
        <ele>1828.08</ele>
        <time>2013-06-30T11:02:48Z</time>
      </trkpt>
      <trkpt lat="45.41826" lon="5.90057">
        <ele>1830.01</ele>
        <time>2013-06-30T11:03:01Z</time>
      </trkpt>
      <trkpt lat="45.4183" lon="5.90061">
        <ele>1830.01</ele>
        <time>2013-06-30T11:03:13Z</time>
      </trkpt>
      <trkpt lat="45.4183" lon="5.90064">
        <ele>1829.05</ele>
        <time>2013-06-30T11:03:36Z</time>
      </trkpt>
      <trkpt lat="45.41833" lon="5.90066">
        <ele>1828.56</ele>
        <time>2013-06-30T11:03:58Z</time>
      </trkpt>
      <trkpt lat="45.41833" lon="5.90068">
        <ele>1828.56</ele>
        <time>2013-06-30T11:04:12Z</time>
      </trkpt>
      <trkpt lat="45.41838" lon="5.90077">
        <ele>1827.12</ele>
        <time>2013-06-30T11:04:25Z</time>
      </trkpt>
      <trkpt lat="45.41843" lon="5.90086">
        <ele>1826.16</ele>
        <time>2013-06-30T11:04:38Z</time>
      </trkpt>
      <trkpt lat="45.41844" lon="5.90088">
        <ele>1825.68</ele>
        <time>2013-06-30T11:04:41Z</time>
      </trkpt>
      <trkpt lat="45.41851" lon="5.90096">
        <ele>1825.2</ele>
        <time>2013-06-30T11:04:55Z</time>
      </trkpt>
      <trkpt lat="45.41857" lon="5.90104">
        <ele>1824.24</ele>
        <time>2013-06-30T11:05:09Z</time>
      </trkpt>
      <trkpt lat="45.41861" lon="5.90111">
        <ele>1822.8</ele>
        <time>2013-06-30T11:05:18Z</time>
      </trkpt>
      <trkpt lat="45.4187" lon="5.90123">
        <ele>1821.84</ele>
        <time>2013-06-30T11:05:32Z</time>
      </trkpt>
      <trkpt lat="45.41879" lon="5.90129">
        <ele>1819.43</ele>
        <time>2013-06-30T11:05:47Z</time>
      </trkpt>
      <trkpt lat="45.41888" lon="5.90136">
        <ele>1818.95</ele>
        <time>2013-06-30T11:05:59Z</time>
      </trkpt>
      <trkpt lat="45.41896" lon="5.90143">
        <ele>1818.95</ele>
        <time>2013-06-30T11:06:10Z</time>
      </trkpt>
      <trkpt lat="45.41905" lon="5.90144">
        <ele>1818.95</ele>
        <time>2013-06-30T11:06:22Z</time>
      </trkpt>
      <trkpt lat="45.41914" lon="5.90147">
        <ele>1817.99</ele>
        <time>2013-06-30T11:06:34Z</time>
      </trkpt>
      <trkpt lat="45.41924" lon="5.90153">
        <ele>1817.03</ele>
        <time>2013-06-30T11:06:49Z</time>
      </trkpt>
      <trkpt lat="45.41933" lon="5.90156">
        <ele>1816.55</ele>
        <time>2013-06-30T11:07:02Z</time>
      </trkpt>
      <trkpt lat="45.41943" lon="5.90159">
        <ele>1816.07</ele>
        <time>2013-06-30T11:07:16Z</time>
      </trkpt>
      <trkpt lat="45.41951" lon="5.90165">
        <ele>1816.07</ele>
        <time>2013-06-30T11:07:29Z</time>
      </trkpt>
      <trkpt lat="45.41955" lon="5.90166">
        <ele>1815.59</ele>
        <time>2013-06-30T11:07:42Z</time>
      </trkpt>
      <trkpt lat="45.41958" lon="5.90167">
        <ele>1815.59</ele>
        <time>2013-06-30T11:07:54Z</time>
      </trkpt>
      <trkpt lat="45.41962" lon="5.90163">
        <ele>1815.59</ele>
        <time>2013-06-30T11:08:11Z</time>
      </trkpt>
      <trkpt lat="45.41964" lon="5.90166">
        <ele>1815.59</ele>
        <time>2013-06-30T11:08:30Z</time>
      </trkpt>
      <trkpt lat="45.41969" lon="5.90167">
        <ele>1816.55</ele>
        <time>2013-06-30T11:08:41Z</time>
      </trkpt>
      <trkpt lat="45.4197" lon="5.90167">
        <ele>1816.55</ele>
        <time>2013-06-30T11:08:55Z</time>
      </trkpt>
      <trkpt lat="45.41976" lon="5.90165">
        <ele>1817.03</ele>
        <time>2013-06-30T11:09:09Z</time>
      </trkpt>
      <trkpt lat="45.41986" lon="5.90161">
        <ele>1817.51</ele>
        <time>2013-06-30T11:09:23Z</time>
      </trkpt>
      <trkpt lat="45.41993" lon="5.90155">
        <ele>1818.95</ele>
        <time>2013-06-30T11:09:38Z</time>
      </trkpt>
      <trkpt lat="45.41994" lon="5.90153">
        <ele>1818.95</ele>
        <time>2013-06-30T11:09:45Z</time>
      </trkpt>
      <trkpt lat="45.42002" lon="5.90145">
        <ele>1820.87</ele>
        <time>2013-06-30T11:10:00Z</time>
      </trkpt>
      <trkpt lat="45.4201" lon="5.90141">
        <ele>1821.35</ele>
        <time>2013-06-30T11:10:14Z</time>
      </trkpt>
      <trkpt lat="45.42017" lon="5.9014">
        <ele>1821.84</ele>
        <time>2013-06-30T11:10:27Z</time>
      </trkpt>
      <trkpt lat="45.42024" lon="5.90144">
        <ele>1820.87</ele>
        <time>2013-06-30T11:10:39Z</time>
      </trkpt>
      <trkpt lat="45.42032" lon="5.90154">
        <ele>1819.91</ele>
        <time>2013-06-30T11:10:54Z</time>
      </trkpt>
      <trkpt lat="45.42035" lon="5.90158">
        <ele>1819.91</ele>
        <time>2013-06-30T11:11:09Z</time>
      </trkpt>
      <trkpt lat="45.42039" lon="5.90162">
        <ele>1819.43</ele>
        <time>2013-06-30T11:11:23Z</time>
      </trkpt>
      <trkpt lat="45.42043" lon="5.90169">
        <ele>1819.43</ele>
        <time>2013-06-30T11:11:39Z</time>
      </trkpt>
      <trkpt lat="45.42044" lon="5.9017">
        <ele>1819.43</ele>
        <time>2013-06-30T11:11:40Z</time>
      </trkpt>
      <trkpt lat="45.42056" lon="5.90178">
        <ele>1817.99</ele>
        <time>2013-06-30T11:11:55Z</time>
      </trkpt>
      <trkpt lat="45.42066" lon="5.90183">
        <ele>1817.99</ele>
        <time>2013-06-30T11:12:09Z</time>
      </trkpt>
      <trkpt lat="45.42078" lon="5.90187">
        <ele>1817.99</ele>
        <time>2013-06-30T11:12:25Z</time>
      </trkpt>
      <trkpt lat="45.42093" lon="5.90188">
        <ele>1817.03</ele>
        <time>2013-06-30T11:12:42Z</time>
      </trkpt>
      <trkpt lat="45.42102" lon="5.90189">
        <ele>1817.03</ele>
        <time>2013-06-30T11:12:56Z</time>
      </trkpt>
      <trkpt lat="45.4211" lon="5.90192">
        <ele>1817.03</ele>
        <time>2013-06-30T11:13:10Z</time>
      </trkpt>
      <trkpt lat="45.42117" lon="5.90194">
        <ele>1816.55</ele>
        <time>2013-06-30T11:13:23Z</time>
      </trkpt>
      <trkpt lat="45.4212" lon="5.90196">
        <ele>1816.07</ele>
        <time>2013-06-30T11:13:37Z</time>
      </trkpt>
      <trkpt lat="45.42129" lon="5.902">
        <ele>1815.59</ele>
        <time>2013-06-30T11:13:50Z</time>
      </trkpt>
      <trkpt lat="45.42139" lon="5.90205">
        <ele>1815.59</ele>
        <time>2013-06-30T11:14:06Z</time>
      </trkpt>
      <trkpt lat="45.4215" lon="5.9021">
        <ele>1815.11</ele>
        <time>2013-06-30T11:14:20Z</time>
      </trkpt>
      <trkpt lat="45.42158" lon="5.90209">
        <ele>1815.59</ele>
        <time>2013-06-30T11:14:34Z</time>
      </trkpt>
      <trkpt lat="45.42163" lon="5.9021">
        <ele>1815.59</ele>
        <time>2013-06-30T11:14:42Z</time>
      </trkpt>
      <trkpt lat="45.42167" lon="5.90207">
        <ele>1816.55</ele>
        <time>2013-06-30T11:15:00Z</time>
      </trkpt>
      <trkpt lat="45.42169" lon="5.90207">
        <ele>1816.55</ele>
        <time>2013-06-30T11:15:15Z</time>
      </trkpt>
      <trkpt lat="45.42174" lon="5.90206">
        <ele>1816.55</ele>
        <time>2013-06-30T11:15:31Z</time>
      </trkpt>
      <trkpt lat="45.4218" lon="5.90205">
        <ele>1816.55</ele>
        <time>2013-06-30T11:15:42Z</time>
      </trkpt>
      <trkpt lat="45.42187" lon="5.90205">
        <ele>1817.03</ele>
        <time>2013-06-30T11:15:55Z</time>
      </trkpt>
      <trkpt lat="45.4219" lon="5.90203">
        <ele>1817.03</ele>
        <time>2013-06-30T11:16:09Z</time>
      </trkpt>
      <trkpt lat="45.42198" lon="5.90197">
        <ele>1817.51</ele>
        <time>2013-06-30T11:16:23Z</time>
      </trkpt>
      <trkpt lat="45.42208" lon="5.90194">
        <ele>1818.47</ele>
        <time>2013-06-30T11:16:36Z</time>
      </trkpt>
      <trkpt lat="45.42221" lon="5.90189">
        <ele>1819.43</ele>
        <time>2013-06-30T11:16:51Z</time>
      </trkpt>
      <trkpt lat="45.42234" lon="5.90185">
        <ele>1819.91</ele>
        <time>2013-06-30T11:17:08Z</time>
      </trkpt>
      <trkpt lat="45.42239" lon="5.90185">
        <ele>1819.91</ele>
        <time>2013-06-30T11:17:23Z</time>
      </trkpt>
      <trkpt lat="45.42244" lon="5.9019">
        <ele>1820.39</ele>
        <time>2013-06-30T11:17:35Z</time>
      </trkpt>
      <trkpt lat="45.42246" lon="5.90193">
        <ele>1820.39</ele>
        <time>2013-06-30T11:17:40Z</time>
      </trkpt>
      <trkpt lat="45.42251" lon="5.90199">
        <ele>1818.95</ele>
        <time>2013-06-30T11:17:51Z</time>
      </trkpt>
      <trkpt lat="45.42258" lon="5.90205">
        <ele>1818.95</ele>
        <time>2013-06-30T11:18:04Z</time>
      </trkpt>
      <trkpt lat="45.42261" lon="5.90211">
        <ele>1818.95</ele>
        <time>2013-06-30T11:18:19Z</time>
      </trkpt>
      <trkpt lat="45.42265" lon="5.90218">
        <ele>1818.95</ele>
        <time>2013-06-30T11:18:30Z</time>
      </trkpt>
      <trkpt lat="45.42275" lon="5.90225">
        <ele>1816.55</ele>
        <time>2013-06-30T11:18:45Z</time>
      </trkpt>
      <trkpt lat="45.42287" lon="5.90232">
        <ele>1816.07</ele>
        <time>2013-06-30T11:19:01Z</time>
      </trkpt>
      <trkpt lat="45.42295" lon="5.90238">
        <ele>1815.11</ele>
        <time>2013-06-30T11:19:15Z</time>
      </trkpt>
      <trkpt lat="45.42301" lon="5.90245">
        <ele>1815.11</ele>
        <time>2013-06-30T11:19:28Z</time>
      </trkpt>
      <trkpt lat="45.42311" lon="5.90249">
        <ele>1814.63</ele>
        <time>2013-06-30T11:19:42Z</time>
      </trkpt>
      <trkpt lat="45.42316" lon="5.90249">
        <ele>1814.63</ele>
        <time>2013-06-30T11:19:49Z</time>
      </trkpt>
      <trkpt lat="45.42324" lon="5.90251">
        <ele>1814.63</ele>
        <time>2013-06-30T11:20:02Z</time>
      </trkpt>
      <trkpt lat="45.42325" lon="5.90251">
        <ele>1814.63</ele>
        <time>2013-06-30T11:20:04Z</time>
      </trkpt>
      <trkpt lat="45.42336" lon="5.90253">
        <ele>1814.63</ele>
        <time>2013-06-30T11:20:17Z</time>
      </trkpt>
      <trkpt lat="45.42349" lon="5.90252">
        <ele>1814.63</ele>
        <time>2013-06-30T11:20:33Z</time>
      </trkpt>
      <trkpt lat="45.42351" lon="5.9025">
        <ele>1814.63</ele>
        <time>2013-06-30T11:20:47Z</time>
      </trkpt>
      <trkpt lat="45.42361" lon="5.90251">
        <ele>1814.63</ele>
        <time>2013-06-30T11:21:00Z</time>
      </trkpt>
      <trkpt lat="45.42369" lon="5.90248">
        <ele>1814.63</ele>
        <time>2013-06-30T11:21:14Z</time>
      </trkpt>
      <trkpt lat="45.42377" lon="5.90247">
        <ele>1816.07</ele>
        <time>2013-06-30T11:21:23Z</time>
      </trkpt>
      <trkpt lat="45.42387" lon="5.90246">
        <ele>1816.55</ele>
        <time>2013-06-30T11:21:35Z</time>
      </trkpt>
      <trkpt lat="45.42397" lon="5.90247">
        <ele>1816.55</ele>
        <time>2013-06-30T11:21:51Z</time>
      </trkpt>
      <trkpt lat="45.424" lon="5.90248">
        <ele>1815.11</ele>
        <time>2013-06-30T11:21:58Z</time>
      </trkpt>
      <trkpt lat="45.42403" lon="5.90251">
        <ele>1815.11</ele>
        <time>2013-06-30T11:22:06Z</time>
      </trkpt>
      <trkpt lat="45.42407" lon="5.90254">
        <ele>1815.11</ele>
        <time>2013-06-30T11:22:19Z</time>
      </trkpt>
      <trkpt lat="45.42416" lon="5.90259">
        <ele>1815.11</ele>
        <time>2013-06-30T11:22:33Z</time>
      </trkpt>
      <trkpt lat="45.42424" lon="5.90266">
        <ele>1814.15</ele>
        <time>2013-06-30T11:22:49Z</time>
      </trkpt>
      <trkpt lat="45.42429" lon="5.9027">
        <ele>1813.66</ele>
        <time>2013-06-30T11:23:02Z</time>
      </trkpt>
      <trkpt lat="45.42431" lon="5.9027">
        <ele>1813.18</ele>
        <time>2013-06-30T11:23:18Z</time>
      </trkpt>
      <trkpt lat="45.42432" lon="5.90271">
        <ele>1812.7</ele>
        <time>2013-06-30T11:23:30Z</time>
      </trkpt>
      <trkpt lat="45.42437" lon="5.90276">
        <ele>1812.7</ele>
        <time>2013-06-30T11:23:49Z</time>
      </trkpt>
      <trkpt lat="45.42446" lon="5.90284">
        <ele>1812.22</ele>
        <time>2013-06-30T11:24:02Z</time>
      </trkpt>
      <trkpt lat="45.42455" lon="5.90293">
        <ele>1811.74</ele>
        <time>2013-06-30T11:24:16Z</time>
      </trkpt>
      <trkpt lat="45.4246" lon="5.90295">
        <ele>1811.74</ele>
        <time>2013-06-30T11:24:28Z</time>
      </trkpt>
      <trkpt lat="45.42465" lon="5.90302">
        <ele>1811.26</ele>
        <time>2013-06-30T11:24:40Z</time>
      </trkpt>
      <trkpt lat="45.42472" lon="5.90308">
        <ele>1810.78</ele>
        <time>2013-06-30T11:25:00Z</time>
      </trkpt>
      <trkpt lat="45.42484" lon="5.9032">
        <ele>1810.3</ele>
        <time>2013-06-30T11:25:15Z</time>
      </trkpt>
      <trkpt lat="45.4249" lon="5.90325">
        <ele>1809.34</ele>
        <time>2013-06-30T11:25:25Z</time>
      </trkpt>
      <trkpt lat="45.42501" lon="5.90331">
        <ele>1808.86</ele>
        <time>2013-06-30T11:25:39Z</time>
      </trkpt>
      <trkpt lat="45.42505" lon="5.90331">
        <ele>1808.86</ele>
        <time>2013-06-30T11:25:44Z</time>
      </trkpt>
      <trkpt lat="45.42508" lon="5.90337">
        <ele>1809.34</ele>
        <time>2013-06-30T11:25:53Z</time>
      </trkpt>
      <trkpt lat="45.42514" lon="5.90344">
        <ele>1809.82</ele>
        <time>2013-06-30T11:26:05Z</time>
      </trkpt>
      <trkpt lat="45.42517" lon="5.90346">
        <ele>1808.86</ele>
        <time>2013-06-30T11:26:10Z</time>
      </trkpt>
      <trkpt lat="45.42526" lon="5.9035">
        <ele>1808.38</ele>
        <time>2013-06-30T11:26:22Z</time>
      </trkpt>
      <trkpt lat="45.42537" lon="5.90354">
        <ele>1807.9</ele>
        <time>2013-06-30T11:26:36Z</time>
      </trkpt>
      <trkpt lat="45.42541" lon="5.90355">
        <ele>1807.9</ele>
        <time>2013-06-30T11:26:41Z</time>
      </trkpt>
      <trkpt lat="45.42546" lon="5.90356">
        <ele>1807.9</ele>
        <time>2013-06-30T11:26:54Z</time>
      </trkpt>
      <trkpt lat="45.42558" lon="5.90362">
        <ele>1807.9</ele>
        <time>2013-06-30T11:27:09Z</time>
      </trkpt>
      <trkpt lat="45.42572" lon="5.90367">
        <ele>1808.86</ele>
        <time>2013-06-30T11:27:24Z</time>
      </trkpt>
      <trkpt lat="45.4259" lon="5.90359">
        <ele>1808.86</ele>
        <time>2013-06-30T11:27:39Z</time>
      </trkpt>
      <trkpt lat="45.42601" lon="5.90355">
        <ele>1809.34</ele>
        <time>2013-06-30T11:27:50Z</time>
      </trkpt>
      <trkpt lat="45.42616" lon="5.90349">
        <ele>1810.3</ele>
        <time>2013-06-30T11:28:08Z</time>
      </trkpt>
      <trkpt lat="45.42616" lon="5.90348">
        <ele>1810.3</ele>
        <time>2013-06-30T11:28:09Z</time>
      </trkpt>
      <trkpt lat="45.42625" lon="5.90339">
        <ele>1810.3</ele>
        <time>2013-06-30T11:28:23Z</time>
      </trkpt>
      <trkpt lat="45.42636" lon="5.90333">
        <ele>1812.22</ele>
        <time>2013-06-30T11:28:37Z</time>
      </trkpt>
      <trkpt lat="45.42639" lon="5.90333">
        <ele>1812.22</ele>
        <time>2013-06-30T11:28:47Z</time>
      </trkpt>
      <trkpt lat="45.42646" lon="5.90338">
        <ele>1812.22</ele>
        <time>2013-06-30T11:29:00Z</time>
      </trkpt>
      <trkpt lat="45.42647" lon="5.90338">
        <ele>1810.78</ele>
        <time>2013-06-30T11:29:02Z</time>
      </trkpt>
      <trkpt lat="45.42658" lon="5.90343">
        <ele>1810.3</ele>
        <time>2013-06-30T11:29:16Z</time>
      </trkpt>
      <trkpt lat="45.42662" lon="5.90347">
        <ele>1809.82</ele>
        <time>2013-06-30T11:29:23Z</time>
      </trkpt>
      <trkpt lat="45.42672" lon="5.90353">
        <ele>1809.82</ele>
        <time>2013-06-30T11:29:35Z</time>
      </trkpt>
      <trkpt lat="45.42679" lon="5.90365">
        <ele>1808.86</ele>
        <time>2013-06-30T11:29:48Z</time>
      </trkpt>
      <trkpt lat="45.42682" lon="5.90368">
        <ele>1808.86</ele>
        <time>2013-06-30T11:29:53Z</time>
      </trkpt>
      <trkpt lat="45.4269" lon="5.9037">
        <ele>1808.86</ele>
        <time>2013-06-30T11:30:06Z</time>
      </trkpt>
      <trkpt lat="45.42697" lon="5.90375">
        <ele>1808.38</ele>
        <time>2013-06-30T11:30:19Z</time>
      </trkpt>
      <trkpt lat="45.42707" lon="5.9038">
        <ele>1808.38</ele>
        <time>2013-06-30T11:30:32Z</time>
      </trkpt>
      <trkpt lat="45.42716" lon="5.90382">
        <ele>1808.38</ele>
        <time>2013-06-30T11:30:43Z</time>
      </trkpt>
      <trkpt lat="45.42718" lon="5.90382">
        <ele>1808.38</ele>
        <time>2013-06-30T11:30:45Z</time>
      </trkpt>
      <trkpt lat="45.42729" lon="5.90386">
        <ele>1808.38</ele>
        <time>2013-06-30T11:30:59Z</time>
      </trkpt>
      <trkpt lat="45.42741" lon="5.90389">
        <ele>1808.38</ele>
        <time>2013-06-30T11:31:12Z</time>
      </trkpt>
      <trkpt lat="45.42741" lon="5.90389">
        <ele>1808.38</ele>
        <time>2013-06-30T11:31:13Z</time>
      </trkpt>
      <trkpt lat="45.42757" lon="5.9039">
        <ele>1808.38</ele>
        <time>2013-06-30T11:31:28Z</time>
      </trkpt>
      <trkpt lat="45.42765" lon="5.90388">
        <ele>1808.38</ele>
        <time>2013-06-30T11:31:46Z</time>
      </trkpt>
      <trkpt lat="45.42772" lon="5.90391">
        <ele>1807.9</ele>
        <time>2013-06-30T11:31:58Z</time>
      </trkpt>
      <trkpt lat="45.42772" lon="5.90393">
        <ele>1807.9</ele>
        <time>2013-06-30T11:32:01Z</time>
      </trkpt>
      <trkpt lat="45.42779" lon="5.90399">
        <ele>1807.9</ele>
        <time>2013-06-30T11:32:14Z</time>
      </trkpt>
      <trkpt lat="45.42784" lon="5.90401">
        <ele>1807.9</ele>
        <time>2013-06-30T11:32:21Z</time>
      </trkpt>
      <trkpt lat="45.42788" lon="5.90402">
        <ele>1807.42</ele>
        <time>2013-06-30T11:32:27Z</time>
      </trkpt>
      <trkpt lat="45.42802" lon="5.90405">
        <ele>1807.42</ele>
        <time>2013-06-30T11:32:43Z</time>
      </trkpt>
      <trkpt lat="45.42808" lon="5.90407">
        <ele>1807.42</ele>
        <time>2013-06-30T11:32:55Z</time>
      </trkpt>
      <trkpt lat="45.42812" lon="5.90408">
        <ele>1807.9</ele>
        <time>2013-06-30T11:33:04Z</time>
      </trkpt>
      <trkpt lat="45.42816" lon="5.9041">
        <ele>1807.9</ele>
        <time>2013-06-30T11:33:14Z</time>
      </trkpt>
      <trkpt lat="45.42824" lon="5.90409">
        <ele>1807.9</ele>
        <time>2013-06-30T11:33:28Z</time>
      </trkpt>
      <trkpt lat="45.42836" lon="5.90411">
        <ele>1807.9</ele>
        <time>2013-06-30T11:33:42Z</time>
      </trkpt>
      <trkpt lat="45.4284" lon="5.9041">
        <ele>1807.9</ele>
        <time>2013-06-30T11:33:56Z</time>
      </trkpt>
      <trkpt lat="45.42849" lon="5.90408">
        <ele>1807.9</ele>
        <time>2013-06-30T11:34:08Z</time>
      </trkpt>
      <trkpt lat="45.42859" lon="5.90405">
        <ele>1808.38</ele>
        <time>2013-06-30T11:34:21Z</time>
      </trkpt>
      <trkpt lat="45.42868" lon="5.90402">
        <ele>1808.38</ele>
        <time>2013-06-30T11:34:35Z</time>
      </trkpt>
      <trkpt lat="45.42878" lon="5.904">
        <ele>1809.34</ele>
        <time>2013-06-30T11:34:51Z</time>
      </trkpt>
      <trkpt lat="45.42882" lon="5.904">
        <ele>1809.82</ele>
        <time>2013-06-30T11:35:02Z</time>
      </trkpt>
      <trkpt lat="45.42889" lon="5.90392">
        <ele>1810.3</ele>
        <time>2013-06-30T11:35:14Z</time>
      </trkpt>
      <trkpt lat="45.42898" lon="5.90385">
        <ele>1810.78</ele>
        <time>2013-06-30T11:35:26Z</time>
      </trkpt>
      <trkpt lat="45.42907" lon="5.9038">
        <ele>1812.22</ele>
        <time>2013-06-30T11:35:38Z</time>
      </trkpt>
      <trkpt lat="45.42912" lon="5.90377">
        <ele>1812.7</ele>
        <time>2013-06-30T11:35:50Z</time>
      </trkpt>
      <trkpt lat="45.42913" lon="5.90377">
        <ele>1813.18</ele>
        <time>2013-06-30T11:35:52Z</time>
      </trkpt>
      <trkpt lat="45.42918" lon="5.90376">
        <ele>1812.22</ele>
        <time>2013-06-30T11:36:04Z</time>
      </trkpt>
      <trkpt lat="45.42923" lon="5.90378">
        <ele>1811.74</ele>
        <time>2013-06-30T11:36:19Z</time>
      </trkpt>
      <trkpt lat="45.42923" lon="5.9038">
        <ele>1811.74</ele>
        <time>2013-06-30T11:36:37Z</time>
      </trkpt>
      <trkpt lat="45.42925" lon="5.90383">
        <ele>1811.74</ele>
        <time>2013-06-30T11:36:56Z</time>
      </trkpt>
      <trkpt lat="45.42926" lon="5.90384">
        <ele>1811.26</ele>
        <time>2013-06-30T11:37:10Z</time>
      </trkpt>
      <trkpt lat="45.42929" lon="5.90387">
        <ele>1810.78</ele>
        <time>2013-06-30T11:37:26Z</time>
      </trkpt>
      <trkpt lat="45.42936" lon="5.90392">
        <ele>1809.82</ele>
        <time>2013-06-30T11:37:42Z</time>
      </trkpt>
      <trkpt lat="45.42942" lon="5.90398">
        <ele>1809.82</ele>
        <time>2013-06-30T11:37:56Z</time>
      </trkpt>
      <trkpt lat="45.42948" lon="5.90401">
        <ele>1809.82</ele>
        <time>2013-06-30T11:38:10Z</time>
      </trkpt>
      <trkpt lat="45.42954" lon="5.90405">
        <ele>1809.34</ele>
        <time>2013-06-30T11:38:21Z</time>
      </trkpt>
      <trkpt lat="45.4296" lon="5.90409">
        <ele>1808.86</ele>
        <time>2013-06-30T11:38:35Z</time>
      </trkpt>
      <trkpt lat="45.42969" lon="5.90415">
        <ele>1808.38</ele>
        <time>2013-06-30T11:38:47Z</time>
      </trkpt>
      <trkpt lat="45.42977" lon="5.9042">
        <ele>1808.38</ele>
        <time>2013-06-30T11:39:00Z</time>
      </trkpt>
      <trkpt lat="45.42984" lon="5.90423">
        <ele>1808.38</ele>
        <time>2013-06-30T11:39:13Z</time>
      </trkpt>
      <trkpt lat="45.4299" lon="5.90423">
        <ele>1807.9</ele>
        <time>2013-06-30T11:39:24Z</time>
      </trkpt>
      <trkpt lat="45.42998" lon="5.90426">
        <ele>1807.42</ele>
        <time>2013-06-30T11:39:39Z</time>
      </trkpt>
      <trkpt lat="45.43003" lon="5.90427">
        <ele>1807.9</ele>
        <time>2013-06-30T11:39:49Z</time>
      </trkpt>
      <trkpt lat="45.43012" lon="5.90431">
        <ele>1807.42</ele>
        <time>2013-06-30T11:40:03Z</time>
      </trkpt>
      <trkpt lat="45.43021" lon="5.90432">
        <ele>1807.42</ele>
        <time>2013-06-30T11:40:15Z</time>
      </trkpt>
      <trkpt lat="45.4303" lon="5.90433">
        <ele>1807.42</ele>
        <time>2013-06-30T11:40:28Z</time>
      </trkpt>
      <trkpt lat="45.43036" lon="5.90436">
        <ele>1807.9</ele>
        <time>2013-06-30T11:40:39Z</time>
      </trkpt>
      <trkpt lat="45.43041" lon="5.90438">
        <ele>1808.86</ele>
        <time>2013-06-30T11:40:52Z</time>
      </trkpt>
      <trkpt lat="45.43051" lon="5.9044">
        <ele>1807.42</ele>
        <time>2013-06-30T11:41:05Z</time>
      </trkpt>
      <trkpt lat="45.43061" lon="5.90439">
        <ele>1807.42</ele>
        <time>2013-06-30T11:41:18Z</time>
      </trkpt>
      <trkpt lat="45.43072" lon="5.90435">
        <ele>1808.86</ele>
        <time>2013-06-30T11:41:34Z</time>
      </trkpt>
      <trkpt lat="45.43081" lon="5.9043">
        <ele>1808.86</ele>
        <time>2013-06-30T11:41:48Z</time>
      </trkpt>
      <trkpt lat="45.4309" lon="5.90423">
        <ele>1809.34</ele>
        <time>2013-06-30T11:42:01Z</time>
      </trkpt>
      <trkpt lat="45.43101" lon="5.90415">
        <ele>1809.82</ele>
        <time>2013-06-30T11:42:16Z</time>
      </trkpt>
      <trkpt lat="45.43111" lon="5.90411">
        <ele>1809.82</ele>
        <time>2013-06-30T11:42:29Z</time>
      </trkpt>
      <trkpt lat="45.43122" lon="5.90402">
        <ele>1811.26</ele>
        <time>2013-06-30T11:42:43Z</time>
      </trkpt>
      <trkpt lat="45.43129" lon="5.90399">
        <ele>1812.22</ele>
        <time>2013-06-30T11:42:56Z</time>
      </trkpt>
      <trkpt lat="45.43135" lon="5.90399">
        <ele>1813.18</ele>
        <time>2013-06-30T11:43:07Z</time>
      </trkpt>
      <trkpt lat="45.43139" lon="5.90398">
        <ele>1813.18</ele>
        <time>2013-06-30T11:43:20Z</time>
      </trkpt>
      <trkpt lat="45.43141" lon="5.904">
        <ele>1813.66</ele>
        <time>2013-06-30T11:43:34Z</time>
      </trkpt>
      <trkpt lat="45.43142" lon="5.90399">
        <ele>1814.15</ele>
        <time>2013-06-30T11:43:52Z</time>
      </trkpt>
      <trkpt lat="45.4315" lon="5.90397">
        <ele>1814.15</ele>
        <time>2013-06-30T11:44:06Z</time>
      </trkpt>
      <trkpt lat="45.43156" lon="5.90401">
        <ele>1814.15</ele>
        <time>2013-06-30T11:44:22Z</time>
      </trkpt>
      <trkpt lat="45.43157" lon="5.904">
        <ele>1814.15</ele>
        <time>2013-06-30T11:44:27Z</time>
      </trkpt>
      <trkpt lat="45.43157" lon="5.90398">
        <ele>1812.7</ele>
        <time>2013-06-30T11:44:36Z</time>
      </trkpt>
      <trkpt lat="45.43158" lon="5.90398">
        <ele>1812.7</ele>
        <time>2013-06-30T11:44:54Z</time>
      </trkpt>
      <trkpt lat="45.43161" lon="5.90398">
        <ele>1813.66</ele>
        <time>2013-06-30T11:45:18Z</time>
      </trkpt>
      <trkpt lat="45.43161" lon="5.904">
        <ele>1814.15</ele>
        <time>2013-06-30T11:45:35Z</time>
      </trkpt>
      <trkpt lat="45.43165" lon="5.90401">
        <ele>1812.7</ele>
        <time>2013-06-30T11:45:40Z</time>
      </trkpt>
      <trkpt lat="45.43166" lon="5.90402">
        <ele>1812.7</ele>
        <time>2013-06-30T11:45:42Z</time>
      </trkpt>
      <trkpt lat="45.43179" lon="5.90402">
        <ele>1812.7</ele>
        <time>2013-06-30T11:45:57Z</time>
      </trkpt>
      <trkpt lat="45.43182" lon="5.90401">
        <ele>1813.66</ele>
        <time>2013-06-30T11:46:00Z</time>
      </trkpt>
      <trkpt lat="45.43193" lon="5.90398">
        <ele>1814.63</ele>
        <time>2013-06-30T11:46:12Z</time>
      </trkpt>
      <trkpt lat="45.43204" lon="5.9039">
        <ele>1816.55</ele>
        <time>2013-06-30T11:46:25Z</time>
      </trkpt>
      <trkpt lat="45.43211" lon="5.90382">
        <ele>1817.99</ele>
        <time>2013-06-30T11:46:37Z</time>
      </trkpt>
      <trkpt lat="45.43211" lon="5.90381">
        <ele>1818.47</ele>
        <time>2013-06-30T11:46:39Z</time>
      </trkpt>
      <trkpt lat="45.43216" lon="5.90376">
        <ele>1820.39</ele>
        <time>2013-06-30T11:46:49Z</time>
      </trkpt>
      <trkpt lat="45.43222" lon="5.90367">
        <ele>1821.35</ele>
        <time>2013-06-30T11:47:02Z</time>
      </trkpt>
      <trkpt lat="45.43223" lon="5.90367">
        <ele>1823.28</ele>
        <time>2013-06-30T11:47:14Z</time>
      </trkpt>
      <trkpt lat="45.43227" lon="5.90365">
        <ele>1823.28</ele>
        <time>2013-06-30T11:47:27Z</time>
      </trkpt>
      <trkpt lat="45.43228" lon="5.90363">
        <ele>1823.28</ele>
        <time>2013-06-30T11:47:29Z</time>
      </trkpt>
      <trkpt lat="45.43232" lon="5.90358">
        <ele>1823.76</ele>
        <time>2013-06-30T11:47:41Z</time>
      </trkpt>
      <trkpt lat="45.43237" lon="5.90358">
        <ele>1826.64</ele>
        <time>2013-06-30T11:47:50Z</time>
      </trkpt>
      <trkpt lat="45.43243" lon="5.9036">
        <ele>1827.6</ele>
        <time>2013-06-30T11:48:01Z</time>
      </trkpt>
      <trkpt lat="45.43244" lon="5.90361">
        <ele>1828.08</ele>
        <time>2013-06-30T11:48:15Z</time>
      </trkpt>
      <trkpt lat="45.43253" lon="5.90367">
        <ele>1829.53</ele>
        <time>2013-06-30T11:48:27Z</time>
      </trkpt>
      <trkpt lat="45.43258" lon="5.90367">
        <ele>1829.53</ele>
        <time>2013-06-30T11:48:40Z</time>
      </trkpt>
      <trkpt lat="45.4326" lon="5.90367">
        <ele>1830.01</ele>
        <time>2013-06-30T11:48:53Z</time>
      </trkpt>
      <trkpt lat="45.43262" lon="5.90368">
        <ele>1828.56</ele>
        <time>2013-06-30T11:48:58Z</time>
      </trkpt>
      <trkpt lat="45.43264" lon="5.90374">
        <ele>1827.6</ele>
        <time>2013-06-30T11:49:18Z</time>
      </trkpt>
      <trkpt lat="45.43264" lon="5.90377">
        <ele>1827.6</ele>
        <time>2013-06-30T11:49:24Z</time>
      </trkpt>
      <trkpt lat="45.43266" lon="5.90382">
        <ele>1829.05</ele>
        <time>2013-06-30T11:49:35Z</time>
      </trkpt>
      <trkpt lat="45.43265" lon="5.90384">
        <ele>1829.05</ele>
        <time>2013-06-30T11:49:57Z</time>
      </trkpt>
      <trkpt lat="45.43264" lon="5.90385">
        <ele>1829.05</ele>
        <time>2013-06-30T11:50:14Z</time>
      </trkpt>
      <trkpt lat="45.43264" lon="5.90385">
        <ele>1829.05</ele>
        <time>2013-06-30T11:50:31Z</time>
      </trkpt>
      <trkpt lat="45.43266" lon="5.90384">
        <ele>1829.05</ele>
        <time>2013-06-30T11:50:48Z</time>
      </trkpt>
      <trkpt lat="45.43266" lon="5.90383">
        <ele>1829.05</ele>
        <time>2013-06-30T11:51:07Z</time>
      </trkpt>
      <trkpt lat="45.43265" lon="5.9038">
        <ele>1827.6</ele>
        <time>2013-06-30T11:51:22Z</time>
      </trkpt>
      <trkpt lat="45.43264" lon="5.90379">
        <ele>1827.6</ele>
        <time>2013-06-30T11:51:38Z</time>
      </trkpt>
      <trkpt lat="45.43261" lon="5.90374">
        <ele>1829.05</ele>
        <time>2013-06-30T11:51:47Z</time>
      </trkpt>
      <trkpt lat="45.43256" lon="5.9037">
        <ele>1829.53</ele>
        <time>2013-06-30T11:52:00Z</time>
      </trkpt>
      <trkpt lat="45.43252" lon="5.90367">
        <ele>1828.08</ele>
        <time>2013-06-30T11:52:11Z</time>
      </trkpt>
      <trkpt lat="45.43251" lon="5.90366">
        <ele>1828.08</ele>
        <time>2013-06-30T11:52:12Z</time>
      </trkpt>
      <trkpt lat="45.43244" lon="5.9036">
        <ele>1829.05</ele>
        <time>2013-06-30T11:52:23Z</time>
      </trkpt>
      <trkpt lat="45.4324" lon="5.90362">
        <ele>1831.45</ele>
        <time>2013-06-30T11:52:33Z</time>
      </trkpt>
      <trkpt lat="45.43237" lon="5.90366">
        <ele>1833.85</ele>
        <time>2013-06-30T11:52:43Z</time>
      </trkpt>
      <trkpt lat="45.43232" lon="5.90366">
        <ele>1835.29</ele>
        <time>2013-06-30T11:52:56Z</time>
      </trkpt>
      <trkpt lat="45.43228" lon="5.90366">
        <ele>1833.85</ele>
        <time>2013-06-30T11:53:04Z</time>
      </trkpt>
      <trkpt lat="45.43227" lon="5.90368">
        <ele>1833.37</ele>
        <time>2013-06-30T11:53:06Z</time>
      </trkpt>
      <trkpt lat="45.4322" lon="5.90373">
        <ele>1833.37</ele>
        <time>2013-06-30T11:53:19Z</time>
      </trkpt>
      <trkpt lat="45.43217" lon="5.90381">
        <ele>1834.81</ele>
        <time>2013-06-30T11:53:27Z</time>
      </trkpt>
      <trkpt lat="45.43216" lon="5.90383">
        <ele>1835.29</ele>
        <time>2013-06-30T11:53:29Z</time>
      </trkpt>
      <trkpt lat="45.43208" lon="5.90397">
        <ele>1837.22</ele>
        <time>2013-06-30T11:53:46Z</time>
      </trkpt>
      <trkpt lat="45.43198" lon="5.90409">
        <ele>1835.77</ele>
        <time>2013-06-30T11:54:00Z</time>
      </trkpt>
      <trkpt lat="45.43196" lon="5.90411">
        <ele>1835.77</ele>
        <time>2013-06-30T11:54:06Z</time>
      </trkpt>
      <trkpt lat="45.43187" lon="5.90421">
        <ele>1837.7</ele>
        <time>2013-06-30T11:54:21Z</time>
      </trkpt>
      <trkpt lat="45.43189" lon="5.90423">
        <ele>1839.62</ele>
        <time>2013-06-30T11:54:31Z</time>
      </trkpt>
      <trkpt lat="45.43198" lon="5.90419">
        <ele>1840.58</ele>
        <time>2013-06-30T11:54:45Z</time>
      </trkpt>
      <trkpt lat="45.43198" lon="5.90418">
        <ele>1840.58</ele>
        <time>2013-06-30T11:54:46Z</time>
      </trkpt>
      <trkpt lat="45.43206" lon="5.90414">
        <ele>1841.54</ele>
        <time>2013-06-30T11:54:55Z</time>
      </trkpt>
      <trkpt lat="45.43207" lon="5.90417">
        <ele>1844.43</ele>
        <time>2013-06-30T11:55:05Z</time>
      </trkpt>
      <trkpt lat="45.43207" lon="5.90417">
        <ele>1844.91</ele>
        <time>2013-06-30T11:55:07Z</time>
      </trkpt>
      <trkpt lat="45.43211" lon="5.90413">
        <ele>1846.35</ele>
        <time>2013-06-30T11:55:19Z</time>
      </trkpt>
      <trkpt lat="45.43214" lon="5.90414">
        <ele>1847.79</ele>
        <time>2013-06-30T11:55:30Z</time>
      </trkpt>
      <trkpt lat="45.43221" lon="5.90407">
        <ele>1849.71</ele>
        <time>2013-06-30T11:55:43Z</time>
      </trkpt>
      <trkpt lat="45.43227" lon="5.904">
        <ele>1851.64</ele>
        <time>2013-06-30T11:55:57Z</time>
      </trkpt>
      <trkpt lat="45.43231" lon="5.90393">
        <ele>1852.12</ele>
        <time>2013-06-30T11:56:08Z</time>
      </trkpt>
      <trkpt lat="45.43235" lon="5.90387">
        <ele>1853.08</ele>
        <time>2013-06-30T11:56:20Z</time>
      </trkpt>
      <trkpt lat="45.43241" lon="5.90383">
        <ele>1855.48</ele>
        <time>2013-06-30T11:56:31Z</time>
      </trkpt>
      <trkpt lat="45.4324" lon="5.90385">
        <ele>1857.89</ele>
        <time>2013-06-30T11:56:39Z</time>
      </trkpt>
      <trkpt lat="45.43237" lon="5.90388">
        <ele>1860.29</ele>
        <time>2013-06-30T11:56:49Z</time>
      </trkpt>
      <trkpt lat="45.43237" lon="5.90391">
        <ele>1861.25</ele>
        <time>2013-06-30T11:57:00Z</time>
      </trkpt>
      <trkpt lat="45.43237" lon="5.90394">
        <ele>1861.73</ele>
        <time>2013-06-30T11:57:13Z</time>
      </trkpt>
      <trkpt lat="45.43242" lon="5.90393">
        <ele>1863.65</ele>
        <time>2013-06-30T11:57:23Z</time>
      </trkpt>
      <trkpt lat="45.43243" lon="5.90403">
        <ele>1866.54</ele>
        <time>2013-06-30T11:57:34Z</time>
      </trkpt>
      <trkpt lat="45.43246" lon="5.90407">
        <ele>1866.54</ele>
        <time>2013-06-30T11:57:48Z</time>
      </trkpt>
      <trkpt lat="45.43246" lon="5.90406">
        <ele>1866.54</ele>
        <time>2013-06-30T11:58:13Z</time>
      </trkpt>
      <trkpt lat="45.43247" lon="5.90406">
        <ele>1866.54</ele>
        <time>2013-06-30T11:58:43Z</time>
      </trkpt>
      <trkpt lat="45.43247" lon="5.90406">
        <ele>1866.54</ele>
        <time>2013-06-30T11:59:12Z</time>
      </trkpt>
      <trkpt lat="45.43247" lon="5.90406">
        <ele>1866.54</ele>
        <time>2013-06-30T11:59:41Z</time>
      </trkpt>
      <trkpt lat="45.43247" lon="5.90407">
        <ele>1866.54</ele>
        <time>2013-06-30T12:00:06Z</time>
      </trkpt>
      <trkpt lat="45.43246" lon="5.90408">
        <ele>1866.54</ele>
        <time>2013-06-30T12:00:19Z</time>
      </trkpt>
      <trkpt lat="45.43244" lon="5.90406">
        <ele>1866.54</ele>
        <time>2013-06-30T12:00:42Z</time>
      </trkpt>
      <trkpt lat="45.43243" lon="5.90408">
        <ele>1866.54</ele>
        <time>2013-06-30T12:01:19Z</time>
      </trkpt>
      <trkpt lat="45.43245" lon="5.90408">
        <ele>1866.54</ele>
        <time>2013-06-30T12:01:51Z</time>
      </trkpt>
      <trkpt lat="45.43244" lon="5.90409">
        <ele>1866.54</ele>
        <time>2013-06-30T12:02:23Z</time>
      </trkpt>
      <trkpt lat="45.43245" lon="5.90408">
        <ele>1867.02</ele>
        <time>2013-06-30T12:03:02Z</time>
      </trkpt>
      <trkpt lat="45.43245" lon="5.90407">
        <ele>1867.02</ele>
        <time>2013-06-30T12:03:26Z</time>
      </trkpt>
      <trkpt lat="45.43247" lon="5.90406">
        <ele>1867.5</ele>
        <time>2013-06-30T12:03:48Z</time>
      </trkpt>
      <trkpt lat="45.43247" lon="5.90405">
        <ele>1867.5</ele>
        <time>2013-06-30T12:04:12Z</time>
      </trkpt>
      <trkpt lat="45.43246" lon="5.90407">
        <ele>1867.5</ele>
        <time>2013-06-30T12:04:40Z</time>
      </trkpt>
      <trkpt lat="45.43246" lon="5.9041">
        <ele>1867.5</ele>
        <time>2013-06-30T12:05:15Z</time>
      </trkpt>
      <trkpt lat="45.43246" lon="5.90409">
        <ele>1867.5</ele>
        <time>2013-06-30T12:05:34Z</time>
      </trkpt>
      <trkpt lat="45.43248" lon="5.90412">
        <ele>1867.5</ele>
        <time>2013-06-30T12:05:49Z</time>
      </trkpt>
      <trkpt lat="45.43249" lon="5.90411">
        <ele>1866.54</ele>
        <time>2013-06-30T12:05:54Z</time>
      </trkpt>
      <trkpt lat="45.4325" lon="5.90412">
        <ele>1866.54</ele>
        <time>2013-06-30T12:06:14Z</time>
      </trkpt>
      <trkpt lat="45.4325" lon="5.90412">
        <ele>1866.06</ele>
        <time>2013-06-30T12:06:39Z</time>
      </trkpt>
      <trkpt lat="45.4325" lon="5.90413">
        <ele>1866.06</ele>
        <time>2013-06-30T12:07:19Z</time>
      </trkpt>
      <trkpt lat="45.43251" lon="5.90413">
        <ele>1866.06</ele>
        <time>2013-06-30T12:07:52Z</time>
      </trkpt>
      <trkpt lat="45.4325" lon="5.90412">
        <ele>1866.06</ele>
        <time>2013-06-30T12:08:27Z</time>
      </trkpt>
      <trkpt lat="45.43249" lon="5.90413">
        <ele>1866.06</ele>
        <time>2013-06-30T12:09:18Z</time>
      </trkpt>
      <trkpt lat="45.43249" lon="5.90412">
        <ele>1866.06</ele>
        <time>2013-06-30T12:09:48Z</time>
      </trkpt>
      <trkpt lat="45.4325" lon="5.90412">
        <ele>1865.58</ele>
        <time>2013-06-30T12:10:20Z</time>
      </trkpt>
      <trkpt lat="45.4325" lon="5.90413">
        <ele>1865.58</ele>
        <time>2013-06-30T12:10:59Z</time>
      </trkpt>
      <trkpt lat="45.43251" lon="5.90413">
        <ele>1865.58</ele>
        <time>2013-06-30T12:11:45Z</time>
      </trkpt>
      <trkpt lat="45.43249" lon="5.90411">
        <ele>1865.58</ele>
        <time>2013-06-30T12:12:21Z</time>
      </trkpt>
      <trkpt lat="45.4325" lon="5.9041">
        <ele>1865.58</ele>
        <time>2013-06-30T12:13:15Z</time>
      </trkpt>
      <trkpt lat="45.4325" lon="5.90411">
        <ele>1865.58</ele>
        <time>2013-06-30T12:14:01Z</time>
      </trkpt>
      <trkpt lat="45.4325" lon="5.90411">
        <ele>1865.58</ele>
        <time>2013-06-30T12:14:46Z</time>
      </trkpt>
      <trkpt lat="45.43251" lon="5.90411">
        <ele>1866.54</ele>
        <time>2013-06-30T12:15:27Z</time>
      </trkpt>
      <trkpt lat="45.43249" lon="5.9041">
        <ele>1866.54</ele>
        <time>2013-06-30T12:16:12Z</time>
      </trkpt>
      <trkpt lat="45.43249" lon="5.90409">
        <ele>1866.54</ele>
        <time>2013-06-30T12:16:49Z</time>
      </trkpt>
      <trkpt lat="45.43248" lon="5.90409">
        <ele>1866.54</ele>
        <time>2013-06-30T12:17:23Z</time>
      </trkpt>
      <trkpt lat="45.43248" lon="5.90409">
        <ele>1866.54</ele>
        <time>2013-06-30T12:18:04Z</time>
      </trkpt>
      <trkpt lat="45.43248" lon="5.9041">
        <ele>1866.54</ele>
        <time>2013-06-30T12:18:36Z</time>
      </trkpt>
      <trkpt lat="45.43249" lon="5.9041">
        <ele>1866.54</ele>
        <time>2013-06-30T12:19:15Z</time>
      </trkpt>
      <trkpt lat="45.43248" lon="5.9041">
        <ele>1866.54</ele>
        <time>2013-06-30T12:19:42Z</time>
      </trkpt>
      <trkpt lat="45.43248" lon="5.90411">
        <ele>1866.54</ele>
        <time>2013-06-30T12:20:20Z</time>
      </trkpt>
      <trkpt lat="45.43249" lon="5.9041">
        <ele>1866.54</ele>
        <time>2013-06-30T12:20:54Z</time>
      </trkpt>
      <trkpt lat="45.43249" lon="5.9041">
        <ele>1866.54</ele>
        <time>2013-06-30T12:21:28Z</time>
      </trkpt>
      <trkpt lat="45.43249" lon="5.9041">
        <ele>1866.54</ele>
        <time>2013-06-30T12:22:10Z</time>
      </trkpt>
      <trkpt lat="45.43249" lon="5.9041">
        <ele>1866.54</ele>
        <time>2013-06-30T12:22:43Z</time>
      </trkpt>
      <trkpt lat="45.43249" lon="5.9041">
        <ele>1866.54</ele>
        <time>2013-06-30T12:23:10Z</time>
      </trkpt>
      <trkpt lat="45.43249" lon="5.90411">
        <ele>1866.54</ele>
        <time>2013-06-30T12:23:33Z</time>
      </trkpt>
      <trkpt lat="45.4325" lon="5.90411">
        <ele>1866.54</ele>
        <time>2013-06-30T12:23:55Z</time>
      </trkpt>
      <trkpt lat="45.4325" lon="5.90411">
        <ele>1866.54</ele>
        <time>2013-06-30T12:24:34Z</time>
      </trkpt>
      <trkpt lat="45.43249" lon="5.90411">
        <ele>1866.54</ele>
        <time>2013-06-30T12:25:08Z</time>
      </trkpt>
      <trkpt lat="45.4325" lon="5.90411">
        <ele>1866.54</ele>
        <time>2013-06-30T12:25:46Z</time>
      </trkpt>
      <trkpt lat="45.43249" lon="5.90411">
        <ele>1866.54</ele>
        <time>2013-06-30T12:26:13Z</time>
      </trkpt>
      <trkpt lat="45.43249" lon="5.9041">
        <ele>1866.54</ele>
        <time>2013-06-30T12:26:51Z</time>
      </trkpt>
      <trkpt lat="45.4325" lon="5.9041">
        <ele>1866.54</ele>
        <time>2013-06-30T12:27:19Z</time>
      </trkpt>
      <trkpt lat="45.4325" lon="5.90411">
        <ele>1866.54</ele>
        <time>2013-06-30T12:27:55Z</time>
      </trkpt>
      <trkpt lat="45.4325" lon="5.90411">
        <ele>1866.54</ele>
        <time>2013-06-30T12:28:36Z</time>
      </trkpt>
      <trkpt lat="45.43249" lon="5.90411">
        <ele>1866.54</ele>
        <time>2013-06-30T12:29:09Z</time>
      </trkpt>
      <trkpt lat="45.43249" lon="5.90411">
        <ele>1866.54</ele>
        <time>2013-06-30T12:29:45Z</time>
      </trkpt>
      <trkpt lat="45.43249" lon="5.90411">
        <ele>1866.54</ele>
        <time>2013-06-30T12:30:13Z</time>
      </trkpt>
      <trkpt lat="45.43249" lon="5.9041">
        <ele>1866.54</ele>
        <time>2013-06-30T12:30:42Z</time>
      </trkpt>
      <trkpt lat="45.43249" lon="5.9041">
        <ele>1866.54</ele>
        <time>2013-06-30T12:31:11Z</time>
      </trkpt>
      <trkpt lat="45.43249" lon="5.90411">
        <ele>1866.54</ele>
        <time>2013-06-30T12:31:50Z</time>
      </trkpt>
      <trkpt lat="45.43249" lon="5.90411">
        <ele>1866.54</ele>
        <time>2013-06-30T12:32:22Z</time>
      </trkpt>
      <trkpt lat="45.43249" lon="5.90411">
        <ele>1866.54</ele>
        <time>2013-06-30T12:32:54Z</time>
      </trkpt>
      <trkpt lat="45.43249" lon="5.90411">
        <ele>1866.54</ele>
        <time>2013-06-30T12:33:22Z</time>
      </trkpt>
      <trkpt lat="45.4325" lon="5.90411">
        <ele>1866.54</ele>
        <time>2013-06-30T12:34:00Z</time>
      </trkpt>
      <trkpt lat="45.4325" lon="5.90411">
        <ele>1866.54</ele>
        <time>2013-06-30T12:34:32Z</time>
      </trkpt>
      <trkpt lat="45.43249" lon="5.90411">
        <ele>1866.54</ele>
        <time>2013-06-30T12:35:01Z</time>
      </trkpt>
      <trkpt lat="45.4325" lon="5.90411">
        <ele>1866.54</ele>
        <time>2013-06-30T12:35:33Z</time>
      </trkpt>
      <trkpt lat="45.43249" lon="5.90411">
        <ele>1866.54</ele>
        <time>2013-06-30T12:36:09Z</time>
      </trkpt>
      <trkpt lat="45.4325" lon="5.90411">
        <ele>1866.54</ele>
        <time>2013-06-30T12:36:42Z</time>
      </trkpt>
      <trkpt lat="45.4325" lon="5.90411">
        <ele>1867.02</ele>
        <time>2013-06-30T12:37:18Z</time>
      </trkpt>
      <trkpt lat="45.43249" lon="5.90411">
        <ele>1867.02</ele>
        <time>2013-06-30T12:38:00Z</time>
      </trkpt>
      <trkpt lat="45.43249" lon="5.90411">
        <ele>1867.02</ele>
        <time>2013-06-30T12:38:41Z</time>
      </trkpt>
      <trkpt lat="45.4325" lon="5.90411">
        <ele>1867.02</ele>
        <time>2013-06-30T12:39:29Z</time>
      </trkpt>
      <trkpt lat="45.4325" lon="5.90411">
        <ele>1867.5</ele>
        <time>2013-06-30T12:39:59Z</time>
      </trkpt>
      <trkpt lat="45.43249" lon="5.9041">
        <ele>1867.5</ele>
        <time>2013-06-30T12:40:34Z</time>
      </trkpt>
      <trkpt lat="45.43249" lon="5.90411">
        <ele>1867.5</ele>
        <time>2013-06-30T12:41:09Z</time>
      </trkpt>
      <trkpt lat="45.43249" lon="5.90411">
        <ele>1867.5</ele>
        <time>2013-06-30T12:41:35Z</time>
      </trkpt>
      <trkpt lat="45.4325" lon="5.90411">
        <ele>1867.5</ele>
        <time>2013-06-30T12:42:11Z</time>
      </trkpt>
      <trkpt lat="45.4325" lon="5.9041">
        <ele>1867.5</ele>
        <time>2013-06-30T12:42:40Z</time>
      </trkpt>
      <trkpt lat="45.4325" lon="5.90411">
        <ele>1867.5</ele>
        <time>2013-06-30T12:43:11Z</time>
      </trkpt>
      <trkpt lat="45.4325" lon="5.9041">
        <ele>1867.5</ele>
        <time>2013-06-30T12:43:37Z</time>
      </trkpt>
      <trkpt lat="45.43249" lon="5.9041">
        <ele>1867.5</ele>
        <time>2013-06-30T12:44:08Z</time>
      </trkpt>
      <trkpt lat="45.43249" lon="5.90411">
        <ele>1867.5</ele>
        <time>2013-06-30T12:44:31Z</time>
      </trkpt>
      <trkpt lat="45.4325" lon="5.90411">
        <ele>1867.5</ele>
        <time>2013-06-30T12:44:56Z</time>
      </trkpt>
      <trkpt lat="45.4325" lon="5.9041">
        <ele>1867.5</ele>
        <time>2013-06-30T12:45:19Z</time>
      </trkpt>
      <trkpt lat="45.43249" lon="5.9041">
        <ele>1867.5</ele>
        <time>2013-06-30T12:45:52Z</time>
      </trkpt>
      <trkpt lat="45.4325" lon="5.9041">
        <ele>1867.5</ele>
        <time>2013-06-30T12:46:23Z</time>
      </trkpt>
      <trkpt lat="45.43249" lon="5.9041">
        <ele>1867.5</ele>
        <time>2013-06-30T12:47:01Z</time>
      </trkpt>
      <trkpt lat="45.43249" lon="5.9041">
        <ele>1867.02</ele>
        <time>2013-06-30T12:47:36Z</time>
      </trkpt>
      <trkpt lat="45.43249" lon="5.9041">
        <ele>1866.06</ele>
        <time>2013-06-30T12:48:18Z</time>
      </trkpt>
      <trkpt lat="45.4325" lon="5.9041">
        <ele>1866.06</ele>
        <time>2013-06-30T12:49:00Z</time>
      </trkpt>
      <trkpt lat="45.4325" lon="5.90411">
        <ele>1866.06</ele>
        <time>2013-06-30T12:49:22Z</time>
      </trkpt>
      <trkpt lat="45.4325" lon="5.90411">
        <ele>1866.06</ele>
        <time>2013-06-30T12:49:56Z</time>
      </trkpt>
      <trkpt lat="45.4325" lon="5.90411">
        <ele>1866.06</ele>
        <time>2013-06-30T12:50:29Z</time>
      </trkpt>
      <trkpt lat="45.4325" lon="5.9041">
        <ele>1867.5</ele>
        <time>2013-06-30T12:50:49Z</time>
      </trkpt>
      <trkpt lat="45.4325" lon="5.9041">
        <ele>1867.5</ele>
        <time>2013-06-30T12:51:08Z</time>
      </trkpt>
      <trkpt lat="45.43249" lon="5.9041">
        <ele>1867.98</ele>
        <time>2013-06-30T12:51:27Z</time>
      </trkpt>
      <trkpt lat="45.43249" lon="5.9041">
        <ele>1867.98</ele>
        <time>2013-06-30T12:51:41Z</time>
      </trkpt>
      <trkpt lat="45.43251" lon="5.9041">
        <ele>1867.98</ele>
        <time>2013-06-30T12:52:09Z</time>
      </trkpt>
      <trkpt lat="45.4325" lon="5.9041">
        <ele>1867.98</ele>
        <time>2013-06-30T12:52:48Z</time>
      </trkpt>
      <trkpt lat="45.43251" lon="5.90411">
        <ele>1868.46</ele>
        <time>2013-06-30T12:53:20Z</time>
      </trkpt>
      <trkpt lat="45.4325" lon="5.9041">
        <ele>1868.46</ele>
        <time>2013-06-30T12:53:53Z</time>
      </trkpt>
      <trkpt lat="45.43249" lon="5.90407">
        <ele>1868.94</ele>
        <time>2013-06-30T12:54:12Z</time>
      </trkpt>
      <trkpt lat="45.43249" lon="5.90407">
        <ele>1869.42</ele>
        <time>2013-06-30T12:54:42Z</time>
      </trkpt>
      <trkpt lat="45.43251" lon="5.9041">
        <ele>1869.42</ele>
        <time>2013-06-30T12:55:00Z</time>
      </trkpt>
      <trkpt lat="45.4325" lon="5.90409">
        <ele>1869.42</ele>
        <time>2013-06-30T12:55:18Z</time>
      </trkpt>
      <trkpt lat="45.43249" lon="5.9041">
        <ele>1867.98</ele>
        <time>2013-06-30T12:55:20Z</time>
      </trkpt>
      <trkpt lat="45.43248" lon="5.90413">
        <ele>1866.54</ele>
        <time>2013-06-30T12:55:53Z</time>
      </trkpt>
      <trkpt lat="45.43249" lon="5.90412">
        <ele>1866.54</ele>
        <time>2013-06-30T12:56:32Z</time>
      </trkpt>
      <trkpt lat="45.43248" lon="5.90413">
        <ele>1866.54</ele>
        <time>2013-06-30T12:57:16Z</time>
      </trkpt>
      <trkpt lat="45.43247" lon="5.90413">
        <ele>1866.54</ele>
        <time>2013-06-30T12:58:04Z</time>
      </trkpt>
      <trkpt lat="45.43248" lon="5.90413">
        <ele>1866.54</ele>
        <time>2013-06-30T12:58:44Z</time>
      </trkpt>
      <trkpt lat="45.43249" lon="5.90413">
        <ele>1866.54</ele>
        <time>2013-06-30T12:59:23Z</time>
      </trkpt>
      <trkpt lat="45.43249" lon="5.90411">
        <ele>1866.54</ele>
        <time>2013-06-30T12:59:46Z</time>
      </trkpt>
      <trkpt lat="45.4325" lon="5.90411">
        <ele>1866.54</ele>
        <time>2013-06-30T13:00:11Z</time>
      </trkpt>
      <trkpt lat="45.4325" lon="5.90411">
        <ele>1866.54</ele>
        <time>2013-06-30T13:00:40Z</time>
      </trkpt>
      <trkpt lat="45.43249" lon="5.9041">
        <ele>1866.06</ele>
        <time>2013-06-30T13:01:00Z</time>
      </trkpt>
      <trkpt lat="45.43248" lon="5.90409">
        <ele>1867.5</ele>
        <time>2013-06-30T13:01:15Z</time>
      </trkpt>
      <trkpt lat="45.43249" lon="5.9041">
        <ele>1866.54</ele>
        <time>2013-06-30T13:01:41Z</time>
      </trkpt>
      <trkpt lat="45.43249" lon="5.90409">
        <ele>1867.5</ele>
        <time>2013-06-30T13:01:47Z</time>
      </trkpt>
      <trkpt lat="45.43248" lon="5.90409">
        <ele>1866.54</ele>
        <time>2013-06-30T13:01:49Z</time>
      </trkpt>
      <trkpt lat="45.43249" lon="5.90409">
        <ele>1860.29</ele>
        <time>2013-06-30T13:02:12Z</time>
      </trkpt>
      <trkpt lat="45.43249" lon="5.90409">
        <ele>1867.98</ele>
        <time>2013-06-30T13:02:13Z</time>
      </trkpt>
      <trkpt lat="45.43249" lon="5.90408">
        <ele>1867.98</ele>
        <time>2013-06-30T13:02:14Z</time>
      </trkpt>
      <trkpt lat="45.43249" lon="5.90409">
        <ele>1867.02</ele>
        <time>2013-06-30T13:02:16Z</time>
      </trkpt>
      <trkpt lat="45.43249" lon="5.90409">
        <ele>1867.02</ele>
        <time>2013-06-30T13:02:28Z</time>
      </trkpt>
      <trkpt lat="45.43249" lon="5.90408">
        <ele>1867.02</ele>
        <time>2013-06-30T13:02:40Z</time>
      </trkpt>
      <trkpt lat="45.43247" lon="5.90405">
        <ele>1867.02</ele>
        <time>2013-06-30T13:02:50Z</time>
      </trkpt>
      <trkpt lat="45.43247" lon="5.90406">
        <ele>1867.02</ele>
        <time>2013-06-30T13:03:12Z</time>
      </trkpt>
      <trkpt lat="45.43246" lon="5.90406">
        <ele>1867.02</ele>
        <time>2013-06-30T13:03:30Z</time>
      </trkpt>
      <trkpt lat="45.43245" lon="5.90405">
        <ele>1867.02</ele>
        <time>2013-06-30T13:03:42Z</time>
      </trkpt>
      <trkpt lat="45.43245" lon="5.90406">
        <ele>1867.98</ele>
        <time>2013-06-30T13:04:04Z</time>
      </trkpt>
      <trkpt lat="45.43245" lon="5.90406">
        <ele>1867.98</ele>
        <time>2013-06-30T13:04:28Z</time>
      </trkpt>
      <trkpt lat="45.43244" lon="5.90407">
        <ele>1867.98</ele>
        <time>2013-06-30T13:04:49Z</time>
      </trkpt>
      <trkpt lat="45.43244" lon="5.9041">
        <ele>1867.98</ele>
        <time>2013-06-30T13:05:05Z</time>
      </trkpt>
      <trkpt lat="45.43242" lon="5.90411">
        <ele>1867.02</ele>
        <time>2013-06-30T13:05:10Z</time>
      </trkpt>
      <trkpt lat="45.43233" lon="5.90418">
        <ele>1864.61</ele>
        <time>2013-06-30T13:05:26Z</time>
      </trkpt>
      <trkpt lat="45.43223" lon="5.90427">
        <ele>1861.25</ele>
        <time>2013-06-30T13:05:43Z</time>
      </trkpt>
      <trkpt lat="45.4322" lon="5.90429">
        <ele>1860.77</ele>
        <time>2013-06-30T13:05:47Z</time>
      </trkpt>
      <trkpt lat="45.43208" lon="5.90435">
        <ele>1858.37</ele>
        <time>2013-06-30T13:06:03Z</time>
      </trkpt>
      <trkpt lat="45.43202" lon="5.90435">
        <ele>1857.4</ele>
        <time>2013-06-30T13:06:10Z</time>
      </trkpt>
      <trkpt lat="45.43189" lon="5.90445">
        <ele>1857.4</ele>
        <time>2013-06-30T13:06:25Z</time>
      </trkpt>
      <trkpt lat="45.43184" lon="5.90451">
        <ele>1856.44</ele>
        <time>2013-06-30T13:06:38Z</time>
      </trkpt>
      <trkpt lat="45.43184" lon="5.90453">
        <ele>1855.96</ele>
        <time>2013-06-30T13:06:45Z</time>
      </trkpt>
      <trkpt lat="45.43181" lon="5.90452">
        <ele>1855.96</ele>
        <time>2013-06-30T13:06:48Z</time>
      </trkpt>
      <trkpt lat="45.4317" lon="5.90457">
        <ele>1855</ele>
        <time>2013-06-30T13:06:59Z</time>
      </trkpt>
      <trkpt lat="45.4315" lon="5.90462">
        <ele>1853.56</ele>
        <time>2013-06-30T13:07:16Z</time>
      </trkpt>
      <trkpt lat="45.43132" lon="5.90469">
        <ele>1850.68</ele>
        <time>2013-06-30T13:07:33Z</time>
      </trkpt>
      <trkpt lat="45.43116" lon="5.90473">
        <ele>1848.75</ele>
        <time>2013-06-30T13:07:47Z</time>
      </trkpt>
      <trkpt lat="45.43102" lon="5.90478">
        <ele>1845.39</ele>
        <time>2013-06-30T13:08:01Z</time>
      </trkpt>
      <trkpt lat="45.43094" lon="5.90483">
        <ele>1844.91</ele>
        <time>2013-06-30T13:08:09Z</time>
      </trkpt>
      <trkpt lat="45.43078" lon="5.90487">
        <ele>1843.47</ele>
        <time>2013-06-30T13:08:25Z</time>
      </trkpt>
      <trkpt lat="45.43066" lon="5.90486">
        <ele>1842.5</ele>
        <time>2013-06-30T13:08:39Z</time>
      </trkpt>
      <trkpt lat="45.43063" lon="5.90482">
        <ele>1841.54</ele>
        <time>2013-06-30T13:08:44Z</time>
      </trkpt>
      <trkpt lat="45.43054" lon="5.90484">
        <ele>1841.06</ele>
        <time>2013-06-30T13:08:52Z</time>
      </trkpt>
      <trkpt lat="45.43052" lon="5.90485">
        <ele>1841.06</ele>
        <time>2013-06-30T13:08:54Z</time>
      </trkpt>
      <trkpt lat="45.43043" lon="5.90486">
        <ele>1841.06</ele>
        <time>2013-06-30T13:09:04Z</time>
      </trkpt>
      <trkpt lat="45.43025" lon="5.9048">
        <ele>1841.06</ele>
        <time>2013-06-30T13:09:21Z</time>
      </trkpt>
      <trkpt lat="45.43022" lon="5.90479">
        <ele>1841.06</ele>
        <time>2013-06-30T13:09:24Z</time>
      </trkpt>
      <trkpt lat="45.43016" lon="5.90478">
        <ele>1841.54</ele>
        <time>2013-06-30T13:09:29Z</time>
      </trkpt>
      <trkpt lat="45.43014" lon="5.90478">
        <ele>1841.54</ele>
        <time>2013-06-30T13:09:31Z</time>
      </trkpt>
      <trkpt lat="45.42999" lon="5.90475">
        <ele>1841.54</ele>
        <time>2013-06-30T13:09:47Z</time>
      </trkpt>
      <trkpt lat="45.42991" lon="5.90478">
        <ele>1843.47</ele>
        <time>2013-06-30T13:09:59Z</time>
      </trkpt>
      <trkpt lat="45.42982" lon="5.90478">
        <ele>1843.95</ele>
        <time>2013-06-30T13:10:10Z</time>
      </trkpt>
      <trkpt lat="45.42974" lon="5.90475">
        <ele>1844.43</ele>
        <time>2013-06-30T13:10:20Z</time>
      </trkpt>
      <trkpt lat="45.42972" lon="5.90475">
        <ele>1844.43</ele>
        <time>2013-06-30T13:10:23Z</time>
      </trkpt>
      <trkpt lat="45.42969" lon="5.90473">
        <ele>1844.91</ele>
        <time>2013-06-30T13:10:27Z</time>
      </trkpt>
      <trkpt lat="45.4296" lon="5.90473">
        <ele>1845.87</ele>
        <time>2013-06-30T13:10:37Z</time>
      </trkpt>
      <trkpt lat="45.42957" lon="5.90474">
        <ele>1845.87</ele>
        <time>2013-06-30T13:10:40Z</time>
      </trkpt>
      <trkpt lat="45.42943" lon="5.90472">
        <ele>1847.31</ele>
        <time>2013-06-30T13:10:55Z</time>
      </trkpt>
      <trkpt lat="45.42934" lon="5.90465">
        <ele>1848.75</ele>
        <time>2013-06-30T13:11:07Z</time>
      </trkpt>
      <trkpt lat="45.4293" lon="5.90468">
        <ele>1848.75</ele>
        <time>2013-06-30T13:11:11Z</time>
      </trkpt>
      <trkpt lat="45.42928" lon="5.90469">
        <ele>1848.75</ele>
        <time>2013-06-30T13:11:13Z</time>
      </trkpt>
      <trkpt lat="45.42925" lon="5.90472">
        <ele>1848.75</ele>
        <time>2013-06-30T13:11:28Z</time>
      </trkpt>
      <trkpt lat="45.42922" lon="5.90474">
        <ele>1847.79</ele>
        <time>2013-06-30T13:11:46Z</time>
      </trkpt>
      <trkpt lat="45.42913" lon="5.90485">
        <ele>1847.79</ele>
        <time>2013-06-30T13:12:00Z</time>
      </trkpt>
      <trkpt lat="45.4291" lon="5.9049">
        <ele>1847.79</ele>
        <time>2013-06-30T13:12:13Z</time>
      </trkpt>
      <trkpt lat="45.42909" lon="5.90491">
        <ele>1847.79</ele>
        <time>2013-06-30T13:12:15Z</time>
      </trkpt>
      <trkpt lat="45.42905" lon="5.90495">
        <ele>1847.79</ele>
        <time>2013-06-30T13:12:25Z</time>
      </trkpt>
      <trkpt lat="45.42895" lon="5.90499">
        <ele>1847.31</ele>
        <time>2013-06-30T13:12:35Z</time>
      </trkpt>
      <trkpt lat="45.42877" lon="5.90498">
        <ele>1846.83</ele>
        <time>2013-06-30T13:12:52Z</time>
      </trkpt>
      <trkpt lat="45.42868" lon="5.9049">
        <ele>1846.83</ele>
        <time>2013-06-30T13:13:04Z</time>
      </trkpt>
      <trkpt lat="45.42865" lon="5.90488">
        <ele>1846.83</ele>
        <time>2013-06-30T13:13:08Z</time>
      </trkpt>
      <trkpt lat="45.42848" lon="5.90481">
        <ele>1846.83</ele>
        <time>2013-06-30T13:13:25Z</time>
      </trkpt>
      <trkpt lat="45.4283" lon="5.90472">
        <ele>1846.83</ele>
        <time>2013-06-30T13:13:42Z</time>
      </trkpt>
      <trkpt lat="45.42817" lon="5.90466">
        <ele>1846.83</ele>
        <time>2013-06-30T13:13:55Z</time>
      </trkpt>
      <trkpt lat="45.42811" lon="5.90463">
        <ele>1846.83</ele>
        <time>2013-06-30T13:14:02Z</time>
      </trkpt>
      <trkpt lat="45.42806" lon="5.90461">
        <ele>1846.35</ele>
        <time>2013-06-30T13:14:08Z</time>
      </trkpt>
      <trkpt lat="45.42798" lon="5.90463">
        <ele>1845.39</ele>
        <time>2013-06-30T13:14:18Z</time>
      </trkpt>
      <trkpt lat="45.42784" lon="5.90456">
        <ele>1845.87</ele>
        <time>2013-06-30T13:14:34Z</time>
      </trkpt>
      <trkpt lat="45.42782" lon="5.90455">
        <ele>1845.87</ele>
        <time>2013-06-30T13:14:37Z</time>
      </trkpt>
      <trkpt lat="45.42771" lon="5.90452">
        <ele>1845.87</ele>
        <time>2013-06-30T13:14:48Z</time>
      </trkpt>
      <trkpt lat="45.42758" lon="5.90448">
        <ele>1844.91</ele>
        <time>2013-06-30T13:15:03Z</time>
      </trkpt>
      <trkpt lat="45.42749" lon="5.90445">
        <ele>1843.95</ele>
        <time>2013-06-30T13:15:15Z</time>
      </trkpt>
      <trkpt lat="45.42735" lon="5.90441">
        <ele>1844.91</ele>
        <time>2013-06-30T13:15:31Z</time>
      </trkpt>
      <trkpt lat="45.42725" lon="5.90428">
        <ele>1844.91</ele>
        <time>2013-06-30T13:15:45Z</time>
      </trkpt>
      <trkpt lat="45.42715" lon="5.90417">
        <ele>1843.95</ele>
        <time>2013-06-30T13:15:59Z</time>
      </trkpt>
      <trkpt lat="45.42708" lon="5.90411">
        <ele>1843.47</ele>
        <time>2013-06-30T13:16:07Z</time>
      </trkpt>
      <trkpt lat="45.42695" lon="5.90406">
        <ele>1842.5</ele>
        <time>2013-06-30T13:16:20Z</time>
      </trkpt>
      <trkpt lat="45.42687" lon="5.90405">
        <ele>1842.5</ele>
        <time>2013-06-30T13:16:30Z</time>
      </trkpt>
      <trkpt lat="45.42685" lon="5.90404">
        <ele>1842.5</ele>
        <time>2013-06-30T13:16:32Z</time>
      </trkpt>
      <trkpt lat="45.42684" lon="5.90404">
        <ele>1842.5</ele>
        <time>2013-06-30T13:16:34Z</time>
      </trkpt>
      <trkpt lat="45.42667" lon="5.90394">
        <ele>1842.02</ele>
        <time>2013-06-30T13:16:52Z</time>
      </trkpt>
      <trkpt lat="45.42665" lon="5.90393">
        <ele>1842.02</ele>
        <time>2013-06-30T13:16:54Z</time>
      </trkpt>
      <trkpt lat="45.42662" lon="5.90393">
        <ele>1842.02</ele>
        <time>2013-06-30T13:16:57Z</time>
      </trkpt>
      <trkpt lat="45.42652" lon="5.90387">
        <ele>1842.02</ele>
        <time>2013-06-30T13:17:07Z</time>
      </trkpt>
      <trkpt lat="45.42638" lon="5.90384">
        <ele>1841.06</ele>
        <time>2013-06-30T13:17:21Z</time>
      </trkpt>
      <trkpt lat="45.42632" lon="5.90386">
        <ele>1841.06</ele>
        <time>2013-06-30T13:17:26Z</time>
      </trkpt>
      <trkpt lat="45.42626" lon="5.90384">
        <ele>1841.06</ele>
        <time>2013-06-30T13:17:32Z</time>
      </trkpt>
      <trkpt lat="45.42622" lon="5.90384">
        <ele>1841.06</ele>
        <time>2013-06-30T13:17:37Z</time>
      </trkpt>
      <trkpt lat="45.42613" lon="5.90394">
        <ele>1842.98</ele>
        <time>2013-06-30T13:17:51Z</time>
      </trkpt>
      <trkpt lat="45.42603" lon="5.90401">
        <ele>1843.95</ele>
        <time>2013-06-30T13:18:03Z</time>
      </trkpt>
      <trkpt lat="45.42593" lon="5.90402">
        <ele>1844.43</ele>
        <time>2013-06-30T13:18:15Z</time>
      </trkpt>
      <trkpt lat="45.42588" lon="5.90401">
        <ele>1844.91</ele>
        <time>2013-06-30T13:18:20Z</time>
      </trkpt>
      <trkpt lat="45.42578" lon="5.90407">
        <ele>1845.39</ele>
        <time>2013-06-30T13:18:33Z</time>
      </trkpt>
      <trkpt lat="45.42574" lon="5.90407">
        <ele>1845.39</ele>
        <time>2013-06-30T13:18:45Z</time>
      </trkpt>
      <trkpt lat="45.42572" lon="5.90407">
        <ele>1845.39</ele>
        <time>2013-06-30T13:18:56Z</time>
      </trkpt>
      <trkpt lat="45.42562" lon="5.90405">
        <ele>1845.39</ele>
        <time>2013-06-30T13:19:09Z</time>
      </trkpt>
      <trkpt lat="45.42551" lon="5.90402">
        <ele>1846.35</ele>
        <time>2013-06-30T13:19:24Z</time>
      </trkpt>
      <trkpt lat="45.42547" lon="5.90402">
        <ele>1846.83</ele>
        <time>2013-06-30T13:19:30Z</time>
      </trkpt>
      <trkpt lat="45.42545" lon="5.904">
        <ele>1847.31</ele>
        <time>2013-06-30T13:19:33Z</time>
      </trkpt>
      <trkpt lat="45.42534" lon="5.904">
        <ele>1847.79</ele>
        <time>2013-06-30T13:19:45Z</time>
      </trkpt>
      <trkpt lat="45.42528" lon="5.90395">
        <ele>1848.75</ele>
        <time>2013-06-30T13:19:53Z</time>
      </trkpt>
      <trkpt lat="45.42515" lon="5.9039">
        <ele>1850.19</ele>
        <time>2013-06-30T13:20:08Z</time>
      </trkpt>
      <trkpt lat="45.42514" lon="5.90389">
        <ele>1850.19</ele>
        <time>2013-06-30T13:20:10Z</time>
      </trkpt>
      <trkpt lat="45.42504" lon="5.90383">
        <ele>1851.16</ele>
        <time>2013-06-30T13:20:21Z</time>
      </trkpt>
      <trkpt lat="45.42491" lon="5.90383">
        <ele>1851.16</ele>
        <time>2013-06-30T13:20:35Z</time>
      </trkpt>
      <trkpt lat="45.42488" lon="5.90385">
        <ele>1851.16</ele>
        <time>2013-06-30T13:20:38Z</time>
      </trkpt>
      <trkpt lat="45.42478" lon="5.9038">
        <ele>1851.64</ele>
        <time>2013-06-30T13:20:51Z</time>
      </trkpt>
      <trkpt lat="45.42468" lon="5.90373">
        <ele>1852.6</ele>
        <time>2013-06-30T13:21:03Z</time>
      </trkpt>
      <trkpt lat="45.4246" lon="5.90359">
        <ele>1854.52</ele>
        <time>2013-06-30T13:21:19Z</time>
      </trkpt>
      <trkpt lat="45.42455" lon="5.90348">
        <ele>1856.44</ele>
        <time>2013-06-30T13:21:32Z</time>
      </trkpt>
      <trkpt lat="45.42448" lon="5.90347">
        <ele>1856.92</ele>
        <time>2013-06-30T13:21:44Z</time>
      </trkpt>
      <trkpt lat="45.42444" lon="5.90345">
        <ele>1856.92</ele>
        <time>2013-06-30T13:21:52Z</time>
      </trkpt>
      <trkpt lat="45.42438" lon="5.90332">
        <ele>1857.89</ele>
        <time>2013-06-30T13:22:05Z</time>
      </trkpt>
      <trkpt lat="45.42434" lon="5.90326">
        <ele>1857.89</ele>
        <time>2013-06-30T13:22:12Z</time>
      </trkpt>
      <trkpt lat="45.42421" lon="5.90313">
        <ele>1858.37</ele>
        <time>2013-06-30T13:22:29Z</time>
      </trkpt>
      <trkpt lat="45.42416" lon="5.90311">
        <ele>1853.08</ele>
        <time>2013-06-30T13:22:40Z</time>
      </trkpt>
      <trkpt lat="45.42416" lon="5.9031">
        <ele>1859.81</ele>
        <time>2013-06-30T13:22:41Z</time>
      </trkpt>
      <trkpt lat="45.42409" lon="5.90306">
        <ele>1860.77</ele>
        <time>2013-06-30T13:22:53Z</time>
      </trkpt>
      <trkpt lat="45.42402" lon="5.90302">
        <ele>1861.25</ele>
        <time>2013-06-30T13:23:03Z</time>
      </trkpt>
      <trkpt lat="45.42389" lon="5.90304">
        <ele>1860.77</ele>
        <time>2013-06-30T13:23:16Z</time>
      </trkpt>
      <trkpt lat="45.42382" lon="5.90297">
        <ele>1860.77</ele>
        <time>2013-06-30T13:23:25Z</time>
      </trkpt>
      <trkpt lat="45.42378" lon="5.903">
        <ele>1860.77</ele>
        <time>2013-06-30T13:23:29Z</time>
      </trkpt>
      <trkpt lat="45.42371" lon="5.903">
        <ele>1860.77</ele>
        <time>2013-06-30T13:23:40Z</time>
      </trkpt>
      <trkpt lat="45.42363" lon="5.90307">
        <ele>1859.81</ele>
        <time>2013-06-30T13:23:53Z</time>
      </trkpt>
      <trkpt lat="45.42354" lon="5.90319">
        <ele>1856.92</ele>
        <time>2013-06-30T13:24:08Z</time>
      </trkpt>
      <trkpt lat="45.42351" lon="5.90317">
        <ele>1856.92</ele>
        <time>2013-06-30T13:24:12Z</time>
      </trkpt>
      <trkpt lat="45.42344" lon="5.90313">
        <ele>1857.4</ele>
        <time>2013-06-30T13:24:26Z</time>
      </trkpt>
      <trkpt lat="45.42343" lon="5.90311">
        <ele>1858.37</ele>
        <time>2013-06-30T13:24:31Z</time>
      </trkpt>
      <trkpt lat="45.4234" lon="5.9031">
        <ele>1858.85</ele>
        <time>2013-06-30T13:24:41Z</time>
      </trkpt>
      <trkpt lat="45.42338" lon="5.90303">
        <ele>1859.33</ele>
        <time>2013-06-30T13:24:52Z</time>
      </trkpt>
      <trkpt lat="45.42335" lon="5.90297">
        <ele>1860.77</ele>
        <time>2013-06-30T13:25:04Z</time>
      </trkpt>
      <trkpt lat="45.42331" lon="5.90298">
        <ele>1861.25</ele>
        <time>2013-06-30T13:25:13Z</time>
      </trkpt>
      <trkpt lat="45.42325" lon="5.90296">
        <ele>1861.73</ele>
        <time>2013-06-30T13:25:24Z</time>
      </trkpt>
      <trkpt lat="45.4232" lon="5.9029">
        <ele>1862.21</ele>
        <time>2013-06-30T13:25:35Z</time>
      </trkpt>
      <trkpt lat="45.42315" lon="5.9029">
        <ele>1860.77</ele>
        <time>2013-06-30T13:25:46Z</time>
      </trkpt>
      <trkpt lat="45.42308" lon="5.90291">
        <ele>1860.29</ele>
        <time>2013-06-30T13:26:00Z</time>
      </trkpt>
      <trkpt lat="45.42302" lon="5.9029">
        <ele>1860.77</ele>
        <time>2013-06-30T13:26:13Z</time>
      </trkpt>
      <trkpt lat="45.423" lon="5.90288">
        <ele>1860.77</ele>
        <time>2013-06-30T13:26:22Z</time>
      </trkpt>
      <trkpt lat="45.42291" lon="5.90287">
        <ele>1861.25</ele>
        <time>2013-06-30T13:26:35Z</time>
      </trkpt>
      <trkpt lat="45.42289" lon="5.90286">
        <ele>1861.25</ele>
        <time>2013-06-30T13:26:38Z</time>
      </trkpt>
      <trkpt lat="45.42287" lon="5.90285">
        <ele>1861.25</ele>
        <time>2013-06-30T13:26:40Z</time>
      </trkpt>
      <trkpt lat="45.42281" lon="5.90279">
        <ele>1861.25</ele>
        <time>2013-06-30T13:26:49Z</time>
      </trkpt>
      <trkpt lat="45.42276" lon="5.90272">
        <ele>1862.21</ele>
        <time>2013-06-30T13:27:00Z</time>
      </trkpt>
      <trkpt lat="45.42273" lon="5.9027">
        <ele>1862.69</ele>
        <time>2013-06-30T13:27:06Z</time>
      </trkpt>
      <trkpt lat="45.42266" lon="5.90261">
        <ele>1863.17</ele>
        <time>2013-06-30T13:27:18Z</time>
      </trkpt>
      <trkpt lat="45.42263" lon="5.90257">
        <ele>1863.17</ele>
        <time>2013-06-30T13:27:22Z</time>
      </trkpt>
      <trkpt lat="45.42251" lon="5.90254">
        <ele>1863.65</ele>
        <time>2013-06-30T13:27:34Z</time>
      </trkpt>
      <trkpt lat="45.42238" lon="5.90253">
        <ele>1863.65</ele>
        <time>2013-06-30T13:27:48Z</time>
      </trkpt>
      <trkpt lat="45.42235" lon="5.90252">
        <ele>1863.65</ele>
        <time>2013-06-30T13:27:51Z</time>
      </trkpt>
      <trkpt lat="45.42233" lon="5.90252">
        <ele>1863.65</ele>
        <time>2013-06-30T13:27:53Z</time>
      </trkpt>
      <trkpt lat="45.42229" lon="5.90253">
        <ele>1862.21</ele>
        <time>2013-06-30T13:27:58Z</time>
      </trkpt>
      <trkpt lat="45.42227" lon="5.90254">
        <ele>1861.73</ele>
        <time>2013-06-30T13:28:08Z</time>
      </trkpt>
      <trkpt lat="45.42226" lon="5.90254">
        <ele>1855.48</ele>
        <time>2013-06-30T13:28:09Z</time>
      </trkpt>
      <trkpt lat="45.42226" lon="5.90254">
        <ele>1861.25</ele>
        <time>2013-06-30T13:28:10Z</time>
      </trkpt>
      <trkpt lat="45.42226" lon="5.90254">
        <ele>1861.25</ele>
        <time>2013-06-30T13:28:43Z</time>
      </trkpt>
      <trkpt lat="45.42226" lon="5.90255">
        <ele>1861.25</ele>
        <time>2013-06-30T13:29:14Z</time>
      </trkpt>
      <trkpt lat="45.42226" lon="5.90253">
        <ele>1861.73</ele>
        <time>2013-06-30T13:29:51Z</time>
      </trkpt>
      <trkpt lat="45.42227" lon="5.90254">
        <ele>1861.73</ele>
        <time>2013-06-30T13:30:12Z</time>
      </trkpt>
      <trkpt lat="45.42227" lon="5.90254">
        <ele>1862.69</ele>
        <time>2013-06-30T13:30:44Z</time>
      </trkpt>
      <trkpt lat="45.42227" lon="5.90254">
        <ele>1861.73</ele>
        <time>2013-06-30T13:30:55Z</time>
      </trkpt>
      <trkpt lat="45.42226" lon="5.90254">
        <ele>1863.65</ele>
        <time>2013-06-30T13:31:01Z</time>
      </trkpt>
      <trkpt lat="45.42226" lon="5.90255">
        <ele>1862.21</ele>
        <time>2013-06-30T13:31:15Z</time>
      </trkpt>
      <trkpt lat="45.42225" lon="5.90255">
        <ele>1862.21</ele>
        <time>2013-06-30T13:31:25Z</time>
      </trkpt>
      <trkpt lat="45.4222" lon="5.90257">
        <ele>1862.21</ele>
        <time>2013-06-30T13:31:36Z</time>
      </trkpt>
      <trkpt lat="45.42217" lon="5.90258">
        <ele>1862.21</ele>
        <time>2013-06-30T13:31:39Z</time>
      </trkpt>
      <trkpt lat="45.4221" lon="5.90261">
        <ele>1861.25</ele>
        <time>2013-06-30T13:31:46Z</time>
      </trkpt>
      <trkpt lat="45.42204" lon="5.90261">
        <ele>1861.25</ele>
        <time>2013-06-30T13:31:52Z</time>
      </trkpt>
      <trkpt lat="45.42194" lon="5.90259">
        <ele>1860.77</ele>
        <time>2013-06-30T13:32:03Z</time>
      </trkpt>
      <trkpt lat="45.42189" lon="5.90261">
        <ele>1859.81</ele>
        <time>2013-06-30T13:32:14Z</time>
      </trkpt>
      <trkpt lat="45.42179" lon="5.90265">
        <ele>1857.89</ele>
        <time>2013-06-30T13:32:26Z</time>
      </trkpt>
      <trkpt lat="45.42162" lon="5.90267">
        <ele>1855.48</ele>
        <time>2013-06-30T13:32:42Z</time>
      </trkpt>
      <trkpt lat="45.42147" lon="5.90264">
        <ele>1853.56</ele>
        <time>2013-06-30T13:32:57Z</time>
      </trkpt>
      <trkpt lat="45.42135" lon="5.90257">
        <ele>1850.68</ele>
        <time>2013-06-30T13:33:11Z</time>
      </trkpt>
      <trkpt lat="45.42129" lon="5.90256">
        <ele>1849.23</ele>
        <time>2013-06-30T13:33:17Z</time>
      </trkpt>
      <trkpt lat="45.42111" lon="5.90256">
        <ele>1848.75</ele>
        <time>2013-06-30T13:33:33Z</time>
      </trkpt>
      <trkpt lat="45.42093" lon="5.90249">
        <ele>1848.27</ele>
        <time>2013-06-30T13:33:49Z</time>
      </trkpt>
      <trkpt lat="45.42083" lon="5.90239">
        <ele>1847.31</ele>
        <time>2013-06-30T13:34:04Z</time>
      </trkpt>
      <trkpt lat="45.42079" lon="5.90238">
        <ele>1846.83</ele>
        <time>2013-06-30T13:34:15Z</time>
      </trkpt>
      <trkpt lat="45.42075" lon="5.90238">
        <ele>1846.83</ele>
        <time>2013-06-30T13:34:27Z</time>
      </trkpt>
      <trkpt lat="45.42072" lon="5.90238">
        <ele>1846.83</ele>
        <time>2013-06-30T13:34:40Z</time>
      </trkpt>
      <trkpt lat="45.42067" lon="5.90235">
        <ele>1846.83</ele>
        <time>2013-06-30T13:34:53Z</time>
      </trkpt>
      <trkpt lat="45.42059" lon="5.90237">
        <ele>1846.83</ele>
        <time>2013-06-30T13:35:04Z</time>
      </trkpt>
      <trkpt lat="45.42057" lon="5.90237">
        <ele>1848.27</ele>
        <time>2013-06-30T13:35:06Z</time>
      </trkpt>
      <trkpt lat="45.42047" lon="5.90239">
        <ele>1848.75</ele>
        <time>2013-06-30T13:35:17Z</time>
      </trkpt>
      <trkpt lat="45.42035" lon="5.90237">
        <ele>1849.71</ele>
        <time>2013-06-30T13:35:30Z</time>
      </trkpt>
      <trkpt lat="45.42023" lon="5.90242">
        <ele>1849.23</ele>
        <time>2013-06-30T13:35:44Z</time>
      </trkpt>
      <trkpt lat="45.42021" lon="5.90243">
        <ele>1849.23</ele>
        <time>2013-06-30T13:35:46Z</time>
      </trkpt>
      <trkpt lat="45.42017" lon="5.90245">
        <ele>1849.23</ele>
        <time>2013-06-30T13:35:50Z</time>
      </trkpt>
      <trkpt lat="45.42009" lon="5.90247">
        <ele>1847.79</ele>
        <time>2013-06-30T13:35:59Z</time>
      </trkpt>
      <trkpt lat="45.4199" lon="5.90236">
        <ele>1848.75</ele>
        <time>2013-06-30T13:36:17Z</time>
      </trkpt>
      <trkpt lat="45.41988" lon="5.90235">
        <ele>1848.75</ele>
        <time>2013-06-30T13:36:19Z</time>
      </trkpt>
      <trkpt lat="45.41982" lon="5.9023">
        <ele>1849.71</ele>
        <time>2013-06-30T13:36:26Z</time>
      </trkpt>
      <trkpt lat="45.41974" lon="5.90224">
        <ele>1850.68</ele>
        <time>2013-06-30T13:36:40Z</time>
      </trkpt>
      <trkpt lat="45.41975" lon="5.90224">
        <ele>1850.68</ele>
        <time>2013-06-30T13:36:55Z</time>
      </trkpt>
      <trkpt lat="45.41974" lon="5.90223">
        <ele>1850.68</ele>
        <time>2013-06-30T13:37:09Z</time>
      </trkpt>
      <trkpt lat="45.41972" lon="5.90222">
        <ele>1848.75</ele>
        <time>2013-06-30T13:37:23Z</time>
      </trkpt>
      <trkpt lat="45.41971" lon="5.90221">
        <ele>1848.75</ele>
        <time>2013-06-30T13:37:41Z</time>
      </trkpt>
      <trkpt lat="45.41972" lon="5.90222">
        <ele>1848.75</ele>
        <time>2013-06-30T13:37:54Z</time>
      </trkpt>
      <trkpt lat="45.4197" lon="5.90221">
        <ele>1848.75</ele>
        <time>2013-06-30T13:38:11Z</time>
      </trkpt>
      <trkpt lat="45.4197" lon="5.90222">
        <ele>1848.27</ele>
        <time>2013-06-30T13:38:25Z</time>
      </trkpt>
      <trkpt lat="45.4197" lon="5.90223">
        <ele>1848.27</ele>
        <time>2013-06-30T13:38:38Z</time>
      </trkpt>
      <trkpt lat="45.41969" lon="5.90224">
        <ele>1848.27</ele>
        <time>2013-06-30T13:38:56Z</time>
      </trkpt>
      <trkpt lat="45.4197" lon="5.90224">
        <ele>1848.27</ele>
        <time>2013-06-30T13:39:13Z</time>
      </trkpt>
      <trkpt lat="45.41972" lon="5.90223">
        <ele>1848.27</ele>
        <time>2013-06-30T13:39:26Z</time>
      </trkpt>
      <trkpt lat="45.41973" lon="5.90223">
        <ele>1848.75</ele>
        <time>2013-06-30T13:39:40Z</time>
      </trkpt>
      <trkpt lat="45.41973" lon="5.90219">
        <ele>1848.75</ele>
        <time>2013-06-30T13:40:01Z</time>
      </trkpt>
      <trkpt lat="45.41971" lon="5.90214">
        <ele>1850.68</ele>
        <time>2013-06-30T13:40:14Z</time>
      </trkpt>
      <trkpt lat="45.41971" lon="5.90212">
        <ele>1850.68</ele>
        <time>2013-06-30T13:40:30Z</time>
      </trkpt>
      <trkpt lat="45.4197" lon="5.9021">
        <ele>1849.23</ele>
        <time>2013-06-30T13:40:38Z</time>
      </trkpt>
      <trkpt lat="45.41977" lon="5.90206">
        <ele>1848.75</ele>
        <time>2013-06-30T13:40:49Z</time>
      </trkpt>
      <trkpt lat="45.41977" lon="5.90205">
        <ele>1848.75</ele>
        <time>2013-06-30T13:40:50Z</time>
      </trkpt>
      <trkpt lat="45.41986" lon="5.90192">
        <ele>1848.75</ele>
        <time>2013-06-30T13:41:04Z</time>
      </trkpt>
      <trkpt lat="45.41996" lon="5.90176">
        <ele>1848.27</ele>
        <time>2013-06-30T13:41:20Z</time>
      </trkpt>
      <trkpt lat="45.42006" lon="5.90166">
        <ele>1846.83</ele>
        <time>2013-06-30T13:41:35Z</time>
      </trkpt>
      <trkpt lat="45.42006" lon="5.90163">
        <ele>1846.35</ele>
        <time>2013-06-30T13:41:52Z</time>
      </trkpt>
      <trkpt lat="45.42006" lon="5.9016">
        <ele>1844.91</ele>
        <time>2013-06-30T13:42:03Z</time>
      </trkpt>
      <trkpt lat="45.42005" lon="5.90159">
        <ele>1842.98</ele>
        <time>2013-06-30T13:42:15Z</time>
      </trkpt>
      <trkpt lat="45.42005" lon="5.90159">
        <ele>1842.5</ele>
        <time>2013-06-30T13:42:31Z</time>
      </trkpt>
      <trkpt lat="45.42004" lon="5.90157">
        <ele>1842.5</ele>
        <time>2013-06-30T13:42:47Z</time>
      </trkpt>
      <trkpt lat="45.42006" lon="5.90158">
        <ele>1842.98</ele>
        <time>2013-06-30T13:43:01Z</time>
      </trkpt>
      <trkpt lat="45.42006" lon="5.90159">
        <ele>1838.66</ele>
        <time>2013-06-30T13:43:11Z</time>
      </trkpt>
      <trkpt lat="45.42006" lon="5.9016">
        <ele>1843.95</ele>
        <time>2013-06-30T13:43:12Z</time>
      </trkpt>
      <trkpt lat="45.42006" lon="5.90156">
        <ele>1842.02</ele>
        <time>2013-06-30T13:43:35Z</time>
      </trkpt>
      <trkpt lat="45.42003" lon="5.90161">
        <ele>1842.02</ele>
        <time>2013-06-30T13:43:47Z</time>
      </trkpt>
      <trkpt lat="45.42002" lon="5.9016">
        <ele>1842.02</ele>
        <time>2013-06-30T13:44:02Z</time>
      </trkpt>
      <trkpt lat="45.42" lon="5.9016">
        <ele>1841.54</ele>
        <time>2013-06-30T13:44:15Z</time>
      </trkpt>
      <trkpt lat="45.41999" lon="5.9016">
        <ele>1841.54</ele>
        <time>2013-06-30T13:44:35Z</time>
      </trkpt>
      <trkpt lat="45.41999" lon="5.9016">
        <ele>1841.54</ele>
        <time>2013-06-30T13:44:54Z</time>
      </trkpt>
      <trkpt lat="45.41992" lon="5.90163">
        <ele>1841.06</ele>
        <time>2013-06-30T13:45:06Z</time>
      </trkpt>
      <trkpt lat="45.41988" lon="5.90167">
        <ele>1841.06</ele>
        <time>2013-06-30T13:45:11Z</time>
      </trkpt>
      <trkpt lat="45.41987" lon="5.90169">
        <ele>1840.58</ele>
        <time>2013-06-30T13:45:13Z</time>
      </trkpt>
      <trkpt lat="45.41974" lon="5.90184">
        <ele>1838.66</ele>
        <time>2013-06-30T13:45:30Z</time>
      </trkpt>
      <trkpt lat="45.41967" lon="5.90188">
        <ele>1836.74</ele>
        <time>2013-06-30T13:45:44Z</time>
      </trkpt>
      <trkpt lat="45.41964" lon="5.90186">
        <ele>1834.81</ele>
        <time>2013-06-30T13:45:57Z</time>
      </trkpt>
      <trkpt lat="45.41964" lon="5.90187">
        <ele>1834.81</ele>
        <time>2013-06-30T13:46:12Z</time>
      </trkpt>
      <trkpt lat="45.41964" lon="5.90188">
        <ele>1834.81</ele>
        <time>2013-06-30T13:46:30Z</time>
      </trkpt>
      <trkpt lat="45.41964" lon="5.90187">
        <ele>1834.81</ele>
        <time>2013-06-30T13:46:48Z</time>
      </trkpt>
      <trkpt lat="45.41963" lon="5.90187">
        <ele>1834.81</ele>
        <time>2013-06-30T13:47:10Z</time>
      </trkpt>
      <trkpt lat="45.41962" lon="5.90188">
        <ele>1834.81</ele>
        <time>2013-06-30T13:47:34Z</time>
      </trkpt>
      <trkpt lat="45.41963" lon="5.90186">
        <ele>1834.81</ele>
        <time>2013-06-30T13:47:57Z</time>
      </trkpt>
      <trkpt lat="45.41963" lon="5.90186">
        <ele>1834.81</ele>
        <time>2013-06-30T13:48:18Z</time>
      </trkpt>
      <trkpt lat="45.41962" lon="5.90187">
        <ele>1834.81</ele>
        <time>2013-06-30T13:48:43Z</time>
      </trkpt>
      <trkpt lat="45.41963" lon="5.90186">
        <ele>1834.81</ele>
        <time>2013-06-30T13:49:09Z</time>
      </trkpt>
      <trkpt lat="45.41963" lon="5.90187">
        <ele>1834.81</ele>
        <time>2013-06-30T13:49:27Z</time>
      </trkpt>
      <trkpt lat="45.41964" lon="5.90187">
        <ele>1834.81</ele>
        <time>2013-06-30T13:49:48Z</time>
      </trkpt>
      <trkpt lat="45.41963" lon="5.90186">
        <ele>1834.81</ele>
        <time>2013-06-30T13:50:05Z</time>
      </trkpt>
      <trkpt lat="45.41964" lon="5.90188">
        <ele>1834.33</ele>
        <time>2013-06-30T13:50:25Z</time>
      </trkpt>
      <trkpt lat="45.41964" lon="5.90193">
        <ele>1832.89</ele>
        <time>2013-06-30T13:50:51Z</time>
      </trkpt>
      <trkpt lat="45.41966" lon="5.90187">
        <ele>1831.93</ele>
        <time>2013-06-30T13:51:15Z</time>
      </trkpt>
      <trkpt lat="45.41962" lon="5.90179">
        <ele>1830.01</ele>
        <time>2013-06-30T13:51:27Z</time>
      </trkpt>
      <trkpt lat="45.41957" lon="5.90172">
        <ele>1826.64</ele>
        <time>2013-06-30T13:51:38Z</time>
      </trkpt>
      <trkpt lat="45.41959" lon="5.90169">
        <ele>1824.72</ele>
        <time>2013-06-30T13:51:46Z</time>
      </trkpt>
      <trkpt lat="45.41961" lon="5.90167">
        <ele>1821.35</ele>
        <time>2013-06-30T13:51:57Z</time>
      </trkpt>
      <trkpt lat="45.41957" lon="5.90164">
        <ele>1820.39</ele>
        <time>2013-06-30T13:52:09Z</time>
      </trkpt>
      <trkpt lat="45.41955" lon="5.9016">
        <ele>1818.95</ele>
        <time>2013-06-30T13:52:19Z</time>
      </trkpt>
      <trkpt lat="45.41953" lon="5.90157">
        <ele>1817.03</ele>
        <time>2013-06-30T13:52:34Z</time>
      </trkpt>
      <trkpt lat="45.41954" lon="5.90158">
        <ele>1817.03</ele>
        <time>2013-06-30T13:52:55Z</time>
      </trkpt>
      <trkpt lat="45.41952" lon="5.9016">
        <ele>1817.03</ele>
        <time>2013-06-30T13:53:11Z</time>
      </trkpt>
      <trkpt lat="45.41958" lon="5.9016">
        <ele>1816.07</ele>
        <time>2013-06-30T13:53:23Z</time>
      </trkpt>
      <trkpt lat="45.41957" lon="5.90157">
        <ele>1814.15</ele>
        <time>2013-06-30T13:53:29Z</time>
      </trkpt>
      <trkpt lat="45.41963" lon="5.90156">
        <ele>1810.78</ele>
        <time>2013-06-30T13:53:42Z</time>
      </trkpt>
      <trkpt lat="45.41964" lon="5.90155">
        <ele>1810.3</ele>
        <time>2013-06-30T13:53:44Z</time>
      </trkpt>
      <trkpt lat="45.41964" lon="5.90146">
        <ele>1807.42</ele>
        <time>2013-06-30T13:53:54Z</time>
      </trkpt>
      <trkpt lat="45.41963" lon="5.90144">
        <ele>1805.49</ele>
        <time>2013-06-30T13:54:00Z</time>
      </trkpt>
      <trkpt lat="45.41965" lon="5.90145">
        <ele>1804.05</ele>
        <time>2013-06-30T13:54:09Z</time>
      </trkpt>
      <trkpt lat="45.41966" lon="5.90141">
        <ele>1802.61</ele>
        <time>2013-06-30T13:54:27Z</time>
      </trkpt>
      <trkpt lat="45.4197" lon="5.90141">
        <ele>1800.69</ele>
        <time>2013-06-30T13:54:38Z</time>
      </trkpt>
      <trkpt lat="45.41972" lon="5.90136">
        <ele>1798.76</ele>
        <time>2013-06-30T13:54:50Z</time>
      </trkpt>
      <trkpt lat="45.41965" lon="5.90134">
        <ele>1796.36</ele>
        <time>2013-06-30T13:55:03Z</time>
      </trkpt>
      <trkpt lat="45.41959" lon="5.90134">
        <ele>1795.4</ele>
        <time>2013-06-30T13:55:20Z</time>
      </trkpt>
      <trkpt lat="45.41957" lon="5.90138">
        <ele>1795.4</ele>
        <time>2013-06-30T13:55:43Z</time>
      </trkpt>
      <trkpt lat="45.41958" lon="5.90136">
        <ele>1795.4</ele>
        <time>2013-06-30T13:55:58Z</time>
      </trkpt>
      <trkpt lat="45.41956" lon="5.90138">
        <ele>1794.44</ele>
        <time>2013-06-30T13:56:11Z</time>
      </trkpt>
      <trkpt lat="45.41954" lon="5.90139">
        <ele>1793.96</ele>
        <time>2013-06-30T13:56:25Z</time>
      </trkpt>
      <trkpt lat="45.41954" lon="5.90139">
        <ele>1793</ele>
        <time>2013-06-30T13:56:40Z</time>
      </trkpt>
      <trkpt lat="45.41953" lon="5.90134">
        <ele>1789.63</ele>
        <time>2013-06-30T13:56:58Z</time>
      </trkpt>
      <trkpt lat="45.41949" lon="5.90131">
        <ele>1787.71</ele>
        <time>2013-06-30T13:57:16Z</time>
      </trkpt>
      <trkpt lat="45.41951" lon="5.90127">
        <ele>1787.71</ele>
        <time>2013-06-30T13:57:33Z</time>
      </trkpt>
      <trkpt lat="45.41949" lon="5.90129">
        <ele>1787.71</ele>
        <time>2013-06-30T13:57:50Z</time>
      </trkpt>
      <trkpt lat="45.41948" lon="5.90112">
        <ele>1789.15</ele>
        <time>2013-06-30T14:00:27Z</time>
      </trkpt>
      <trkpt lat="45.41954" lon="5.90127">
        <ele>1786.27</ele>
        <time>2013-06-30T14:00:40Z</time>
      </trkpt>
      <trkpt lat="45.41957" lon="5.90126">
        <ele>1784.34</ele>
        <time>2013-06-30T14:00:47Z</time>
      </trkpt>
      <trkpt lat="45.41955" lon="5.90121">
        <ele>1782.42</ele>
        <time>2013-06-30T14:00:59Z</time>
      </trkpt>
      <trkpt lat="45.41955" lon="5.90121">
        <ele>1782.42</ele>
        <time>2013-06-30T14:01:03Z</time>
      </trkpt>
      <trkpt lat="45.41956" lon="5.90119">
        <ele>1780.5</ele>
        <time>2013-06-30T14:01:13Z</time>
      </trkpt>
      <trkpt lat="45.41954" lon="5.90116">
        <ele>1778.58</ele>
        <time>2013-06-30T14:01:24Z</time>
      </trkpt>
      <trkpt lat="45.41947" lon="5.90115">
        <ele>1777.61</ele>
        <time>2013-06-30T14:01:37Z</time>
      </trkpt>
      <trkpt lat="45.41947" lon="5.90115">
        <ele>1777.13</ele>
        <time>2013-06-30T14:01:38Z</time>
      </trkpt>
      <trkpt lat="45.41942" lon="5.90114">
        <ele>1775.69</ele>
        <time>2013-06-30T14:01:49Z</time>
      </trkpt>
      <trkpt lat="45.41938" lon="5.90112">
        <ele>1773.29</ele>
        <time>2013-06-30T14:02:01Z</time>
      </trkpt>
      <trkpt lat="45.41936" lon="5.90115">
        <ele>1773.29</ele>
        <time>2013-06-30T14:02:14Z</time>
      </trkpt>
      <trkpt lat="45.41934" lon="5.90116">
        <ele>1773.29</ele>
        <time>2013-06-30T14:02:30Z</time>
      </trkpt>
      <trkpt lat="45.41932" lon="5.90117">
        <ele>1773.29</ele>
        <time>2013-06-30T14:02:52Z</time>
      </trkpt>
      <trkpt lat="45.41931" lon="5.90122">
        <ele>1773.29</ele>
        <time>2013-06-30T14:03:16Z</time>
      </trkpt>
      <trkpt lat="45.41934" lon="5.90121">
        <ele>1772.81</ele>
        <time>2013-06-30T14:03:43Z</time>
      </trkpt>
      <trkpt lat="45.41934" lon="5.90118">
        <ele>1772.81</ele>
        <time>2013-06-30T14:03:56Z</time>
      </trkpt>
      <trkpt lat="45.41936" lon="5.9012">
        <ele>1772.81</ele>
        <time>2013-06-30T14:04:18Z</time>
      </trkpt>
      <trkpt lat="45.41934" lon="5.90123">
        <ele>1772.81</ele>
        <time>2013-06-30T14:04:40Z</time>
      </trkpt>
      <trkpt lat="45.41936" lon="5.90123">
        <ele>1772.81</ele>
        <time>2013-06-30T14:05:00Z</time>
      </trkpt>
      <trkpt lat="45.41933" lon="5.90122">
        <ele>1772.33</ele>
        <time>2013-06-30T14:05:28Z</time>
      </trkpt>
      <trkpt lat="45.41936" lon="5.90124">
        <ele>1772.33</ele>
        <time>2013-06-30T14:05:48Z</time>
      </trkpt>
      <trkpt lat="45.41939" lon="5.90122">
        <ele>1772.33</ele>
        <time>2013-06-30T14:06:02Z</time>
      </trkpt>
      <trkpt lat="45.41939" lon="5.90122">
        <ele>1772.33</ele>
        <time>2013-06-30T14:06:13Z</time>
      </trkpt>
      <trkpt lat="45.41939" lon="5.90123">
        <ele>1772.33</ele>
        <time>2013-06-30T14:06:31Z</time>
      </trkpt>
      <trkpt lat="45.4194" lon="5.90117">
        <ele>1771.85</ele>
        <time>2013-06-30T14:06:56Z</time>
      </trkpt>
      <trkpt lat="45.4194" lon="5.90115">
        <ele>1771.85</ele>
        <time>2013-06-30T14:07:22Z</time>
      </trkpt>
      <trkpt lat="45.41936" lon="5.90115">
        <ele>1771.85</ele>
        <time>2013-06-30T14:07:34Z</time>
      </trkpt>
      <trkpt lat="45.41934" lon="5.90114">
        <ele>1771.85</ele>
        <time>2013-06-30T14:07:38Z</time>
      </trkpt>
      <trkpt lat="45.41928" lon="5.90111">
        <ele>1771.37</ele>
        <time>2013-06-30T14:07:47Z</time>
      </trkpt>
      <trkpt lat="45.41925" lon="5.9011">
        <ele>1770.89</ele>
        <time>2013-06-30T14:07:51Z</time>
      </trkpt>
      <trkpt lat="45.41921" lon="5.90107">
        <ele>1770.89</ele>
        <time>2013-06-30T14:07:55Z</time>
      </trkpt>
      <trkpt lat="45.41916" lon="5.90107">
        <ele>1770.41</ele>
        <time>2013-06-30T14:07:59Z</time>
      </trkpt>
      <trkpt lat="45.41904" lon="5.90103">
        <ele>1771.85</ele>
        <time>2013-06-30T14:08:13Z</time>
      </trkpt>
      <trkpt lat="45.41891" lon="5.90097">
        <ele>1772.33</ele>
        <time>2013-06-30T14:08:25Z</time>
      </trkpt>
      <trkpt lat="45.41883" lon="5.90088">
        <ele>1773.29</ele>
        <time>2013-06-30T14:08:37Z</time>
      </trkpt>
      <trkpt lat="45.41873" lon="5.9008">
        <ele>1775.69</ele>
        <time>2013-06-30T14:08:51Z</time>
      </trkpt>
      <trkpt lat="45.41863" lon="5.9007">
        <ele>1776.65</ele>
        <time>2013-06-30T14:09:05Z</time>
      </trkpt>
      <trkpt lat="45.41862" lon="5.90068">
        <ele>1777.13</ele>
        <time>2013-06-30T14:09:07Z</time>
      </trkpt>
      <trkpt lat="45.41858" lon="5.90062">
        <ele>1777.61</ele>
        <time>2013-06-30T14:09:12Z</time>
      </trkpt>
      <trkpt lat="45.41854" lon="5.90056">
        <ele>1778.58</ele>
        <time>2013-06-30T14:09:18Z</time>
      </trkpt>
      <trkpt lat="45.41854" lon="5.90053">
        <ele>1778.58</ele>
        <time>2013-06-30T14:09:20Z</time>
      </trkpt>
      <trkpt lat="45.4185" lon="5.90037">
        <ele>1779.54</ele>
        <time>2013-06-30T14:09:34Z</time>
      </trkpt>
      <trkpt lat="45.41844" lon="5.90025">
        <ele>1780.98</ele>
        <time>2013-06-30T14:09:46Z</time>
      </trkpt>
      <trkpt lat="45.41837" lon="5.9001">
        <ele>1781.94</ele>
        <time>2013-06-30T14:09:59Z</time>
      </trkpt>
      <trkpt lat="45.41826" lon="5.9001">
        <ele>1781.94</ele>
        <time>2013-06-30T14:10:14Z</time>
      </trkpt>
      <trkpt lat="45.41823" lon="5.90013">
        <ele>1780.98</ele>
        <time>2013-06-30T14:10:18Z</time>
      </trkpt>
      <trkpt lat="45.41818" lon="5.90018">
        <ele>1779.06</ele>
        <time>2013-06-30T14:10:30Z</time>
      </trkpt>
      <trkpt lat="45.41813" lon="5.90023">
        <ele>1777.13</ele>
        <time>2013-06-30T14:10:42Z</time>
      </trkpt>
      <trkpt lat="45.41807" lon="5.90032">
        <ele>1774.73</ele>
        <time>2013-06-30T14:10:56Z</time>
      </trkpt>
      <trkpt lat="45.41807" lon="5.90033">
        <ele>1774.73</ele>
        <time>2013-06-30T14:10:57Z</time>
      </trkpt>
      <trkpt lat="45.41797" lon="5.90037">
        <ele>1772.33</ele>
        <time>2013-06-30T14:11:09Z</time>
      </trkpt>
      <trkpt lat="45.41795" lon="5.90038">
        <ele>1772.33</ele>
        <time>2013-06-30T14:11:12Z</time>
      </trkpt>
      <trkpt lat="45.4179" lon="5.90038">
        <ele>1770.89</ele>
        <time>2013-06-30T14:11:17Z</time>
      </trkpt>
      <trkpt lat="45.41785" lon="5.90041">
        <ele>1770.41</ele>
        <time>2013-06-30T14:11:22Z</time>
      </trkpt>
      <trkpt lat="45.41782" lon="5.90043">
        <ele>1769.44</ele>
        <time>2013-06-30T14:11:25Z</time>
      </trkpt>
      <trkpt lat="45.41773" lon="5.90051">
        <ele>1767.52</ele>
        <time>2013-06-30T14:11:39Z</time>
      </trkpt>
      <trkpt lat="45.41767" lon="5.90055">
        <ele>1766.56</ele>
        <time>2013-06-30T14:11:49Z</time>
      </trkpt>
      <trkpt lat="45.41761" lon="5.9006">
        <ele>1766.08</ele>
        <time>2013-06-30T14:11:55Z</time>
      </trkpt>
      <trkpt lat="45.41749" lon="5.90067">
        <ele>1765.12</ele>
        <time>2013-06-30T14:12:10Z</time>
      </trkpt>
      <trkpt lat="45.41746" lon="5.90069">
        <ele>1764.64</ele>
        <time>2013-06-30T14:12:14Z</time>
      </trkpt>
      <trkpt lat="45.41741" lon="5.90071">
        <ele>1764.16</ele>
        <time>2013-06-30T14:12:28Z</time>
      </trkpt>
      <trkpt lat="45.41732" lon="5.9007">
        <ele>1762.71</ele>
        <time>2013-06-30T14:12:41Z</time>
      </trkpt>
      <trkpt lat="45.41724" lon="5.9007">
        <ele>1760.31</ele>
        <time>2013-06-30T14:12:55Z</time>
      </trkpt>
      <trkpt lat="45.41724" lon="5.90069">
        <ele>1759.83</ele>
        <time>2013-06-30T14:12:56Z</time>
      </trkpt>
      <trkpt lat="45.41719" lon="5.90068">
        <ele>1759.35</ele>
        <time>2013-06-30T14:13:01Z</time>
      </trkpt>
      <trkpt lat="45.41713" lon="5.90069">
        <ele>1758.39</ele>
        <time>2013-06-30T14:13:07Z</time>
      </trkpt>
      <trkpt lat="45.41708" lon="5.90068">
        <ele>1757.91</ele>
        <time>2013-06-30T14:13:15Z</time>
      </trkpt>
      <trkpt lat="45.41705" lon="5.90068">
        <ele>1757.91</ele>
        <time>2013-06-30T14:13:18Z</time>
      </trkpt>
      <trkpt lat="45.41694" lon="5.90063">
        <ele>1757.91</ele>
        <time>2013-06-30T14:13:31Z</time>
      </trkpt>
      <trkpt lat="45.41684" lon="5.90062">
        <ele>1759.83</ele>
        <time>2013-06-30T14:13:46Z</time>
      </trkpt>
      <trkpt lat="45.41684" lon="5.90063">
        <ele>1758.39</ele>
        <time>2013-06-30T14:13:49Z</time>
      </trkpt>
      <trkpt lat="45.41682" lon="5.90065">
        <ele>1757.43</ele>
        <time>2013-06-30T14:13:54Z</time>
      </trkpt>
      <trkpt lat="45.41674" lon="5.90072">
        <ele>1754.06</ele>
        <time>2013-06-30T14:14:09Z</time>
      </trkpt>
      <trkpt lat="45.41667" lon="5.90081">
        <ele>1751.66</ele>
        <time>2013-06-30T14:14:23Z</time>
      </trkpt>
      <trkpt lat="45.41662" lon="5.90089">
        <ele>1749.26</ele>
        <time>2013-06-30T14:14:33Z</time>
      </trkpt>
      <trkpt lat="45.41659" lon="5.90094">
        <ele>1747.33</ele>
        <time>2013-06-30T14:14:40Z</time>
      </trkpt>
      <trkpt lat="45.41652" lon="5.90106">
        <ele>1747.33</ele>
        <time>2013-06-30T14:14:53Z</time>
      </trkpt>
      <trkpt lat="45.41649" lon="5.90108">
        <ele>1746.85</ele>
        <time>2013-06-30T14:14:57Z</time>
      </trkpt>
      <trkpt lat="45.41645" lon="5.90117">
        <ele>1745.41</ele>
        <time>2013-06-30T14:15:08Z</time>
      </trkpt>
      <trkpt lat="45.41639" lon="5.90123">
        <ele>1745.41</ele>
        <time>2013-06-30T14:15:22Z</time>
      </trkpt>
      <trkpt lat="45.41632" lon="5.90134">
        <ele>1745.41</ele>
        <time>2013-06-30T14:15:33Z</time>
      </trkpt>
      <trkpt lat="45.41627" lon="5.90144">
        <ele>1745.41</ele>
        <time>2013-06-30T14:15:43Z</time>
      </trkpt>
      <trkpt lat="45.41617" lon="5.90151">
        <ele>1744.45</ele>
        <time>2013-06-30T14:15:55Z</time>
      </trkpt>
      <trkpt lat="45.41611" lon="5.90161">
        <ele>1746.37</ele>
        <time>2013-06-30T14:16:09Z</time>
      </trkpt>
      <trkpt lat="45.41611" lon="5.90164">
        <ele>1746.85</ele>
        <time>2013-06-30T14:16:12Z</time>
      </trkpt>
      <trkpt lat="45.4161" lon="5.90158">
        <ele>1744.93</ele>
        <time>2013-06-30T14:16:25Z</time>
      </trkpt>
      <trkpt lat="45.4161" lon="5.90158">
        <ele>1746.37</ele>
        <time>2013-06-30T14:16:26Z</time>
      </trkpt>
      <trkpt lat="45.4161" lon="5.90157">
        <ele>1744.45</ele>
        <time>2013-06-30T14:16:28Z</time>
      </trkpt>
      <trkpt lat="45.41611" lon="5.90156">
        <ele>1745.89</ele>
        <time>2013-06-30T14:16:31Z</time>
      </trkpt>
      <trkpt lat="45.41612" lon="5.90156">
        <ele>1744.45</ele>
        <time>2013-06-30T14:16:34Z</time>
      </trkpt>
      <trkpt lat="45.41612" lon="5.90155">
        <ele>1747.81</ele>
        <time>2013-06-30T14:16:35Z</time>
      </trkpt>
      <trkpt lat="45.41612" lon="5.90155">
        <ele>1747.81</ele>
        <time>2013-06-30T14:16:36Z</time>
      </trkpt>
      <trkpt lat="45.41612" lon="5.90155">
        <ele>1745.89</ele>
        <time>2013-06-30T14:16:37Z</time>
      </trkpt>
      <trkpt lat="45.41612" lon="5.90155">
        <ele>1745.41</ele>
        <time>2013-06-30T14:17:03Z</time>
      </trkpt>
      <trkpt lat="45.41611" lon="5.90165">
        <ele>1745.41</ele>
        <time>2013-06-30T14:17:32Z</time>
      </trkpt>
      <trkpt lat="45.41614" lon="5.90155">
        <ele>1745.41</ele>
        <time>2013-06-30T14:18:00Z</time>
      </trkpt>
      <trkpt lat="45.41612" lon="5.90138">
        <ele>1745.41</ele>
        <time>2013-06-30T14:18:39Z</time>
      </trkpt>
      <trkpt lat="45.41613" lon="5.90127">
        <ele>1745.41</ele>
        <time>2013-06-30T14:19:24Z</time>
      </trkpt>
      <trkpt lat="45.41615" lon="5.90108">
        <ele>1745.41</ele>
        <time>2013-06-30T14:20:03Z</time>
      </trkpt>
      <trkpt lat="45.41611" lon="5.9009">
        <ele>1745.41</ele>
        <time>2013-06-30T14:20:38Z</time>
      </trkpt>
      <trkpt lat="45.4161" lon="5.90102">
        <ele>1745.41</ele>
        <time>2013-06-30T14:21:03Z</time>
      </trkpt>
      <trkpt lat="45.41613" lon="5.90083">
        <ele>1745.41</ele>
        <time>2013-06-30T14:21:36Z</time>
      </trkpt>
      <trkpt lat="45.41608" lon="5.90081">
        <ele>1745.41</ele>
        <time>2013-06-30T14:22:22Z</time>
      </trkpt>
      <trkpt lat="45.41609" lon="5.90074">
        <ele>1745.41</ele>
        <time>2013-06-30T14:22:56Z</time>
      </trkpt>
      <trkpt lat="45.41604" lon="5.9008">
        <ele>1745.41</ele>
        <time>2013-06-30T14:23:31Z</time>
      </trkpt>
      <trkpt lat="45.41603" lon="5.90076">
        <ele>1745.41</ele>
        <time>2013-06-30T14:24:09Z</time>
      </trkpt>
      <trkpt lat="45.41601" lon="5.90085">
        <ele>1745.41</ele>
        <time>2013-06-30T14:24:37Z</time>
      </trkpt>
      <trkpt lat="45.416" lon="5.90084">
        <ele>1745.41</ele>
        <time>2013-06-30T14:25:16Z</time>
      </trkpt>
      <trkpt lat="45.41601" lon="5.90079">
        <ele>1745.41</ele>
        <time>2013-06-30T14:25:55Z</time>
      </trkpt>
      <trkpt lat="45.41601" lon="5.90076">
        <ele>1745.41</ele>
        <time>2013-06-30T14:26:29Z</time>
      </trkpt>
      <trkpt lat="45.416" lon="5.90074">
        <ele>1745.41</ele>
        <time>2013-06-30T14:27:05Z</time>
      </trkpt>
      <trkpt lat="45.41603" lon="5.90069">
        <ele>1745.41</ele>
        <time>2013-06-30T14:27:33Z</time>
      </trkpt>
      <trkpt lat="45.41603" lon="5.90067">
        <ele>1745.41</ele>
        <time>2013-06-30T14:28:02Z</time>
      </trkpt>
      <trkpt lat="45.41602" lon="5.9007">
        <ele>1745.41</ele>
        <time>2013-06-30T14:28:30Z</time>
      </trkpt>
      <trkpt lat="45.41601" lon="5.90071">
        <ele>1745.41</ele>
        <time>2013-06-30T14:29:03Z</time>
      </trkpt>
      <trkpt lat="45.416" lon="5.90077">
        <ele>1745.41</ele>
        <time>2013-06-30T14:29:34Z</time>
      </trkpt>
      <trkpt lat="45.41596" lon="5.90081">
        <ele>1745.41</ele>
        <time>2013-06-30T14:30:12Z</time>
      </trkpt>
      <trkpt lat="45.41594" lon="5.9008">
        <ele>1745.41</ele>
        <time>2013-06-30T14:30:47Z</time>
      </trkpt>
      <trkpt lat="45.41596" lon="5.90082">
        <ele>1745.41</ele>
        <time>2013-06-30T14:31:28Z</time>
      </trkpt>
      <trkpt lat="45.41596" lon="5.90085">
        <ele>1745.41</ele>
        <time>2013-06-30T14:32:02Z</time>
      </trkpt>
      <trkpt lat="45.41592" lon="5.90102">
        <ele>1745.41</ele>
        <time>2013-06-30T14:32:37Z</time>
      </trkpt>
      <trkpt lat="45.41588" lon="5.90123">
        <ele>1746.37</ele>
        <time>2013-06-30T14:33:15Z</time>
      </trkpt>
      <trkpt lat="45.41591" lon="5.90103">
        <ele>1746.37</ele>
        <time>2013-06-30T14:33:55Z</time>
      </trkpt>
      <trkpt lat="45.41597" lon="5.90069">
        <ele>1746.37</ele>
        <time>2013-06-30T14:34:29Z</time>
      </trkpt>
      <trkpt lat="45.4159" lon="5.90084">
        <ele>1746.37</ele>
        <time>2013-06-30T14:35:02Z</time>
      </trkpt>
      <trkpt lat="45.41591" lon="5.90094">
        <ele>1746.37</ele>
        <time>2013-06-30T14:35:31Z</time>
      </trkpt>
      <trkpt lat="45.41591" lon="5.9009">
        <ele>1746.37</ele>
        <time>2013-06-30T14:36:02Z</time>
      </trkpt>
      <trkpt lat="45.41599" lon="5.90041">
        <ele>1747.81</ele>
        <time>2013-06-30T14:36:31Z</time>
      </trkpt>
      <trkpt lat="45.41599" lon="5.90041">
        <ele>1747.81</ele>
        <time>2013-06-30T14:36:32Z</time>
      </trkpt>
      <trkpt lat="45.41599" lon="5.90043">
        <ele>1743.49</ele>
        <time>2013-06-30T14:36:36Z</time>
      </trkpt>
      <trkpt lat="45.41598" lon="5.90045">
        <ele>1743.49</ele>
        <time>2013-06-30T14:36:37Z</time>
      </trkpt>
      <trkpt lat="45.41598" lon="5.90047">
        <ele>1746.37</ele>
        <time>2013-06-30T14:36:38Z</time>
      </trkpt>
      <trkpt lat="45.41589" lon="5.90079">
        <ele>1746.37</ele>
        <time>2013-06-30T14:36:59Z</time>
      </trkpt>
      <trkpt lat="45.41593" lon="5.90118">
        <ele>1746.37</ele>
        <time>2013-06-30T14:37:11Z</time>
      </trkpt>
      <trkpt lat="45.41594" lon="5.90124">
        <ele>1746.37</ele>
        <time>2013-06-30T14:37:32Z</time>
      </trkpt>
      <trkpt lat="45.41602" lon="5.9014">
        <ele>1745.41</ele>
        <time>2013-06-30T14:37:45Z</time>
      </trkpt>
      <trkpt lat="45.41611" lon="5.90151">
        <ele>1745.41</ele>
        <time>2013-06-30T14:37:57Z</time>
      </trkpt>
      <trkpt lat="45.41618" lon="5.9015">
        <ele>1744.93</ele>
        <time>2013-06-30T14:38:10Z</time>
      </trkpt>
      <trkpt lat="45.41626" lon="5.90148">
        <ele>1744.93</ele>
        <time>2013-06-30T14:38:21Z</time>
      </trkpt>
      <trkpt lat="45.4163" lon="5.90142">
        <ele>1745.41</ele>
        <time>2013-06-30T14:38:28Z</time>
      </trkpt>
      <trkpt lat="45.41639" lon="5.9013">
        <ele>1745.41</ele>
        <time>2013-06-30T14:38:43Z</time>
      </trkpt>
      <trkpt lat="45.41643" lon="5.90125">
        <ele>1746.37</ele>
        <time>2013-06-30T14:38:52Z</time>
      </trkpt>
      <trkpt lat="45.4165" lon="5.90119">
        <ele>1746.37</ele>
        <time>2013-06-30T14:39:04Z</time>
      </trkpt>
      <trkpt lat="45.4165" lon="5.90118">
        <ele>1746.85</ele>
        <time>2013-06-30T14:39:05Z</time>
      </trkpt>
      <trkpt lat="45.4165" lon="5.90117">
        <ele>1745.41</ele>
        <time>2013-06-30T14:39:15Z</time>
      </trkpt>
      <trkpt lat="45.41652" lon="5.90114">
        <ele>1747.33</ele>
        <time>2013-06-30T14:39:30Z</time>
      </trkpt>
      <trkpt lat="45.41656" lon="5.90113">
        <ele>1747.33</ele>
        <time>2013-06-30T14:39:35Z</time>
      </trkpt>
      <trkpt lat="45.41666" lon="5.90111">
        <ele>1749.26</ele>
        <time>2013-06-30T14:39:48Z</time>
      </trkpt>
      <trkpt lat="45.41671" lon="5.90109">
        <ele>1749.74</ele>
        <time>2013-06-30T14:39:57Z</time>
      </trkpt>
      <trkpt lat="45.41675" lon="5.90105">
        <ele>1751.18</ele>
        <time>2013-06-30T14:40:02Z</time>
      </trkpt>
      <trkpt lat="45.41681" lon="5.90103">
        <ele>1752.62</ele>
        <time>2013-06-30T14:40:09Z</time>
      </trkpt>
      <trkpt lat="45.41687" lon="5.90097">
        <ele>1754.54</ele>
        <time>2013-06-30T14:40:21Z</time>
      </trkpt>
      <trkpt lat="45.41691" lon="5.90091">
        <ele>1757.43</ele>
        <time>2013-06-30T14:40:32Z</time>
      </trkpt>
      <trkpt lat="45.41692" lon="5.9009">
        <ele>1757.43</ele>
        <time>2013-06-30T14:40:33Z</time>
      </trkpt>
      <trkpt lat="45.41695" lon="5.90087">
        <ele>1757.91</ele>
        <time>2013-06-30T14:40:37Z</time>
      </trkpt>
      <trkpt lat="45.41701" lon="5.90084">
        <ele>1759.83</ele>
        <time>2013-06-30T14:40:48Z</time>
      </trkpt>
      <trkpt lat="45.41702" lon="5.9008">
        <ele>1759.83</ele>
        <time>2013-06-30T14:41:01Z</time>
      </trkpt>
      <trkpt lat="45.41703" lon="5.9008">
        <ele>1758.39</ele>
        <time>2013-06-30T14:41:09Z</time>
      </trkpt>
      <trkpt lat="45.4171" lon="5.90084">
        <ele>1758.39</ele>
        <time>2013-06-30T14:41:21Z</time>
      </trkpt>
      <trkpt lat="45.41713" lon="5.90085">
        <ele>1758.39</ele>
        <time>2013-06-30T14:41:25Z</time>
      </trkpt>
      <trkpt lat="45.41723" lon="5.90082">
        <ele>1759.83</ele>
        <time>2013-06-30T14:41:34Z</time>
      </trkpt>
      <trkpt lat="45.41725" lon="5.90081">
        <ele>1759.83</ele>
        <time>2013-06-30T14:41:36Z</time>
      </trkpt>
      <trkpt lat="45.41729" lon="5.9008">
        <ele>1760.79</ele>
        <time>2013-06-30T14:41:44Z</time>
      </trkpt>
      <trkpt lat="45.41733" lon="5.90083">
        <ele>1763.2</ele>
        <time>2013-06-30T14:41:57Z</time>
      </trkpt>
      <trkpt lat="45.41743" lon="5.90082">
        <ele>1764.64</ele>
        <time>2013-06-30T14:42:09Z</time>
      </trkpt>
      <trkpt lat="45.41747" lon="5.9008">
        <ele>1765.12</ele>
        <time>2013-06-30T14:42:13Z</time>
      </trkpt>
      <trkpt lat="45.41752" lon="5.90079">
        <ele>1765.6</ele>
        <time>2013-06-30T14:42:17Z</time>
      </trkpt>
      <trkpt lat="45.41756" lon="5.90076">
        <ele>1766.56</ele>
        <time>2013-06-30T14:42:22Z</time>
      </trkpt>
      <trkpt lat="45.41763" lon="5.90076">
        <ele>1767.04</ele>
        <time>2013-06-30T14:42:28Z</time>
      </trkpt>
      <trkpt lat="45.41769" lon="5.90076">
        <ele>1767.04</ele>
        <time>2013-06-30T14:42:33Z</time>
      </trkpt>
      <trkpt lat="45.41782" lon="5.90069">
        <ele>1768.48</ele>
        <time>2013-06-30T14:42:48Z</time>
      </trkpt>
      <trkpt lat="45.41789" lon="5.90067">
        <ele>1769.44</ele>
        <time>2013-06-30T14:42:58Z</time>
      </trkpt>
      <trkpt lat="45.41794" lon="5.90065">
        <ele>1770.41</ele>
        <time>2013-06-30T14:43:02Z</time>
      </trkpt>
      <trkpt lat="45.41805" lon="5.90061">
        <ele>1772.33</ele>
        <time>2013-06-30T14:43:15Z</time>
      </trkpt>
      <trkpt lat="45.41814" lon="5.90055">
        <ele>1774.73</ele>
        <time>2013-06-30T14:43:28Z</time>
      </trkpt>
      <trkpt lat="45.41823" lon="5.90047">
        <ele>1775.69</ele>
        <time>2013-06-30T14:43:42Z</time>
      </trkpt>
      <trkpt lat="45.41827" lon="5.90041">
        <ele>1778.1</ele>
        <time>2013-06-30T14:43:50Z</time>
      </trkpt>
      <trkpt lat="45.41831" lon="5.90032">
        <ele>1778.1</ele>
        <time>2013-06-30T14:43:58Z</time>
      </trkpt>
      <trkpt lat="45.41833" lon="5.9003">
        <ele>1778.1</ele>
        <time>2013-06-30T14:44:01Z</time>
      </trkpt>
      <trkpt lat="45.41833" lon="5.90009">
        <ele>1779.54</ele>
        <time>2013-06-30T14:44:13Z</time>
      </trkpt>
      <trkpt lat="45.41833" lon="5.90005">
        <ele>1780.5</ele>
        <time>2013-06-30T14:44:24Z</time>
      </trkpt>
      <trkpt lat="45.41833" lon="5.90003">
        <ele>1778.58</ele>
        <time>2013-06-30T14:44:30Z</time>
      </trkpt>
      <trkpt lat="45.41838" lon="5.90008">
        <ele>1779.06</ele>
        <time>2013-06-30T14:44:39Z</time>
      </trkpt>
      <trkpt lat="45.4184" lon="5.90014">
        <ele>1778.58</ele>
        <time>2013-06-30T14:44:44Z</time>
      </trkpt>
      <trkpt lat="45.41844" lon="5.9002">
        <ele>1778.58</ele>
        <time>2013-06-30T14:44:51Z</time>
      </trkpt>
      <trkpt lat="45.41843" lon="5.90026">
        <ele>1778.58</ele>
        <time>2013-06-30T14:44:55Z</time>
      </trkpt>
      <trkpt lat="45.4185" lon="5.90043">
        <ele>1778.58</ele>
        <time>2013-06-30T14:45:08Z</time>
      </trkpt>
      <trkpt lat="45.41852" lon="5.90048">
        <ele>1778.1</ele>
        <time>2013-06-30T14:45:12Z</time>
      </trkpt>
      <trkpt lat="45.41858" lon="5.90064">
        <ele>1777.13</ele>
        <time>2013-06-30T14:45:26Z</time>
      </trkpt>
      <trkpt lat="45.41862" lon="5.90071">
        <ele>1775.69</ele>
        <time>2013-06-30T14:45:32Z</time>
      </trkpt>
      <trkpt lat="45.41866" lon="5.90079">
        <ele>1775.69</ele>
        <time>2013-06-30T14:45:36Z</time>
      </trkpt>
      <trkpt lat="45.41875" lon="5.90085">
        <ele>1773.77</ele>
        <time>2013-06-30T14:45:48Z</time>
      </trkpt>
      <trkpt lat="45.41877" lon="5.90085">
        <ele>1773.29</ele>
        <time>2013-06-30T14:45:51Z</time>
      </trkpt>
      <trkpt lat="45.41883" lon="5.90093">
        <ele>1772.81</ele>
        <time>2013-06-30T14:45:59Z</time>
      </trkpt>
      <trkpt lat="45.41884" lon="5.90095">
        <ele>1772.81</ele>
        <time>2013-06-30T14:46:01Z</time>
      </trkpt>
      <trkpt lat="45.41891" lon="5.901">
        <ele>1771.85</ele>
        <time>2013-06-30T14:46:08Z</time>
      </trkpt>
      <trkpt lat="45.41905" lon="5.90106">
        <ele>1771.37</ele>
        <time>2013-06-30T14:46:21Z</time>
      </trkpt>
      <trkpt lat="45.41911" lon="5.90107">
        <ele>1769.44</ele>
        <time>2013-06-30T14:46:31Z</time>
      </trkpt>
      <trkpt lat="45.41915" lon="5.90106">
        <ele>1768.96</ele>
        <time>2013-06-30T14:46:35Z</time>
      </trkpt>
      <trkpt lat="45.41922" lon="5.90108">
        <ele>1768.96</ele>
        <time>2013-06-30T14:46:43Z</time>
      </trkpt>
      <trkpt lat="45.41927" lon="5.90109">
        <ele>1769.44</ele>
        <time>2013-06-30T14:46:48Z</time>
      </trkpt>
      <trkpt lat="45.4193" lon="5.90112">
        <ele>1770.41</ele>
        <time>2013-06-30T14:46:54Z</time>
      </trkpt>
      <trkpt lat="45.41936" lon="5.90114">
        <ele>1770.89</ele>
        <time>2013-06-30T14:47:05Z</time>
      </trkpt>
      <trkpt lat="45.41937" lon="5.90113">
        <ele>1770.89</ele>
        <time>2013-06-30T14:47:06Z</time>
      </trkpt>
      <trkpt lat="45.41946" lon="5.90115">
        <ele>1770.89</ele>
        <time>2013-06-30T14:47:15Z</time>
      </trkpt>
      <trkpt lat="45.4195" lon="5.90116">
        <ele>1771.37</ele>
        <time>2013-06-30T14:47:18Z</time>
      </trkpt>
      <trkpt lat="45.41954" lon="5.90116">
        <ele>1770.41</ele>
        <time>2013-06-30T14:47:32Z</time>
      </trkpt>
      <trkpt lat="45.41954" lon="5.90114">
        <ele>1768.48</ele>
        <time>2013-06-30T14:47:38Z</time>
      </trkpt>
      <trkpt lat="45.41956" lon="5.9011">
        <ele>1766.08</ele>
        <time>2013-06-30T14:47:50Z</time>
      </trkpt>
      <trkpt lat="45.41954" lon="5.90106">
        <ele>1763.68</ele>
        <time>2013-06-30T14:48:00Z</time>
      </trkpt>
      <trkpt lat="45.41955" lon="5.901">
        <ele>1760.79</ele>
        <time>2013-06-30T14:48:11Z</time>
      </trkpt>
      <trkpt lat="45.41954" lon="5.90097">
        <ele>1759.35</ele>
        <time>2013-06-30T14:48:21Z</time>
      </trkpt>
      <trkpt lat="45.41947" lon="5.90094">
        <ele>1757.91</ele>
        <time>2013-06-30T14:48:28Z</time>
      </trkpt>
      <trkpt lat="45.41935" lon="5.90089">
        <ele>1756.47</ele>
        <time>2013-06-30T14:48:42Z</time>
      </trkpt>
      <trkpt lat="45.41925" lon="5.90081">
        <ele>1753.58</ele>
        <time>2013-06-30T14:48:56Z</time>
      </trkpt>
      <trkpt lat="45.41923" lon="5.90078">
        <ele>1752.14</ele>
        <time>2013-06-30T14:49:01Z</time>
      </trkpt>
      <trkpt lat="45.41931" lon="5.90073">
        <ele>1749.26</ele>
        <time>2013-06-30T14:49:13Z</time>
      </trkpt>
      <trkpt lat="45.41934" lon="5.90072">
        <ele>1748.29</ele>
        <time>2013-06-30T14:49:17Z</time>
      </trkpt>
      <trkpt lat="45.41938" lon="5.90071">
        <ele>1746.85</ele>
        <time>2013-06-30T14:49:22Z</time>
      </trkpt>
      <trkpt lat="45.41948" lon="5.90071">
        <ele>1743.97</ele>
        <time>2013-06-30T14:49:34Z</time>
      </trkpt>
      <trkpt lat="45.41954" lon="5.90066">
        <ele>1741.08</ele>
        <time>2013-06-30T14:49:45Z</time>
      </trkpt>
      <trkpt lat="45.41959" lon="5.90058">
        <ele>1737.72</ele>
        <time>2013-06-30T14:49:57Z</time>
      </trkpt>
      <trkpt lat="45.41961" lon="5.90055">
        <ele>1735.8</ele>
        <time>2013-06-30T14:50:03Z</time>
      </trkpt>
      <trkpt lat="45.41959" lon="5.90051">
        <ele>1732.43</ele>
        <time>2013-06-30T14:50:13Z</time>
      </trkpt>
      <trkpt lat="45.4196" lon="5.9005">
        <ele>1732.43</ele>
        <time>2013-06-30T14:50:14Z</time>
      </trkpt>
      <trkpt lat="45.41962" lon="5.90048">
        <ele>1730.99</ele>
        <time>2013-06-30T14:50:17Z</time>
      </trkpt>
      <trkpt lat="45.41963" lon="5.90044">
        <ele>1729.07</ele>
        <time>2013-06-30T14:50:22Z</time>
      </trkpt>
      <trkpt lat="45.41963" lon="5.90035">
        <ele>1725.22</ele>
        <time>2013-06-30T14:50:35Z</time>
      </trkpt>
      <trkpt lat="45.4196" lon="5.90032">
        <ele>1721.86</ele>
        <time>2013-06-30T14:50:43Z</time>
      </trkpt>
      <trkpt lat="45.41957" lon="5.90031">
        <ele>1719.94</ele>
        <time>2013-06-30T14:50:57Z</time>
      </trkpt>
      <trkpt lat="45.41955" lon="5.90031">
        <ele>1719.46</ele>
        <time>2013-06-30T14:50:59Z</time>
      </trkpt>
      <trkpt lat="45.4195" lon="5.90029">
        <ele>1716.57</ele>
        <time>2013-06-30T14:51:08Z</time>
      </trkpt>
      <trkpt lat="45.4195" lon="5.90029">
        <ele>1716.57</ele>
        <time>2013-06-30T14:51:20Z</time>
      </trkpt>
      <trkpt lat="45.41945" lon="5.90025">
        <ele>1715.13</ele>
        <time>2013-06-30T14:51:29Z</time>
      </trkpt>
      <trkpt lat="45.41935" lon="5.90019">
        <ele>1713.69</ele>
        <time>2013-06-30T14:51:41Z</time>
      </trkpt>
      <trkpt lat="45.41931" lon="5.90014">
        <ele>1711.76</ele>
        <time>2013-06-30T14:51:52Z</time>
      </trkpt>
      <trkpt lat="45.4193" lon="5.9001">
        <ele>1709.36</ele>
        <time>2013-06-30T14:52:00Z</time>
      </trkpt>
      <trkpt lat="45.41933" lon="5.90009">
        <ele>1707.44</ele>
        <time>2013-06-30T14:52:09Z</time>
      </trkpt>
      <trkpt lat="45.41942" lon="5.90012">
        <ele>1707.44</ele>
        <time>2013-06-30T14:52:23Z</time>
      </trkpt>
      <trkpt lat="45.41945" lon="5.90012">
        <ele>1707.44</ele>
        <time>2013-06-30T14:52:34Z</time>
      </trkpt>
      <trkpt lat="45.41951" lon="5.9001">
        <ele>1705.52</ele>
        <time>2013-06-30T14:52:47Z</time>
      </trkpt>
      <trkpt lat="45.41954" lon="5.90006">
        <ele>1703.59</ele>
        <time>2013-06-30T14:52:55Z</time>
      </trkpt>
      <trkpt lat="45.41954" lon="5.90003">
        <ele>1702.63</ele>
        <time>2013-06-30T14:52:59Z</time>
      </trkpt>
      <trkpt lat="45.41954" lon="5.89998">
        <ele>1699.27</ele>
        <time>2013-06-30T14:53:10Z</time>
      </trkpt>
      <trkpt lat="45.41954" lon="5.89997">
        <ele>1698.79</ele>
        <time>2013-06-30T14:53:11Z</time>
      </trkpt>
      <trkpt lat="45.41956" lon="5.89992">
        <ele>1695.9</ele>
        <time>2013-06-30T14:53:20Z</time>
      </trkpt>
      <trkpt lat="45.4195" lon="5.89987">
        <ele>1692.54</ele>
        <time>2013-06-30T14:53:31Z</time>
      </trkpt>
      <trkpt lat="45.41952" lon="5.89983">
        <ele>1690.14</ele>
        <time>2013-06-30T14:53:41Z</time>
      </trkpt>
      <trkpt lat="45.41956" lon="5.8998">
        <ele>1688.21</ele>
        <time>2013-06-30T14:53:49Z</time>
      </trkpt>
      <trkpt lat="45.41959" lon="5.89973">
        <ele>1685.81</ele>
        <time>2013-06-30T14:53:58Z</time>
      </trkpt>
      <trkpt lat="45.4196" lon="5.89971">
        <ele>1684.37</ele>
        <time>2013-06-30T14:54:00Z</time>
      </trkpt>
      <trkpt lat="45.41965" lon="5.89964">
        <ele>1681.48</ele>
        <time>2013-06-30T14:54:13Z</time>
      </trkpt>
      <trkpt lat="45.41964" lon="5.89963">
        <ele>1680.52</ele>
        <time>2013-06-30T14:54:16Z</time>
      </trkpt>
      <trkpt lat="45.41962" lon="5.89955">
        <ele>1677.16</ele>
        <time>2013-06-30T14:54:27Z</time>
      </trkpt>
      <trkpt lat="45.41961" lon="5.89951">
        <ele>1674.27</ele>
        <time>2013-06-30T14:54:40Z</time>
      </trkpt>
      <trkpt lat="45.41959" lon="5.89948">
        <ele>1671.39</ele>
        <time>2013-06-30T14:54:49Z</time>
      </trkpt>
      <trkpt lat="45.41958" lon="5.89945">
        <ele>1670.43</ele>
        <time>2013-06-30T14:55:02Z</time>
      </trkpt>
      <trkpt lat="45.41955" lon="5.89945">
        <ele>1669.47</ele>
        <time>2013-06-30T14:55:12Z</time>
      </trkpt>
      <trkpt lat="45.41953" lon="5.89944">
        <ele>1669.47</ele>
        <time>2013-06-30T14:55:18Z</time>
      </trkpt>
      <trkpt lat="45.41951" lon="5.89946">
        <ele>1669.47</ele>
        <time>2013-06-30T14:55:21Z</time>
      </trkpt>
      <trkpt lat="45.41952" lon="5.89946">
        <ele>1667.54</ele>
        <time>2013-06-30T14:55:24Z</time>
      </trkpt>
      <trkpt lat="45.41952" lon="5.89947">
        <ele>1668.02</ele>
        <time>2013-06-30T14:55:39Z</time>
      </trkpt>
      <trkpt lat="45.41951" lon="5.89946">
        <ele>1667.54</ele>
        <time>2013-06-30T14:56:09Z</time>
      </trkpt>
      <trkpt lat="45.4195" lon="5.89947">
        <ele>1669.47</ele>
        <time>2013-06-30T14:56:32Z</time>
      </trkpt>
      <trkpt lat="45.41951" lon="5.89947">
        <ele>1668.02</ele>
        <time>2013-06-30T14:56:34Z</time>
      </trkpt>
      <trkpt lat="45.41951" lon="5.89946">
        <ele>1669.47</ele>
        <time>2013-06-30T14:56:51Z</time>
      </trkpt>
      <trkpt lat="45.4195" lon="5.89944">
        <ele>1668.02</ele>
        <time>2013-06-30T14:57:02Z</time>
      </trkpt>
      <trkpt lat="45.41946" lon="5.89941">
        <ele>1666.58</ele>
        <time>2013-06-30T14:57:12Z</time>
      </trkpt>
      <trkpt lat="45.41946" lon="5.8994">
        <ele>1666.1</ele>
        <time>2013-06-30T14:57:26Z</time>
      </trkpt>
      <trkpt lat="45.41948" lon="5.89937">
        <ele>1664.66</ele>
        <time>2013-06-30T14:57:31Z</time>
      </trkpt>
      <trkpt lat="45.41957" lon="5.89934">
        <ele>1662.74</ele>
        <time>2013-06-30T14:57:44Z</time>
      </trkpt>
      <trkpt lat="45.41964" lon="5.8993">
        <ele>1660.81</ele>
        <time>2013-06-30T14:57:53Z</time>
      </trkpt>
      <trkpt lat="45.41957" lon="5.89927">
        <ele>1657.93</ele>
        <time>2013-06-30T14:58:06Z</time>
      </trkpt>
      <trkpt lat="45.41948" lon="5.89923">
        <ele>1655.05</ele>
        <time>2013-06-30T14:58:20Z</time>
      </trkpt>
      <trkpt lat="45.41948" lon="5.89923">
        <ele>1655.05</ele>
        <time>2013-06-30T14:58:21Z</time>
      </trkpt>
      <trkpt lat="45.41946" lon="5.89919">
        <ele>1654.57</ele>
        <time>2013-06-30T14:58:33Z</time>
      </trkpt>
      <trkpt lat="45.4195" lon="5.89921">
        <ele>1654.57</ele>
        <time>2013-06-30T14:58:49Z</time>
      </trkpt>
      <trkpt lat="45.41948" lon="5.89918">
        <ele>1654.09</ele>
        <time>2013-06-30T14:58:59Z</time>
      </trkpt>
      <trkpt lat="45.41946" lon="5.89913">
        <ele>1652.64</ele>
        <time>2013-06-30T14:59:09Z</time>
      </trkpt>
      <trkpt lat="45.41949" lon="5.89911">
        <ele>1652.16</ele>
        <time>2013-06-30T14:59:15Z</time>
      </trkpt>
      <trkpt lat="45.41947" lon="5.89908">
        <ele>1650.72</ele>
        <time>2013-06-30T14:59:25Z</time>
      </trkpt>
      <trkpt lat="45.41955" lon="5.89906">
        <ele>1649.76</ele>
        <time>2013-06-30T14:59:39Z</time>
      </trkpt>
      <trkpt lat="45.41952" lon="5.89904">
        <ele>1649.28</ele>
        <time>2013-06-30T14:59:53Z</time>
      </trkpt>
      <trkpt lat="45.41941" lon="5.89901">
        <ele>1649.28</ele>
        <time>2013-06-30T15:00:11Z</time>
      </trkpt>
      <trkpt lat="45.41939" lon="5.89901">
        <ele>1647.84</ele>
        <time>2013-06-30T15:00:25Z</time>
      </trkpt>
      <trkpt lat="45.41935" lon="5.899">
        <ele>1647.84</ele>
        <time>2013-06-30T15:00:41Z</time>
      </trkpt>
      <trkpt lat="45.41946" lon="5.899">
        <ele>1648.8</ele>
        <time>2013-06-30T15:01:10Z</time>
      </trkpt>
      <trkpt lat="45.41944" lon="5.89898">
        <ele>1648.8</ele>
        <time>2013-06-30T15:01:38Z</time>
      </trkpt>
      <trkpt lat="45.4194" lon="5.89898">
        <ele>1647.36</ele>
        <time>2013-06-30T15:01:46Z</time>
      </trkpt>
      <trkpt lat="45.41937" lon="5.89899">
        <ele>1648.32</ele>
        <time>2013-06-30T15:01:51Z</time>
      </trkpt>
      <trkpt lat="45.41938" lon="5.89899">
        <ele>1650.72</ele>
        <time>2013-06-30T15:02:16Z</time>
      </trkpt>
      <trkpt lat="45.41942" lon="5.899">
        <ele>1648.8</ele>
        <time>2013-06-30T15:02:18Z</time>
      </trkpt>
      <trkpt lat="45.41944" lon="5.89905">
        <ele>1647.84</ele>
        <time>2013-06-30T15:02:45Z</time>
      </trkpt>
      <trkpt lat="45.4195" lon="5.89906">
        <ele>1648.8</ele>
        <time>2013-06-30T15:03:08Z</time>
      </trkpt>
      <trkpt lat="45.41945" lon="5.89902">
        <ele>1648.8</ele>
        <time>2013-06-30T15:03:39Z</time>
      </trkpt>
      <trkpt lat="45.41948" lon="5.89905">
        <ele>1648.8</ele>
        <time>2013-06-30T15:04:07Z</time>
      </trkpt>
      <trkpt lat="45.41949" lon="5.89906">
        <ele>1648.8</ele>
        <time>2013-06-30T15:04:37Z</time>
      </trkpt>
      <trkpt lat="45.4196" lon="5.89904">
        <ele>1648.8</ele>
        <time>2013-06-30T15:05:02Z</time>
      </trkpt>
      <trkpt lat="45.4195" lon="5.89903">
        <ele>1648.8</ele>
        <time>2013-06-30T15:05:27Z</time>
      </trkpt>
      <trkpt lat="45.41941" lon="5.89897">
        <ele>1648.8</ele>
        <time>2013-06-30T15:05:54Z</time>
      </trkpt>
      <trkpt lat="45.41942" lon="5.89897">
        <ele>1648.8</ele>
        <time>2013-06-30T15:06:15Z</time>
      </trkpt>
      <trkpt lat="45.41943" lon="5.899">
        <ele>1648.8</ele>
        <time>2013-06-30T15:06:44Z</time>
      </trkpt>
      <trkpt lat="45.41945" lon="5.89902">
        <ele>1648.8</ele>
        <time>2013-06-30T15:07:10Z</time>
      </trkpt>
      <trkpt lat="45.41942" lon="5.89902">
        <ele>1648.8</ele>
        <time>2013-06-30T15:07:35Z</time>
      </trkpt>
      <trkpt lat="45.4194" lon="5.89899">
        <ele>1648.8</ele>
        <time>2013-06-30T15:08:03Z</time>
      </trkpt>
      <trkpt lat="45.41938" lon="5.89896">
        <ele>1648.8</ele>
        <time>2013-06-30T15:08:34Z</time>
      </trkpt>
      <trkpt lat="45.41939" lon="5.89895">
        <ele>1648.8</ele>
        <time>2013-06-30T15:09:00Z</time>
      </trkpt>
      <trkpt lat="45.41942" lon="5.89896">
        <ele>1649.28</ele>
        <time>2013-06-30T15:09:29Z</time>
      </trkpt>
      <trkpt lat="45.41932" lon="5.89901">
        <ele>1649.28</ele>
        <time>2013-06-30T15:10:00Z</time>
      </trkpt>
      <trkpt lat="45.41929" lon="5.899">
        <ele>1649.28</ele>
        <time>2013-06-30T15:10:30Z</time>
      </trkpt>
      <trkpt lat="45.41929" lon="5.89899">
        <ele>1649.28</ele>
        <time>2013-06-30T15:10:57Z</time>
      </trkpt>
      <trkpt lat="45.41926" lon="5.89897">
        <ele>1649.28</ele>
        <time>2013-06-30T15:11:27Z</time>
      </trkpt>
      <trkpt lat="45.41922" lon="5.89899">
        <ele>1649.28</ele>
        <time>2013-06-30T15:12:02Z</time>
      </trkpt>
      <trkpt lat="45.41924" lon="5.899">
        <ele>1649.76</ele>
        <time>2013-06-30T15:12:37Z</time>
      </trkpt>
      <trkpt lat="45.4193" lon="5.89897">
        <ele>1649.76</ele>
        <time>2013-06-30T15:13:06Z</time>
      </trkpt>
      <trkpt lat="45.41932" lon="5.89901">
        <ele>1649.76</ele>
        <time>2013-06-30T15:13:40Z</time>
      </trkpt>
      <trkpt lat="45.41933" lon="5.89902">
        <ele>1649.76</ele>
        <time>2013-06-30T15:14:09Z</time>
      </trkpt>
      <trkpt lat="45.41932" lon="5.89902">
        <ele>1650.24</ele>
        <time>2013-06-30T15:14:46Z</time>
      </trkpt>
      <trkpt lat="45.41933" lon="5.89903">
        <ele>1650.24</ele>
        <time>2013-06-30T15:15:22Z</time>
      </trkpt>
      <trkpt lat="45.41931" lon="5.89901">
        <ele>1650.72</ele>
        <time>2013-06-30T15:16:02Z</time>
      </trkpt>
      <trkpt lat="45.41931" lon="5.899">
        <ele>1651.2</ele>
        <time>2013-06-30T15:16:06Z</time>
      </trkpt>
      <trkpt lat="45.41932" lon="5.899">
        <ele>1647.36</ele>
        <time>2013-06-30T15:16:08Z</time>
      </trkpt>
      <trkpt lat="45.41932" lon="5.89899">
        <ele>1652.64</ele>
        <time>2013-06-30T15:16:12Z</time>
      </trkpt>
      <trkpt lat="45.41933" lon="5.89899">
        <ele>1648.32</ele>
        <time>2013-06-30T15:16:13Z</time>
      </trkpt>
      <trkpt lat="45.41933" lon="5.89899">
        <ele>1648.32</ele>
        <time>2013-06-30T15:16:14Z</time>
      </trkpt>
      <trkpt lat="45.41933" lon="5.89897">
        <ele>1650.24</ele>
        <time>2013-06-30T15:16:18Z</time>
      </trkpt>
      <trkpt lat="45.41932" lon="5.89896">
        <ele>1648.8</ele>
        <time>2013-06-30T15:16:20Z</time>
      </trkpt>
      <trkpt lat="45.41932" lon="5.89896">
        <ele>1650.24</ele>
        <time>2013-06-30T15:16:23Z</time>
      </trkpt>
      <trkpt lat="45.41932" lon="5.89897">
        <ele>1649.76</ele>
        <time>2013-06-30T15:16:29Z</time>
      </trkpt>
      <trkpt lat="45.41931" lon="5.89898">
        <ele>1649.76</ele>
        <time>2013-06-30T15:17:02Z</time>
      </trkpt>
      <trkpt lat="45.41941" lon="5.89899">
        <ele>1648.32</ele>
        <time>2013-06-30T15:17:16Z</time>
      </trkpt>
      <trkpt lat="45.41941" lon="5.89899">
        <ele>1649.76</ele>
        <time>2013-06-30T15:17:18Z</time>
      </trkpt>
      <trkpt lat="45.4194" lon="5.89897">
        <ele>1653.6</ele>
        <time>2013-06-30T15:17:24Z</time>
      </trkpt>
      <trkpt lat="45.41941" lon="5.89898">
        <ele>1651.2</ele>
        <time>2013-06-30T15:17:25Z</time>
      </trkpt>
      <trkpt lat="45.41942" lon="5.89895">
        <ele>1651.2</ele>
        <time>2013-06-30T15:17:38Z</time>
      </trkpt>
      <trkpt lat="45.41941" lon="5.89895">
        <ele>1650.24</ele>
        <time>2013-06-30T15:17:57Z</time>
      </trkpt>
      <trkpt lat="45.4194" lon="5.89897">
        <ele>1649.28</ele>
        <time>2013-06-30T15:18:11Z</time>
      </trkpt>
      <trkpt lat="45.41942" lon="5.89897">
        <ele>1648.32</ele>
        <time>2013-06-30T15:18:26Z</time>
      </trkpt>
      <trkpt lat="45.41943" lon="5.89893">
        <ele>1646.88</ele>
        <time>2013-06-30T15:18:44Z</time>
      </trkpt>
      <trkpt lat="45.41944" lon="5.89892">
        <ele>1645.91</ele>
        <time>2013-06-30T15:18:57Z</time>
      </trkpt>
      <trkpt lat="45.41944" lon="5.89891">
        <ele>1645.91</ele>
        <time>2013-06-30T15:19:10Z</time>
      </trkpt>
      <trkpt lat="45.41942" lon="5.89892">
        <ele>1645.43</ele>
        <time>2013-06-30T15:19:24Z</time>
      </trkpt>
      <trkpt lat="45.41944" lon="5.89891">
        <ele>1644.47</ele>
        <time>2013-06-30T15:19:39Z</time>
      </trkpt>
      <trkpt lat="45.41944" lon="5.89892">
        <ele>1640.63</ele>
        <time>2013-06-30T15:19:49Z</time>
      </trkpt>
      <trkpt lat="45.41944" lon="5.89892">
        <ele>1640.63</ele>
        <time>2013-06-30T15:19:50Z</time>
      </trkpt>
      <trkpt lat="45.41943" lon="5.89892">
        <ele>1643.51</ele>
        <time>2013-06-30T15:19:52Z</time>
      </trkpt>
      <trkpt lat="45.41948" lon="5.89895">
        <ele>1643.03</ele>
        <time>2013-06-30T15:20:17Z</time>
      </trkpt>
      <trkpt lat="45.41947" lon="5.89896">
        <ele>1645.43</ele>
        <time>2013-06-30T15:20:24Z</time>
      </trkpt>
      <trkpt lat="45.41948" lon="5.89896">
        <ele>1643.99</ele>
        <time>2013-06-30T15:20:26Z</time>
      </trkpt>
      <trkpt lat="45.41951" lon="5.89892">
        <ele>1643.99</ele>
        <time>2013-06-30T15:20:53Z</time>
      </trkpt>
      <trkpt lat="45.41952" lon="5.89893">
        <ele>1643.99</ele>
        <time>2013-06-30T15:21:24Z</time>
      </trkpt>
      <trkpt lat="45.41947" lon="5.89888">
        <ele>1643.99</ele>
        <time>2013-06-30T15:21:41Z</time>
      </trkpt>
      <trkpt lat="45.41947" lon="5.89891">
        <ele>1645.43</ele>
        <time>2013-06-30T15:21:59Z</time>
      </trkpt>
      <trkpt lat="45.41948" lon="5.89894">
        <ele>1645.43</ele>
        <time>2013-06-30T15:22:28Z</time>
      </trkpt>
      <trkpt lat="45.4195" lon="5.8989">
        <ele>1643.99</ele>
        <time>2013-06-30T15:22:51Z</time>
      </trkpt>
      <trkpt lat="45.41951" lon="5.89889">
        <ele>1643.99</ele>
        <time>2013-06-30T15:23:00Z</time>
      </trkpt>
      <trkpt lat="45.41951" lon="5.8989">
        <ele>1643.99</ele>
        <time>2013-06-30T15:23:18Z</time>
      </trkpt>
      <trkpt lat="45.41952" lon="5.8989">
        <ele>1643.99</ele>
        <time>2013-06-30T15:23:22Z</time>
      </trkpt>
      <trkpt lat="45.41953" lon="5.89893">
        <ele>1643.51</ele>
        <time>2013-06-30T15:23:36Z</time>
      </trkpt>
      <trkpt lat="45.41951" lon="5.89895">
        <ele>1643.51</ele>
        <time>2013-06-30T15:23:57Z</time>
      </trkpt>
      <trkpt lat="45.41946" lon="5.89893">
        <ele>1643.51</ele>
        <time>2013-06-30T15:24:13Z</time>
      </trkpt>
      <trkpt lat="45.41945" lon="5.89891">
        <ele>1643.51</ele>
        <time>2013-06-30T15:24:24Z</time>
      </trkpt>
      <trkpt lat="45.41941" lon="5.89892">
        <ele>1644.95</ele>
        <time>2013-06-30T15:24:29Z</time>
      </trkpt>
      <trkpt lat="45.41938" lon="5.89892">
        <ele>1645.91</ele>
        <time>2013-06-30T15:24:39Z</time>
      </trkpt>
      <trkpt lat="45.41928" lon="5.89885">
        <ele>1647.84</ele>
        <time>2013-06-30T15:24:51Z</time>
      </trkpt>
      <trkpt lat="45.41921" lon="5.89874">
        <ele>1649.76</ele>
        <time>2013-06-30T15:25:03Z</time>
      </trkpt>
      <trkpt lat="45.4192" lon="5.8987">
        <ele>1649.76</ele>
        <time>2013-06-30T15:25:07Z</time>
      </trkpt>
      <trkpt lat="45.4191" lon="5.89851">
        <ele>1649.76</ele>
        <time>2013-06-30T15:25:23Z</time>
      </trkpt>
      <trkpt lat="45.41907" lon="5.89844">
        <ele>1648.32</ele>
        <time>2013-06-30T15:25:31Z</time>
      </trkpt>
      <trkpt lat="45.41906" lon="5.89844">
        <ele>1647.84</ele>
        <time>2013-06-30T15:25:43Z</time>
      </trkpt>
      <trkpt lat="45.41904" lon="5.89844">
        <ele>1647.36</ele>
        <time>2013-06-30T15:25:45Z</time>
      </trkpt>
      <trkpt lat="45.41903" lon="5.89843">
        <ele>1647.36</ele>
        <time>2013-06-30T15:25:46Z</time>
      </trkpt>
      <trkpt lat="45.41894" lon="5.89843">
        <ele>1648.8</ele>
        <time>2013-06-30T15:25:53Z</time>
      </trkpt>
      <trkpt lat="45.41888" lon="5.89841">
        <ele>1649.76</ele>
        <time>2013-06-30T15:26:05Z</time>
      </trkpt>
      <trkpt lat="45.41886" lon="5.89839">
        <ele>1650.24</ele>
        <time>2013-06-30T15:26:08Z</time>
      </trkpt>
      <trkpt lat="45.41883" lon="5.89836">
        <ele>1650.72</ele>
        <time>2013-06-30T15:26:13Z</time>
      </trkpt>
      <trkpt lat="45.41881" lon="5.89834">
        <ele>1650.72</ele>
        <time>2013-06-30T15:26:16Z</time>
      </trkpt>
      <trkpt lat="45.41872" lon="5.89833">
        <ele>1651.68</ele>
        <time>2013-06-30T15:26:24Z</time>
      </trkpt>
      <trkpt lat="45.41866" lon="5.89832">
        <ele>1652.64</ele>
        <time>2013-06-30T15:26:30Z</time>
      </trkpt>
      <trkpt lat="45.41862" lon="5.89833">
        <ele>1653.12</ele>
        <time>2013-06-30T15:26:33Z</time>
      </trkpt>
      <trkpt lat="45.41852" lon="5.89835">
        <ele>1654.09</ele>
        <time>2013-06-30T15:26:45Z</time>
      </trkpt>
      <trkpt lat="45.41845" lon="5.89838">
        <ele>1654.09</ele>
        <time>2013-06-30T15:26:57Z</time>
      </trkpt>
      <trkpt lat="45.4184" lon="5.89837">
        <ele>1654.09</ele>
        <time>2013-06-30T15:27:01Z</time>
      </trkpt>
      <trkpt lat="45.41835" lon="5.89834">
        <ele>1654.09</ele>
        <time>2013-06-30T15:27:05Z</time>
      </trkpt>
      <trkpt lat="45.41824" lon="5.8983">
        <ele>1655.05</ele>
        <time>2013-06-30T15:27:16Z</time>
      </trkpt>
      <trkpt lat="45.41815" lon="5.89823">
        <ele>1655.05</ele>
        <time>2013-06-30T15:27:25Z</time>
      </trkpt>
      <trkpt lat="45.41812" lon="5.89819">
        <ele>1655.05</ele>
        <time>2013-06-30T15:27:29Z</time>
      </trkpt>
      <trkpt lat="45.41809" lon="5.89815">
        <ele>1655.05</ele>
        <time>2013-06-30T15:27:39Z</time>
      </trkpt>
      <trkpt lat="45.41805" lon="5.89818">
        <ele>1655.53</ele>
        <time>2013-06-30T15:28:00Z</time>
      </trkpt>
      <trkpt lat="45.41785" lon="5.89829">
        <ele>1655.53</ele>
        <time>2013-06-30T15:28:17Z</time>
      </trkpt>
      <trkpt lat="45.41779" lon="5.8983">
        <ele>1655.53</ele>
        <time>2013-06-30T15:28:34Z</time>
      </trkpt>
      <trkpt lat="45.4178" lon="5.89829">
        <ele>1655.53</ele>
        <time>2013-06-30T15:28:56Z</time>
      </trkpt>
      <trkpt lat="45.41779" lon="5.89829">
        <ele>1655.53</ele>
        <time>2013-06-30T15:29:21Z</time>
      </trkpt>
      <trkpt lat="45.41776" lon="5.89834">
        <ele>1655.05</ele>
        <time>2013-06-30T15:29:44Z</time>
      </trkpt>
      <trkpt lat="45.4177" lon="5.8984">
        <ele>1652.16</ele>
        <time>2013-06-30T15:29:57Z</time>
      </trkpt>
      <trkpt lat="45.41769" lon="5.89841">
        <ele>1652.16</ele>
        <time>2013-06-30T15:29:58Z</time>
      </trkpt>
      <trkpt lat="45.41763" lon="5.89843">
        <ele>1651.2</ele>
        <time>2013-06-30T15:30:05Z</time>
      </trkpt>
      <trkpt lat="45.41749" lon="5.89841">
        <ele>1650.72</ele>
        <time>2013-06-30T15:30:19Z</time>
      </trkpt>
      <trkpt lat="45.41755" lon="5.89869">
        <ele>1647.84</ele>
        <time>2013-06-30T15:30:34Z</time>
      </trkpt>
      <trkpt lat="45.41749" lon="5.89881">
        <ele>1645.91</ele>
        <time>2013-06-30T15:30:47Z</time>
      </trkpt>
      <trkpt lat="45.41737" lon="5.89893">
        <ele>1644.47</ele>
        <time>2013-06-30T15:31:02Z</time>
      </trkpt>
      <trkpt lat="45.4173" lon="5.89898">
        <ele>1642.07</ele>
        <time>2013-06-30T15:31:13Z</time>
      </trkpt>
      <trkpt lat="45.41723" lon="5.89904">
        <ele>1640.15</ele>
        <time>2013-06-30T15:31:25Z</time>
      </trkpt>
      <trkpt lat="45.41714" lon="5.89915">
        <ele>1638.7</ele>
        <time>2013-06-30T15:31:37Z</time>
      </trkpt>
      <trkpt lat="45.41706" lon="5.89917">
        <ele>1636.3</ele>
        <time>2013-06-30T15:31:49Z</time>
      </trkpt>
      <trkpt lat="45.41695" lon="5.8992">
        <ele>1635.82</ele>
        <time>2013-06-30T15:32:03Z</time>
      </trkpt>
      <trkpt lat="45.41687" lon="5.89925">
        <ele>1635.34</ele>
        <time>2013-06-30T15:32:16Z</time>
      </trkpt>
      <trkpt lat="45.41674" lon="5.8993">
        <ele>1637.74</ele>
        <time>2013-06-30T15:32:28Z</time>
      </trkpt>
      <trkpt lat="45.41665" lon="5.89935">
        <ele>1636.78</ele>
        <time>2013-06-30T15:32:40Z</time>
      </trkpt>
      <trkpt lat="45.41658" lon="5.89937">
        <ele>1634.86</ele>
        <time>2013-06-30T15:32:51Z</time>
      </trkpt>
      <trkpt lat="45.41655" lon="5.8994">
        <ele>1634.86</ele>
        <time>2013-06-30T15:33:02Z</time>
      </trkpt>
      <trkpt lat="45.41651" lon="5.89945">
        <ele>1634.38</ele>
        <time>2013-06-30T15:33:08Z</time>
      </trkpt>
      <trkpt lat="45.41643" lon="5.8995">
        <ele>1632.46</ele>
        <time>2013-06-30T15:33:22Z</time>
      </trkpt>
      <trkpt lat="45.41642" lon="5.89952">
        <ele>1632.46</ele>
        <time>2013-06-30T15:33:29Z</time>
      </trkpt>
      <trkpt lat="45.41635" lon="5.89956">
        <ele>1631.98</ele>
        <time>2013-06-30T15:33:40Z</time>
      </trkpt>
      <trkpt lat="45.41628" lon="5.89962">
        <ele>1628.61</ele>
        <time>2013-06-30T15:33:54Z</time>
      </trkpt>
      <trkpt lat="45.41627" lon="5.89962">
        <ele>1628.61</ele>
        <time>2013-06-30T15:33:55Z</time>
      </trkpt>
      <trkpt lat="45.41623" lon="5.89968">
        <ele>1627.65</ele>
        <time>2013-06-30T15:34:03Z</time>
      </trkpt>
      <trkpt lat="45.41618" lon="5.89974">
        <ele>1627.17</ele>
        <time>2013-06-30T15:34:15Z</time>
      </trkpt>
      <trkpt lat="45.41612" lon="5.89979">
        <ele>1627.17</ele>
        <time>2013-06-30T15:34:27Z</time>
      </trkpt>
      <trkpt lat="45.41606" lon="5.89984">
        <ele>1624.28</ele>
        <time>2013-06-30T15:34:39Z</time>
      </trkpt>
      <trkpt lat="45.41598" lon="5.89986">
        <ele>1621.4</ele>
        <time>2013-06-30T15:34:50Z</time>
      </trkpt>
      <trkpt lat="45.41591" lon="5.8999">
        <ele>1618.04</ele>
        <time>2013-06-30T15:35:01Z</time>
      </trkpt>
      <trkpt lat="45.41584" lon="5.89991">
        <ele>1616.11</ele>
        <time>2013-06-30T15:35:13Z</time>
      </trkpt>
      <trkpt lat="45.41582" lon="5.89993">
        <ele>1615.63</ele>
        <time>2013-06-30T15:35:19Z</time>
      </trkpt>
      <trkpt lat="45.41572" lon="5.89999">
        <ele>1613.23</ele>
        <time>2013-06-30T15:35:31Z</time>
      </trkpt>
      <trkpt lat="45.4157" lon="5.9">
        <ele>1611.79</ele>
        <time>2013-06-30T15:35:36Z</time>
      </trkpt>
      <trkpt lat="45.41564" lon="5.90007">
        <ele>1611.79</ele>
        <time>2013-06-30T15:35:44Z</time>
      </trkpt>
      <trkpt lat="45.41563" lon="5.90008">
        <ele>1611.79</ele>
        <time>2013-06-30T15:35:45Z</time>
      </trkpt>
      <trkpt lat="45.41556" lon="5.90007">
        <ele>1610.35</ele>
        <time>2013-06-30T15:35:59Z</time>
      </trkpt>
      <trkpt lat="45.41549" lon="5.90015">
        <ele>1610.35</ele>
        <time>2013-06-30T15:36:07Z</time>
      </trkpt>
      <trkpt lat="45.41542" lon="5.9002">
        <ele>1610.35</ele>
        <time>2013-06-30T15:36:13Z</time>
      </trkpt>
      <trkpt lat="45.41542" lon="5.90022">
        <ele>1610.35</ele>
        <time>2013-06-30T15:36:14Z</time>
      </trkpt>
      <trkpt lat="45.41541" lon="5.90022">
        <ele>1609.86</ele>
        <time>2013-06-30T15:36:15Z</time>
      </trkpt>
      <trkpt lat="45.41531" lon="5.9003">
        <ele>1611.31</ele>
        <time>2013-06-30T15:36:23Z</time>
      </trkpt>
      <trkpt lat="45.41522" lon="5.90038">
        <ele>1612.75</ele>
        <time>2013-06-30T15:36:33Z</time>
      </trkpt>
      <trkpt lat="45.41515" lon="5.90045">
        <ele>1613.71</ele>
        <time>2013-06-30T15:36:45Z</time>
      </trkpt>
      <trkpt lat="45.41507" lon="5.90054">
        <ele>1614.19</ele>
        <time>2013-06-30T15:37:00Z</time>
      </trkpt>
      <trkpt lat="45.415" lon="5.90058">
        <ele>1613.23</ele>
        <time>2013-06-30T15:37:10Z</time>
      </trkpt>
      <trkpt lat="45.41496" lon="5.90059">
        <ele>1613.23</ele>
        <time>2013-06-30T15:37:50Z</time>
      </trkpt>
      <trkpt lat="45.41496" lon="5.90058">
        <ele>1613.23</ele>
        <time>2013-06-30T15:38:25Z</time>
      </trkpt>
      <trkpt lat="45.41496" lon="5.90065">
        <ele>1613.23</ele>
        <time>2013-06-30T15:39:08Z</time>
      </trkpt>
      <trkpt lat="45.41499" lon="5.90071">
        <ele>1613.23</ele>
        <time>2013-06-30T15:39:50Z</time>
      </trkpt>
      <trkpt lat="45.41498" lon="5.90069">
        <ele>1614.19</ele>
        <time>2013-06-30T15:40:18Z</time>
      </trkpt>
      <trkpt lat="45.41498" lon="5.90071">
        <ele>1613.71</ele>
        <time>2013-06-30T15:40:28Z</time>
      </trkpt>
      <trkpt lat="45.41498" lon="5.90067">
        <ele>1613.71</ele>
        <time>2013-06-30T15:40:40Z</time>
      </trkpt>
      <trkpt lat="45.415" lon="5.90067">
        <ele>1613.71</ele>
        <time>2013-06-30T15:40:52Z</time>
      </trkpt>
      <trkpt lat="45.4149" lon="5.90071">
        <ele>1612.27</ele>
        <time>2013-06-30T15:40:59Z</time>
      </trkpt>
      <trkpt lat="45.41486" lon="5.90075">
        <ele>1614.19</ele>
        <time>2013-06-30T15:41:02Z</time>
      </trkpt>
      <trkpt lat="45.41476" lon="5.90079">
        <ele>1615.15</ele>
        <time>2013-06-30T15:41:08Z</time>
      </trkpt>
      <trkpt lat="45.41455" lon="5.90091">
        <ele>1615.63</ele>
        <time>2013-06-30T15:41:19Z</time>
      </trkpt>
      <trkpt lat="45.41451" lon="5.90091">
        <ele>1615.63</ele>
        <time>2013-06-30T15:41:36Z</time>
      </trkpt>
      <trkpt lat="45.41446" lon="5.90094">
        <ele>1615.63</ele>
        <time>2013-06-30T15:41:42Z</time>
      </trkpt>
      <trkpt lat="45.41442" lon="5.90095">
        <ele>1614.19</ele>
        <time>2013-06-30T15:41:45Z</time>
      </trkpt>
      <trkpt lat="45.41436" lon="5.901">
        <ele>1614.19</ele>
        <time>2013-06-30T15:41:53Z</time>
      </trkpt>
      <trkpt lat="45.41433" lon="5.90106">
        <ele>1615.63</ele>
        <time>2013-06-30T15:41:56Z</time>
      </trkpt>
      <trkpt lat="45.41422" lon="5.90113">
        <ele>1614.19</ele>
        <time>2013-06-30T15:42:03Z</time>
      </trkpt>
      <trkpt lat="45.41411" lon="5.90121">
        <ele>1615.63</ele>
        <time>2013-06-30T15:42:10Z</time>
      </trkpt>
      <trkpt lat="45.41401" lon="5.90126">
        <ele>1615.63</ele>
        <time>2013-06-30T15:42:18Z</time>
      </trkpt>
      <trkpt lat="45.41396" lon="5.90131">
        <ele>1615.63</ele>
        <time>2013-06-30T15:42:32Z</time>
      </trkpt>
      <trkpt lat="45.41397" lon="5.90128">
        <ele>1616.11</ele>
        <time>2013-06-30T15:42:34Z</time>
      </trkpt>
      <trkpt lat="45.41395" lon="5.9012">
        <ele>1616.11</ele>
        <time>2013-06-30T15:42:41Z</time>
      </trkpt>
      <trkpt lat="45.41395" lon="5.90118">
        <ele>1616.11</ele>
        <time>2013-06-30T15:42:43Z</time>
      </trkpt>
      <trkpt lat="45.41397" lon="5.90115">
        <ele>1616.11</ele>
        <time>2013-06-30T15:42:46Z</time>
      </trkpt>
      <trkpt lat="45.41396" lon="5.90104">
        <ele>1614.67</ele>
        <time>2013-06-30T15:42:59Z</time>
      </trkpt>
      <trkpt lat="45.41396" lon="5.90104">
        <ele>1614.67</ele>
        <time>2013-06-30T15:43:02Z</time>
      </trkpt>
      <trkpt lat="45.414" lon="5.90099">
        <ele>1614.19</ele>
        <time>2013-06-30T15:43:06Z</time>
      </trkpt>
      <trkpt lat="45.41403" lon="5.90098">
        <ele>1614.19</ele>
        <time>2013-06-30T15:43:09Z</time>
      </trkpt>
      <trkpt lat="45.41405" lon="5.90094">
        <ele>1614.19</ele>
        <time>2013-06-30T15:43:12Z</time>
      </trkpt>
      <trkpt lat="45.41418" lon="5.9009">
        <ele>1614.19</ele>
        <time>2013-06-30T15:43:23Z</time>
      </trkpt>
      <trkpt lat="45.41418" lon="5.9009">
        <ele>1614.19</ele>
        <time>2013-06-30T15:43:24Z</time>
      </trkpt>
      <trkpt lat="45.41421" lon="5.90085">
        <ele>1614.19</ele>
        <time>2013-06-30T15:43:28Z</time>
      </trkpt>
      <trkpt lat="45.41427" lon="5.90083">
        <ele>1615.15</ele>
        <time>2013-06-30T15:43:33Z</time>
      </trkpt>
      <trkpt lat="45.41431" lon="5.90084">
        <ele>1615.63</ele>
        <time>2013-06-30T15:43:35Z</time>
      </trkpt>
      <trkpt lat="45.41444" lon="5.90084">
        <ele>1616.11</ele>
        <time>2013-06-30T15:43:46Z</time>
      </trkpt>
      <trkpt lat="45.41451" lon="5.90082">
        <ele>1616.11</ele>
        <time>2013-06-30T15:43:50Z</time>
      </trkpt>
      <trkpt lat="45.41477" lon="5.90083">
        <ele>1614.67</ele>
        <time>2013-06-30T15:44:02Z</time>
      </trkpt>
      <trkpt lat="45.4149" lon="5.90074">
        <ele>1613.23</ele>
        <time>2013-06-30T15:44:09Z</time>
      </trkpt>
      <trkpt lat="45.41496" lon="5.90068">
        <ele>1613.23</ele>
        <time>2013-06-30T15:44:12Z</time>
      </trkpt>
      <trkpt lat="45.41498" lon="5.90065">
        <ele>1611.79</ele>
        <time>2013-06-30T15:44:14Z</time>
      </trkpt>
      <trkpt lat="45.415" lon="5.90064">
        <ele>1612.75</ele>
        <time>2013-06-30T15:44:16Z</time>
      </trkpt>
      <trkpt lat="45.41502" lon="5.90062">
        <ele>1613.23</ele>
        <time>2013-06-30T15:44:18Z</time>
      </trkpt>
      <trkpt lat="45.41506" lon="5.90051">
        <ele>1611.79</ele>
        <time>2013-06-30T15:44:31Z</time>
      </trkpt>
      <trkpt lat="45.41508" lon="5.90048">
        <ele>1611.79</ele>
        <time>2013-06-30T15:44:44Z</time>
      </trkpt>
      <trkpt lat="45.41514" lon="5.90045">
        <ele>1611.79</ele>
        <time>2013-06-30T15:44:54Z</time>
      </trkpt>
      <trkpt lat="45.41525" lon="5.90037">
        <ele>1610.83</ele>
        <time>2013-06-30T15:45:09Z</time>
      </trkpt>
      <trkpt lat="45.41534" lon="5.90032">
        <ele>1610.83</ele>
        <time>2013-06-30T15:45:22Z</time>
      </trkpt>
      <trkpt lat="45.41538" lon="5.90028">
        <ele>1610.35</ele>
        <time>2013-06-30T15:45:33Z</time>
      </trkpt>
      <trkpt lat="45.4154" lon="5.90028">
        <ele>1611.79</ele>
        <time>2013-06-30T15:45:38Z</time>
      </trkpt>
      <trkpt lat="45.41547" lon="5.90025">
        <ele>1612.27</ele>
        <time>2013-06-30T15:45:48Z</time>
      </trkpt>
      <trkpt lat="45.41556" lon="5.90017">
        <ele>1613.71</ele>
        <time>2013-06-30T15:46:02Z</time>
      </trkpt>
      <trkpt lat="45.41558" lon="5.90014">
        <ele>1614.19</ele>
        <time>2013-06-30T15:46:10Z</time>
      </trkpt>
      <trkpt lat="45.4156" lon="5.90011">
        <ele>1612.27</ele>
        <time>2013-06-30T15:46:20Z</time>
      </trkpt>
      <trkpt lat="45.41562" lon="5.90009">
        <ele>1611.79</ele>
        <time>2013-06-30T15:46:23Z</time>
      </trkpt>
      <trkpt lat="45.4157" lon="5.89998">
        <ele>1611.31</ele>
        <time>2013-06-30T15:46:36Z</time>
      </trkpt>
      <trkpt lat="45.41572" lon="5.89993">
        <ele>1610.83</ele>
        <time>2013-06-30T15:46:42Z</time>
      </trkpt>
      <trkpt lat="45.41578" lon="5.89975">
        <ele>1609.38</ele>
        <time>2013-06-30T15:46:56Z</time>
      </trkpt>
      <trkpt lat="45.41578" lon="5.89974">
        <ele>1609.38</ele>
        <time>2013-06-30T15:46:57Z</time>
      </trkpt>
      <trkpt lat="45.41586" lon="5.89967">
        <ele>1608.9</ele>
        <time>2013-06-30T15:47:07Z</time>
      </trkpt>
      <trkpt lat="45.41586" lon="5.89962">
        <ele>1607.46</ele>
        <time>2013-06-30T15:47:10Z</time>
      </trkpt>
      <trkpt lat="45.41587" lon="5.89955">
        <ele>1605.54</ele>
        <time>2013-06-30T15:47:25Z</time>
      </trkpt>
      <trkpt lat="45.41591" lon="5.89948">
        <ele>1603.62</ele>
        <time>2013-06-30T15:47:31Z</time>
      </trkpt>
      <trkpt lat="45.41594" lon="5.89942">
        <ele>1603.14</ele>
        <time>2013-06-30T15:47:35Z</time>
      </trkpt>
      <trkpt lat="45.416" lon="5.89928">
        <ele>1602.66</ele>
        <time>2013-06-30T15:47:48Z</time>
      </trkpt>
      <trkpt lat="45.41606" lon="5.89923">
        <ele>1602.66</ele>
        <time>2013-06-30T15:47:54Z</time>
      </trkpt>
      <trkpt lat="45.41614" lon="5.89913">
        <ele>1602.66</ele>
        <time>2013-06-30T15:48:05Z</time>
      </trkpt>
      <trkpt lat="45.41616" lon="5.89909">
        <ele>1603.14</ele>
        <time>2013-06-30T15:48:08Z</time>
      </trkpt>
      <trkpt lat="45.41626" lon="5.89898">
        <ele>1602.66</ele>
        <time>2013-06-30T15:48:22Z</time>
      </trkpt>
      <trkpt lat="45.41633" lon="5.89886">
        <ele>1601.21</ele>
        <time>2013-06-30T15:48:35Z</time>
      </trkpt>
      <trkpt lat="45.41638" lon="5.8988">
        <ele>1600.25</ele>
        <time>2013-06-30T15:48:50Z</time>
      </trkpt>
      <trkpt lat="45.41643" lon="5.89873">
        <ele>1596.41</ele>
        <time>2013-06-30T15:49:02Z</time>
      </trkpt>
      <trkpt lat="45.41645" lon="5.89871">
        <ele>1596.41</ele>
        <time>2013-06-30T15:49:03Z</time>
      </trkpt>
      <trkpt lat="45.41656" lon="5.8986">
        <ele>1594.96</ele>
        <time>2013-06-30T15:49:14Z</time>
      </trkpt>
      <trkpt lat="45.41658" lon="5.89857">
        <ele>1594.96</ele>
        <time>2013-06-30T15:49:17Z</time>
      </trkpt>
      <trkpt lat="45.41664" lon="5.89845">
        <ele>1592.56</ele>
        <time>2013-06-30T15:49:28Z</time>
      </trkpt>
      <trkpt lat="45.41668" lon="5.8984">
        <ele>1591.6</ele>
        <time>2013-06-30T15:49:33Z</time>
      </trkpt>
      <trkpt lat="45.41671" lon="5.89831">
        <ele>1590.16</ele>
        <time>2013-06-30T15:49:46Z</time>
      </trkpt>
      <trkpt lat="45.41673" lon="5.89825">
        <ele>1590.16</ele>
        <time>2013-06-30T15:50:02Z</time>
      </trkpt>
      <trkpt lat="45.41678" lon="5.89821">
        <ele>1590.16</ele>
        <time>2013-06-30T15:50:15Z</time>
      </trkpt>
      <trkpt lat="45.4168" lon="5.89816">
        <ele>1588.72</ele>
        <time>2013-06-30T15:50:26Z</time>
      </trkpt>
      <trkpt lat="45.41678" lon="5.89814">
        <ele>1586.79</ele>
        <time>2013-06-30T15:50:36Z</time>
      </trkpt>
      <trkpt lat="45.41676" lon="5.89815">
        <ele>1586.79</ele>
        <time>2013-06-30T15:50:39Z</time>
      </trkpt>
      <trkpt lat="45.41673" lon="5.89816">
        <ele>1584.87</ele>
        <time>2013-06-30T15:50:42Z</time>
      </trkpt>
      <trkpt lat="45.41671" lon="5.89816">
        <ele>1584.87</ele>
        <time>2013-06-30T15:50:43Z</time>
      </trkpt>
      <trkpt lat="45.41669" lon="5.89816">
        <ele>1582.95</ele>
        <time>2013-06-30T15:50:45Z</time>
      </trkpt>
      <trkpt lat="45.41667" lon="5.8981">
        <ele>1578.62</ele>
        <time>2013-06-30T15:50:48Z</time>
      </trkpt>
      <trkpt lat="45.41663" lon="5.89805">
        <ele>1574.78</ele>
        <time>2013-06-30T15:50:50Z</time>
      </trkpt>
      <trkpt lat="45.41661" lon="5.89804">
        <ele>1574.3</ele>
        <time>2013-06-30T15:50:51Z</time>
      </trkpt>
      <trkpt lat="45.4166" lon="5.89799">
        <ele>1572.85</ele>
        <time>2013-06-30T15:50:52Z</time>
      </trkpt>
      <trkpt lat="45.4166" lon="5.89797">
        <ele>1571.41</ele>
        <time>2013-06-30T15:50:54Z</time>
      </trkpt>
      <trkpt lat="45.41659" lon="5.89796">
        <ele>1570.45</ele>
        <time>2013-06-30T15:50:55Z</time>
      </trkpt>
      <trkpt lat="45.41656" lon="5.89792">
        <ele>1568.05</ele>
        <time>2013-06-30T15:50:57Z</time>
      </trkpt>
      <trkpt lat="45.41654" lon="5.89786">
        <ele>1565.64</ele>
        <time>2013-06-30T15:51:06Z</time>
      </trkpt>
      <trkpt lat="45.41652" lon="5.89784">
        <ele>1563.24</ele>
        <time>2013-06-30T15:51:11Z</time>
      </trkpt>
      <trkpt lat="45.4165" lon="5.89779">
        <ele>1560.84</ele>
        <time>2013-06-30T15:51:13Z</time>
      </trkpt>
      <trkpt lat="45.41648" lon="5.89776">
        <ele>1559.4</ele>
        <time>2013-06-30T15:51:14Z</time>
      </trkpt>
      <trkpt lat="45.41646" lon="5.89774">
        <ele>1557.95</ele>
        <time>2013-06-30T15:51:15Z</time>
      </trkpt>
      <trkpt lat="45.41644" lon="5.89771">
        <ele>1556.03</ele>
        <time>2013-06-30T15:51:23Z</time>
      </trkpt>
      <trkpt lat="45.41644" lon="5.8977">
        <ele>1555.55</ele>
        <time>2013-06-30T15:51:24Z</time>
      </trkpt>
      <trkpt lat="45.41642" lon="5.89762">
        <ele>1551.71</ele>
        <time>2013-06-30T15:51:29Z</time>
      </trkpt>
      <trkpt lat="45.41643" lon="5.89759">
        <ele>1549.3</ele>
        <time>2013-06-30T15:51:39Z</time>
      </trkpt>
      <trkpt lat="45.41644" lon="5.89752">
        <ele>1549.78</ele>
        <time>2013-06-30T15:51:52Z</time>
      </trkpt>
      <trkpt lat="45.41645" lon="5.89753">
        <ele>1549.78</ele>
        <time>2013-06-30T15:51:56Z</time>
      </trkpt>
      <trkpt lat="45.41643" lon="5.89759">
        <ele>1552.67</ele>
        <time>2013-06-30T15:52:03Z</time>
      </trkpt>
      <trkpt lat="45.41648" lon="5.89749">
        <ele>1553.63</ele>
        <time>2013-06-30T15:52:20Z</time>
      </trkpt>
      <trkpt lat="45.41649" lon="5.8975">
        <ele>1553.15</ele>
        <time>2013-06-30T15:52:38Z</time>
      </trkpt>
      <trkpt lat="45.41649" lon="5.89749">
        <ele>1552.19</ele>
        <time>2013-06-30T15:52:40Z</time>
      </trkpt>
      <trkpt lat="45.4165" lon="5.89752">
        <ele>1551.71</ele>
        <time>2013-06-30T15:53:00Z</time>
      </trkpt>
      <trkpt lat="45.4165" lon="5.89752">
        <ele>1551.71</ele>
        <time>2013-06-30T15:53:02Z</time>
      </trkpt>
      <trkpt lat="45.41652" lon="5.89743">
        <ele>1548.34</ele>
        <time>2013-06-30T15:53:08Z</time>
      </trkpt>
      <trkpt lat="45.41652" lon="5.8974">
        <ele>1546.9</ele>
        <time>2013-06-30T15:53:10Z</time>
      </trkpt>
      <trkpt lat="45.41653" lon="5.89737">
        <ele>1544.98</ele>
        <time>2013-06-30T15:53:13Z</time>
      </trkpt>
      <trkpt lat="45.41656" lon="5.89727">
        <ele>1541.13</ele>
        <time>2013-06-30T15:53:23Z</time>
      </trkpt>
      <trkpt lat="45.41657" lon="5.89725">
        <ele>1540.65</ele>
        <time>2013-06-30T15:53:26Z</time>
      </trkpt>
      <trkpt lat="45.41655" lon="5.89723">
        <ele>1539.21</ele>
        <time>2013-06-30T15:53:35Z</time>
      </trkpt>
      <trkpt lat="45.41653" lon="5.89723">
        <ele>1538.73</ele>
        <time>2013-06-30T15:53:38Z</time>
      </trkpt>
      <trkpt lat="45.4165" lon="5.89725">
        <ele>1537.29</ele>
        <time>2013-06-30T15:53:52Z</time>
      </trkpt>
      <trkpt lat="45.41651" lon="5.89724">
        <ele>1537.29</ele>
        <time>2013-06-30T15:54:01Z</time>
      </trkpt>
      <trkpt lat="45.41643" lon="5.89718">
        <ele>1532.48</ele>
        <time>2013-06-30T15:54:05Z</time>
      </trkpt>
      <trkpt lat="45.41641" lon="5.89716">
        <ele>1532.48</ele>
        <time>2013-06-30T15:54:06Z</time>
      </trkpt>
      <trkpt lat="45.4164" lon="5.89713">
        <ele>1529.11</ele>
        <time>2013-06-30T15:54:07Z</time>
      </trkpt>
      <trkpt lat="45.41636" lon="5.89703">
        <ele>1523.83</ele>
        <time>2013-06-30T15:54:10Z</time>
      </trkpt>
      <trkpt lat="45.41635" lon="5.89699">
        <ele>1520.94</ele>
        <time>2013-06-30T15:54:12Z</time>
      </trkpt>
      <trkpt lat="45.41635" lon="5.89698">
        <ele>1520.94</ele>
        <time>2013-06-30T15:54:13Z</time>
      </trkpt>
      <trkpt lat="45.41636" lon="5.89693">
        <ele>1520.46</ele>
        <time>2013-06-30T15:54:21Z</time>
      </trkpt>
      <trkpt lat="45.41632" lon="5.89689">
        <ele>1518.06</ele>
        <time>2013-06-30T15:54:25Z</time>
      </trkpt>
      <trkpt lat="45.41627" lon="5.89683">
        <ele>1513.25</ele>
        <time>2013-06-30T15:54:29Z</time>
      </trkpt>
      <trkpt lat="45.41623" lon="5.8968">
        <ele>1509.89</ele>
        <time>2013-06-30T15:54:33Z</time>
      </trkpt>
      <trkpt lat="45.41622" lon="5.89676">
        <ele>1507.97</ele>
        <time>2013-06-30T15:54:38Z</time>
      </trkpt>
      <trkpt lat="45.4162" lon="5.89667">
        <ele>1504.6</ele>
        <time>2013-06-30T15:54:42Z</time>
      </trkpt>
      <trkpt lat="45.41619" lon="5.89663">
        <ele>1502.2</ele>
        <time>2013-06-30T15:54:44Z</time>
      </trkpt>
      <trkpt lat="45.41618" lon="5.89659">
        <ele>1500.76</ele>
        <time>2013-06-30T15:54:46Z</time>
      </trkpt>
      <trkpt lat="45.41617" lon="5.89655">
        <ele>1497.39</ele>
        <time>2013-06-30T15:54:49Z</time>
      </trkpt>
      <trkpt lat="45.41617" lon="5.89651">
        <ele>1495.47</ele>
        <time>2013-06-30T15:54:54Z</time>
      </trkpt>
      <trkpt lat="45.41625" lon="5.89643">
        <ele>1494.99</ele>
        <time>2013-06-30T15:55:08Z</time>
      </trkpt>
      <trkpt lat="45.4163" lon="5.89637">
        <ele>1494.03</ele>
        <time>2013-06-30T15:55:22Z</time>
      </trkpt>
      <trkpt lat="45.41631" lon="5.8963">
        <ele>1493.55</ele>
        <time>2013-06-30T15:55:35Z</time>
      </trkpt>
      <trkpt lat="45.41631" lon="5.89627">
        <ele>1493.55</ele>
        <time>2013-06-30T15:55:57Z</time>
      </trkpt>
      <trkpt lat="45.41628" lon="5.89623">
        <ele>1493.55</ele>
        <time>2013-06-30T15:56:13Z</time>
      </trkpt>
      <trkpt lat="45.41628" lon="5.89629">
        <ele>1493.06</ele>
        <time>2013-06-30T15:56:32Z</time>
      </trkpt>
      <trkpt lat="45.41627" lon="5.89634">
        <ele>1493.06</ele>
        <time>2013-06-30T15:56:52Z</time>
      </trkpt>
      <trkpt lat="45.41628" lon="5.8963">
        <ele>1493.06</ele>
        <time>2013-06-30T15:57:09Z</time>
      </trkpt>
      <trkpt lat="45.41629" lon="5.89631">
        <ele>1492.58</ele>
        <time>2013-06-30T15:57:29Z</time>
      </trkpt>
      <trkpt lat="45.41629" lon="5.89631">
        <ele>1492.58</ele>
        <time>2013-06-30T15:57:46Z</time>
      </trkpt>
      <trkpt lat="45.41631" lon="5.89632">
        <ele>1492.58</ele>
        <time>2013-06-30T15:58:07Z</time>
      </trkpt>
      <trkpt lat="45.41631" lon="5.89629">
        <ele>1492.58</ele>
        <time>2013-06-30T15:58:27Z</time>
      </trkpt>
      <trkpt lat="45.41635" lon="5.89628">
        <ele>1492.1</ele>
        <time>2013-06-30T15:58:39Z</time>
      </trkpt>
      <trkpt lat="45.41644" lon="5.89621">
        <ele>1490.66</ele>
        <time>2013-06-30T15:58:50Z</time>
      </trkpt>
      <trkpt lat="45.41649" lon="5.89615">
        <ele>1490.18</ele>
        <time>2013-06-30T15:59:01Z</time>
      </trkpt>
      <trkpt lat="45.41652" lon="5.89615">
        <ele>1492.1</ele>
        <time>2013-06-30T15:59:04Z</time>
      </trkpt>
      <trkpt lat="45.41658" lon="5.89605">
        <ele>1489.22</ele>
        <time>2013-06-30T15:59:18Z</time>
      </trkpt>
      <trkpt lat="45.41659" lon="5.89602">
        <ele>1488.74</ele>
        <time>2013-06-30T15:59:20Z</time>
      </trkpt>
      <trkpt lat="45.41665" lon="5.89593">
        <ele>1485.37</ele>
        <time>2013-06-30T15:59:32Z</time>
      </trkpt>
      <trkpt lat="45.41671" lon="5.89583">
        <ele>1483.93</ele>
        <time>2013-06-30T15:59:45Z</time>
      </trkpt>
      <trkpt lat="45.41672" lon="5.89582">
        <ele>1484.41</ele>
        <time>2013-06-30T16:00:04Z</time>
      </trkpt>
      <trkpt lat="45.41678" lon="5.89582">
        <ele>1484.41</ele>
        <time>2013-06-30T16:00:16Z</time>
      </trkpt>
      <trkpt lat="45.41684" lon="5.89579">
        <ele>1484.89</ele>
        <time>2013-06-30T16:00:33Z</time>
      </trkpt>
      <trkpt lat="45.41686" lon="5.89578">
        <ele>1486.34</ele>
        <time>2013-06-30T16:00:37Z</time>
      </trkpt>
      <trkpt lat="45.41691" lon="5.89579">
        <ele>1489.7</ele>
        <time>2013-06-30T16:00:44Z</time>
      </trkpt>
      <trkpt lat="45.41695" lon="5.89579">
        <ele>1492.58</ele>
        <time>2013-06-30T16:00:55Z</time>
      </trkpt>
      <trkpt lat="45.41697" lon="5.89574">
        <ele>1494.51</ele>
        <time>2013-06-30T16:01:07Z</time>
      </trkpt>
      <trkpt lat="45.41704" lon="5.8957">
        <ele>1497.39</ele>
        <time>2013-06-30T16:01:20Z</time>
      </trkpt>
      <trkpt lat="45.41711" lon="5.89572">
        <ele>1499.79</ele>
        <time>2013-06-30T16:01:33Z</time>
      </trkpt>
      <trkpt lat="45.41718" lon="5.89568">
        <ele>1500.27</ele>
        <time>2013-06-30T16:01:46Z</time>
      </trkpt>
      <trkpt lat="45.41725" lon="5.89561">
        <ele>1501.24</ele>
        <time>2013-06-30T16:01:59Z</time>
      </trkpt>
      <trkpt lat="45.41729" lon="5.89556">
        <ele>1502.2</ele>
        <time>2013-06-30T16:02:13Z</time>
      </trkpt>
      <trkpt lat="45.41734" lon="5.89552">
        <ele>1503.64</ele>
        <time>2013-06-30T16:02:28Z</time>
      </trkpt>
      <trkpt lat="45.41739" lon="5.89549">
        <ele>1504.6</ele>
        <time>2013-06-30T16:02:39Z</time>
      </trkpt>
      <trkpt lat="45.41744" lon="5.89542">
        <ele>1505.08</ele>
        <time>2013-06-30T16:02:52Z</time>
      </trkpt>
      <trkpt lat="45.41745" lon="5.89536">
        <ele>1505.08</ele>
        <time>2013-06-30T16:03:00Z</time>
      </trkpt>
      <trkpt lat="45.41751" lon="5.89522">
        <ele>1505.08</ele>
        <time>2013-06-30T16:03:10Z</time>
      </trkpt>
      <trkpt lat="45.41752" lon="5.89524">
        <ele>1503.64</ele>
        <time>2013-06-30T16:03:13Z</time>
      </trkpt>
      <trkpt lat="45.41752" lon="5.89526">
        <ele>1503.16</ele>
        <time>2013-06-30T16:03:49Z</time>
      </trkpt>
      <trkpt lat="45.41752" lon="5.89525">
        <ele>1502.2</ele>
        <time>2013-06-30T16:04:14Z</time>
      </trkpt>
      <trkpt lat="45.41753" lon="5.89526">
        <ele>1503.16</ele>
        <time>2013-06-30T16:04:16Z</time>
      </trkpt>
      <trkpt lat="45.41756" lon="5.89529">
        <ele>1502.68</ele>
        <time>2013-06-30T16:04:51Z</time>
      </trkpt>
      <trkpt lat="45.41755" lon="5.89529">
        <ele>1503.16</ele>
        <time>2013-06-30T16:04:59Z</time>
      </trkpt>
      <trkpt lat="45.41754" lon="5.89529">
        <ele>1502.68</ele>
        <time>2013-06-30T16:05:01Z</time>
      </trkpt>
      <trkpt lat="45.41752" lon="5.89527">
        <ele>1504.12</ele>
        <time>2013-06-30T16:05:10Z</time>
      </trkpt>
      <trkpt lat="45.41753" lon="5.89522">
        <ele>1502.68</ele>
        <time>2013-06-30T16:05:23Z</time>
      </trkpt>
      <trkpt lat="45.41753" lon="5.89521">
        <ele>1502.2</ele>
        <time>2013-06-30T16:05:37Z</time>
      </trkpt>
      <trkpt lat="45.41752" lon="5.8952">
        <ele>1501.24</ele>
        <time>2013-06-30T16:05:49Z</time>
      </trkpt>
      <trkpt lat="45.41751" lon="5.8952">
        <ele>1498.35</ele>
        <time>2013-06-30T16:06:02Z</time>
      </trkpt>
      <trkpt lat="45.41751" lon="5.89519">
        <ele>1501.72</ele>
        <time>2013-06-30T16:06:05Z</time>
      </trkpt>
      <trkpt lat="45.41751" lon="5.8952">
        <ele>1501.72</ele>
        <time>2013-06-30T16:06:14Z</time>
      </trkpt>
      <trkpt lat="45.41751" lon="5.89521">
        <ele>1502.2</ele>
        <time>2013-06-30T16:06:29Z</time>
      </trkpt>
      <trkpt lat="45.41752" lon="5.89522">
        <ele>1502.2</ele>
        <time>2013-06-30T16:06:43Z</time>
      </trkpt>
      <trkpt lat="45.41753" lon="5.89508">
        <ele>1502.2</ele>
        <time>2013-06-30T16:06:51Z</time>
      </trkpt>
      <trkpt lat="45.41752" lon="5.89498">
        <ele>1500.76</ele>
        <time>2013-06-30T16:06:57Z</time>
      </trkpt>
      <trkpt lat="45.41753" lon="5.89492">
        <ele>1500.76</ele>
        <time>2013-06-30T16:07:01Z</time>
      </trkpt>
      <trkpt lat="45.41751" lon="5.89472">
        <ele>1500.76</ele>
        <time>2013-06-30T16:07:16Z</time>
      </trkpt>
      <trkpt lat="45.41751" lon="5.89471">
        <ele>1500.76</ele>
        <time>2013-06-30T16:07:17Z</time>
      </trkpt>
      <trkpt lat="45.41749" lon="5.89457">
        <ele>1500.76</ele>
        <time>2013-06-30T16:07:29Z</time>
      </trkpt>
      <trkpt lat="45.41747" lon="5.89457">
        <ele>1499.79</ele>
        <time>2013-06-30T16:07:36Z</time>
      </trkpt>
      <trkpt lat="45.4174" lon="5.89454">
        <ele>1496.91</ele>
        <time>2013-06-30T16:07:41Z</time>
      </trkpt>
      <trkpt lat="45.41741" lon="5.89454">
        <ele>1495.95</ele>
        <time>2013-06-30T16:07:42Z</time>
      </trkpt>
      <trkpt lat="45.41736" lon="5.89448">
        <ele>1492.58</ele>
        <time>2013-06-30T16:07:46Z</time>
      </trkpt>
      <trkpt lat="45.41735" lon="5.89443">
        <ele>1491.62</ele>
        <time>2013-06-30T16:07:48Z</time>
      </trkpt>
      <trkpt lat="45.41735" lon="5.89442">
        <ele>1491.62</ele>
        <time>2013-06-30T16:07:49Z</time>
      </trkpt>
      <trkpt lat="45.41736" lon="5.89432">
        <ele>1489.22</ele>
        <time>2013-06-30T16:07:54Z</time>
      </trkpt>
      <trkpt lat="45.41736" lon="5.8943">
        <ele>1487.78</ele>
        <time>2013-06-30T16:07:55Z</time>
      </trkpt>
      <trkpt lat="45.41737" lon="5.89424">
        <ele>1486.34</ele>
        <time>2013-06-30T16:07:58Z</time>
      </trkpt>
      <trkpt lat="45.41737" lon="5.89423">
        <ele>1484.89</ele>
        <time>2013-06-30T16:07:59Z</time>
      </trkpt>
      <trkpt lat="45.41733" lon="5.89417">
        <ele>1481.53</ele>
        <time>2013-06-30T16:08:04Z</time>
      </trkpt>
      <trkpt lat="45.41732" lon="5.89413">
        <ele>1478.65</ele>
        <time>2013-06-30T16:08:07Z</time>
      </trkpt>
      <trkpt lat="45.4173" lon="5.89406">
        <ele>1475.28</ele>
        <time>2013-06-30T16:08:12Z</time>
      </trkpt>
      <trkpt lat="45.41729" lon="5.89405">
        <ele>1475.28</ele>
        <time>2013-06-30T16:08:14Z</time>
      </trkpt>
      <trkpt lat="45.41724" lon="5.89402">
        <ele>1472.4</ele>
        <time>2013-06-30T16:08:20Z</time>
      </trkpt>
      <trkpt lat="45.41721" lon="5.89399">
        <ele>1470.95</ele>
        <time>2013-06-30T16:08:23Z</time>
      </trkpt>
      <trkpt lat="45.41716" lon="5.89393">
        <ele>1469.03</ele>
        <time>2013-06-30T16:08:29Z</time>
      </trkpt>
      <trkpt lat="45.41714" lon="5.89391">
        <ele>1467.59</ele>
        <time>2013-06-30T16:08:33Z</time>
      </trkpt>
      <trkpt lat="45.4171" lon="5.89389">
        <ele>1465.67</ele>
        <time>2013-06-30T16:08:37Z</time>
      </trkpt>
      <trkpt lat="45.41709" lon="5.89387">
        <ele>1463.26</ele>
        <time>2013-06-30T16:08:40Z</time>
      </trkpt>
      <trkpt lat="45.41705" lon="5.89383">
        <ele>1459.42</ele>
        <time>2013-06-30T16:08:45Z</time>
      </trkpt>
      <trkpt lat="45.41704" lon="5.8938">
        <ele>1458.46</ele>
        <time>2013-06-30T16:08:47Z</time>
      </trkpt>
      <trkpt lat="45.41701" lon="5.89377">
        <ele>1455.09</ele>
        <time>2013-06-30T16:08:54Z</time>
      </trkpt>
      <trkpt lat="45.417" lon="5.89367">
        <ele>1452.21</ele>
        <time>2013-06-30T16:09:06Z</time>
      </trkpt>
      <trkpt lat="45.41697" lon="5.89362">
        <ele>1449.81</ele>
        <time>2013-06-30T16:09:16Z</time>
      </trkpt>
      <trkpt lat="45.41698" lon="5.89358">
        <ele>1447.88</ele>
        <time>2013-06-30T16:09:19Z</time>
      </trkpt>
      <trkpt lat="45.41684" lon="5.89342">
        <ele>1445</ele>
        <time>2013-06-30T16:09:31Z</time>
      </trkpt>
      <trkpt lat="45.41677" lon="5.89341">
        <ele>1442.6</ele>
        <time>2013-06-30T16:09:36Z</time>
      </trkpt>
      <trkpt lat="45.41671" lon="5.89335">
        <ele>1440.67</ele>
        <time>2013-06-30T16:09:48Z</time>
      </trkpt>
      <trkpt lat="45.41666" lon="5.89333">
        <ele>1436.83</ele>
        <time>2013-06-30T16:10:00Z</time>
      </trkpt>
      <trkpt lat="45.41666" lon="5.89332">
        <ele>1436.83</ele>
        <time>2013-06-30T16:10:01Z</time>
      </trkpt>
      <trkpt lat="45.41665" lon="5.89327">
        <ele>1434.42</ele>
        <time>2013-06-30T16:10:05Z</time>
      </trkpt>
      <trkpt lat="45.41663" lon="5.89324">
        <ele>1433.46</ele>
        <time>2013-06-30T16:10:07Z</time>
      </trkpt>
      <trkpt lat="45.41661" lon="5.89319">
        <ele>1431.06</ele>
        <time>2013-06-30T16:10:10Z</time>
      </trkpt>
      <trkpt lat="45.41656" lon="5.89316">
        <ele>1428.66</ele>
        <time>2013-06-30T16:10:14Z</time>
      </trkpt>
      <trkpt lat="45.41653" lon="5.8931">
        <ele>1425.29</ele>
        <time>2013-06-30T16:10:19Z</time>
      </trkpt>
      <trkpt lat="45.41649" lon="5.89306">
        <ele>1420.49</ele>
        <time>2013-06-30T16:10:25Z</time>
      </trkpt>
      <trkpt lat="45.41649" lon="5.89306">
        <ele>1420.49</ele>
        <time>2013-06-30T16:10:26Z</time>
      </trkpt>
      <trkpt lat="45.41648" lon="5.89304">
        <ele>1417.6</ele>
        <time>2013-06-30T16:10:30Z</time>
      </trkpt>
      <trkpt lat="45.41648" lon="5.89303">
        <ele>1417.6</ele>
        <time>2013-06-30T16:10:31Z</time>
      </trkpt>
      <trkpt lat="45.41646" lon="5.89298">
        <ele>1414.72</ele>
        <time>2013-06-30T16:10:37Z</time>
      </trkpt>
      <trkpt lat="45.41646" lon="5.89297">
        <ele>1413.76</ele>
        <time>2013-06-30T16:10:38Z</time>
      </trkpt>
      <trkpt lat="45.41645" lon="5.89296">
        <ele>1412.31</ele>
        <time>2013-06-30T16:10:39Z</time>
      </trkpt>
      <trkpt lat="45.41646" lon="5.89293">
        <ele>1411.83</ele>
        <time>2013-06-30T16:10:42Z</time>
      </trkpt>
      <trkpt lat="45.41644" lon="5.8929">
        <ele>1410.87</ele>
        <time>2013-06-30T16:10:45Z</time>
      </trkpt>
      <trkpt lat="45.41638" lon="5.89283">
        <ele>1409.91</ele>
        <time>2013-06-30T16:10:58Z</time>
      </trkpt>
      <trkpt lat="45.41633" lon="5.89279">
        <ele>1409.91</ele>
        <time>2013-06-30T16:11:19Z</time>
      </trkpt>
      <trkpt lat="45.41627" lon="5.89282">
        <ele>1410.39</ele>
        <time>2013-06-30T16:11:36Z</time>
      </trkpt>
      <trkpt lat="45.41625" lon="5.8928">
        <ele>1408.95</ele>
        <time>2013-06-30T16:11:50Z</time>
      </trkpt>
      <trkpt lat="45.4162" lon="5.8928">
        <ele>1408.95</ele>
        <time>2013-06-30T16:12:17Z</time>
      </trkpt>
      <trkpt lat="45.41619" lon="5.89276">
        <ele>1407.03</ele>
        <time>2013-06-30T16:12:27Z</time>
      </trkpt>
      <trkpt lat="45.41616" lon="5.89274">
        <ele>1405.1</ele>
        <time>2013-06-30T16:12:30Z</time>
      </trkpt>
      <trkpt lat="45.41612" lon="5.89271">
        <ele>1401.74</ele>
        <time>2013-06-30T16:12:37Z</time>
      </trkpt>
      <trkpt lat="45.4161" lon="5.89269">
        <ele>1400.78</ele>
        <time>2013-06-30T16:12:39Z</time>
      </trkpt>
      <trkpt lat="45.41608" lon="5.89269">
        <ele>1398.86</ele>
        <time>2013-06-30T16:12:40Z</time>
      </trkpt>
      <trkpt lat="45.41604" lon="5.89268">
        <ele>1396.45</ele>
        <time>2013-06-30T16:12:43Z</time>
      </trkpt>
      <trkpt lat="45.41601" lon="5.89268">
        <ele>1395.01</ele>
        <time>2013-06-30T16:12:45Z</time>
      </trkpt>
      <trkpt lat="45.41596" lon="5.89267">
        <ele>1391.65</ele>
        <time>2013-06-30T16:12:50Z</time>
      </trkpt>
      <trkpt lat="45.41593" lon="5.89266">
        <ele>1390.2</ele>
        <time>2013-06-30T16:12:52Z</time>
      </trkpt>
      <trkpt lat="45.41591" lon="5.89264">
        <ele>1388.76</ele>
        <time>2013-06-30T16:12:54Z</time>
      </trkpt>
      <trkpt lat="45.41586" lon="5.89259">
        <ele>1385.88</ele>
        <time>2013-06-30T16:12:59Z</time>
      </trkpt>
      <trkpt lat="45.41585" lon="5.89256">
        <ele>1383.96</ele>
        <time>2013-06-30T16:13:01Z</time>
      </trkpt>
      <trkpt lat="45.4158" lon="5.89252">
        <ele>1381.07</ele>
        <time>2013-06-30T16:13:06Z</time>
      </trkpt>
      <trkpt lat="45.41576" lon="5.89251">
        <ele>1379.15</ele>
        <time>2013-06-30T16:13:09Z</time>
      </trkpt>
      <trkpt lat="45.41575" lon="5.8925">
        <ele>1377.23</ele>
        <time>2013-06-30T16:13:11Z</time>
      </trkpt>
      <trkpt lat="45.41573" lon="5.8925">
        <ele>1375.78</ele>
        <time>2013-06-30T16:13:12Z</time>
      </trkpt>
      <trkpt lat="45.41571" lon="5.8925">
        <ele>1374.34</ele>
        <time>2013-06-30T16:13:14Z</time>
      </trkpt>
      <trkpt lat="45.41563" lon="5.89243">
        <ele>1370.5</ele>
        <time>2013-06-30T16:13:20Z</time>
      </trkpt>
      <trkpt lat="45.41562" lon="5.89242">
        <ele>1370.02</ele>
        <time>2013-06-30T16:13:21Z</time>
      </trkpt>
      <trkpt lat="45.41559" lon="5.89242">
        <ele>1369.05</ele>
        <time>2013-06-30T16:13:23Z</time>
      </trkpt>
      <trkpt lat="45.41556" lon="5.89244">
        <ele>1367.61</ele>
        <time>2013-06-30T16:13:26Z</time>
      </trkpt>
      <trkpt lat="45.41553" lon="5.89246">
        <ele>1365.69</ele>
        <time>2013-06-30T16:13:28Z</time>
      </trkpt>
      <trkpt lat="45.41543" lon="5.89238">
        <ele>1362.81</ele>
        <time>2013-06-30T16:13:41Z</time>
      </trkpt>
      <trkpt lat="45.41539" lon="5.89236">
        <ele>1360.4</ele>
        <time>2013-06-30T16:13:44Z</time>
      </trkpt>
      <trkpt lat="45.41533" lon="5.89235">
        <ele>1358</ele>
        <time>2013-06-30T16:13:52Z</time>
      </trkpt>
      <trkpt lat="45.41525" lon="5.89233">
        <ele>1358</ele>
        <time>2013-06-30T16:14:03Z</time>
      </trkpt>
      <trkpt lat="45.41522" lon="5.89229">
        <ele>1355.6</ele>
        <time>2013-06-30T16:14:13Z</time>
      </trkpt>
      <trkpt lat="45.41511" lon="5.89226">
        <ele>1352.23</ele>
        <time>2013-06-30T16:14:23Z</time>
      </trkpt>
      <trkpt lat="45.41511" lon="5.89227">
        <ele>1351.75</ele>
        <time>2013-06-30T16:14:24Z</time>
      </trkpt>
      <trkpt lat="45.415" lon="5.8923">
        <ele>1346.46</ele>
        <time>2013-06-30T16:14:33Z</time>
      </trkpt>
      <trkpt lat="45.41499" lon="5.89231">
        <ele>1346.46</ele>
        <time>2013-06-30T16:14:34Z</time>
      </trkpt>
      <trkpt lat="45.41492" lon="5.89235">
        <ele>1346.46</ele>
        <time>2013-06-30T16:14:48Z</time>
      </trkpt>
      <trkpt lat="45.41492" lon="5.89236">
        <ele>1346.46</ele>
        <time>2013-06-30T16:15:09Z</time>
      </trkpt>
      <trkpt lat="45.4149" lon="5.89231">
        <ele>1345.98</ele>
        <time>2013-06-30T16:15:34Z</time>
      </trkpt>
      <trkpt lat="45.4149" lon="5.89232">
        <ele>1345.98</ele>
        <time>2013-06-30T16:15:56Z</time>
      </trkpt>
      <trkpt lat="45.41487" lon="5.8923">
        <ele>1345.02</ele>
        <time>2013-06-30T16:16:18Z</time>
      </trkpt>
      <trkpt lat="45.41486" lon="5.89229">
        <ele>1344.54</ele>
        <time>2013-06-30T16:16:20Z</time>
      </trkpt>
      <trkpt lat="45.41483" lon="5.89226">
        <ele>1343.1</ele>
        <time>2013-06-30T16:16:23Z</time>
      </trkpt>
      <trkpt lat="45.41483" lon="5.89225">
        <ele>1341.66</ele>
        <time>2013-06-30T16:16:24Z</time>
      </trkpt>
      <trkpt lat="45.4148" lon="5.89222">
        <ele>1339.73</ele>
        <time>2013-06-30T16:16:26Z</time>
      </trkpt>
      <trkpt lat="45.41477" lon="5.89219">
        <ele>1338.29</ele>
        <time>2013-06-30T16:16:28Z</time>
      </trkpt>
      <trkpt lat="45.41475" lon="5.89218">
        <ele>1337.33</ele>
        <time>2013-06-30T16:16:29Z</time>
      </trkpt>
      <trkpt lat="45.41475" lon="5.89214">
        <ele>1334.45</ele>
        <time>2013-06-30T16:16:31Z</time>
      </trkpt>
      <trkpt lat="45.41468" lon="5.89208">
        <ele>1331.08</ele>
        <time>2013-06-30T16:16:34Z</time>
      </trkpt>
      <trkpt lat="45.41465" lon="5.89206">
        <ele>1331.08</ele>
        <time>2013-06-30T16:16:35Z</time>
      </trkpt>
      <trkpt lat="45.41456" lon="5.89196">
        <ele>1327.72</ele>
        <time>2013-06-30T16:16:40Z</time>
      </trkpt>
      <trkpt lat="45.41454" lon="5.89189">
        <ele>1327.72</ele>
        <time>2013-06-30T16:16:51Z</time>
      </trkpt>
      <trkpt lat="45.41452" lon="5.89191">
        <ele>1327.72</ele>
        <time>2013-06-30T16:16:58Z</time>
      </trkpt>
      <trkpt lat="45.41452" lon="5.89199">
        <ele>1327.72</ele>
        <time>2013-06-30T16:17:03Z</time>
      </trkpt>
      <trkpt lat="45.4145" lon="5.89202">
        <ele>1327.24</ele>
        <time>2013-06-30T16:17:13Z</time>
      </trkpt>
      <trkpt lat="45.41447" lon="5.89197">
        <ele>1324.83</ele>
        <time>2013-06-30T16:17:17Z</time>
      </trkpt>
      <trkpt lat="45.41445" lon="5.89195">
        <ele>1323.39</ele>
        <time>2013-06-30T16:17:19Z</time>
      </trkpt>
      <trkpt lat="45.41436" lon="5.89194">
        <ele>1319.07</ele>
        <time>2013-06-30T16:17:23Z</time>
      </trkpt>
      <trkpt lat="45.41435" lon="5.89194">
        <ele>1319.07</ele>
        <time>2013-06-30T16:17:24Z</time>
      </trkpt>
      <trkpt lat="45.4143" lon="5.8919">
        <ele>1315.7</ele>
        <time>2013-06-30T16:17:27Z</time>
      </trkpt>
      <trkpt lat="45.41425" lon="5.89187">
        <ele>1313.78</ele>
        <time>2013-06-30T16:17:30Z</time>
      </trkpt>
      <trkpt lat="45.4142" lon="5.89185">
        <ele>1311.38</ele>
        <time>2013-06-30T16:17:32Z</time>
      </trkpt>
      <trkpt lat="45.41409" lon="5.89183">
        <ele>1307.05</ele>
        <time>2013-06-30T16:17:37Z</time>
      </trkpt>
      <trkpt lat="45.41398" lon="5.89178">
        <ele>1303.2</ele>
        <time>2013-06-30T16:17:41Z</time>
      </trkpt>
      <trkpt lat="45.41396" lon="5.89178">
        <ele>1303.2</ele>
        <time>2013-06-30T16:17:42Z</time>
      </trkpt>
      <trkpt lat="45.4139" lon="5.89175">
        <ele>1300.8</ele>
        <time>2013-06-30T16:17:44Z</time>
      </trkpt>
      <trkpt lat="45.41384" lon="5.89173">
        <ele>1299.84</ele>
        <time>2013-06-30T16:17:46Z</time>
      </trkpt>
      <trkpt lat="45.41379" lon="5.89174">
        <ele>1297.44</ele>
        <time>2013-06-30T16:17:49Z</time>
      </trkpt>
      <trkpt lat="45.41372" lon="5.89171">
        <ele>1294.07</ele>
        <time>2013-06-30T16:17:53Z</time>
      </trkpt>
      <trkpt lat="45.41369" lon="5.89172">
        <ele>1292.15</ele>
        <time>2013-06-30T16:17:56Z</time>
      </trkpt>
      <trkpt lat="45.41357" lon="5.89166">
        <ele>1290.71</ele>
        <time>2013-06-30T16:18:09Z</time>
      </trkpt>
      <trkpt lat="45.41355" lon="5.89165">
        <ele>1289.75</ele>
        <time>2013-06-30T16:18:23Z</time>
      </trkpt>
      <trkpt lat="45.41352" lon="5.89167">
        <ele>1288.78</ele>
        <time>2013-06-30T16:18:40Z</time>
      </trkpt>
      <trkpt lat="45.41348" lon="5.89163">
        <ele>1288.3</ele>
        <time>2013-06-30T16:19:07Z</time>
      </trkpt>
      <trkpt lat="45.41349" lon="5.89165">
        <ele>1287.34</ele>
        <time>2013-06-30T16:19:28Z</time>
      </trkpt>
      <trkpt lat="45.41345" lon="5.89164">
        <ele>1285.42</ele>
        <time>2013-06-30T16:19:34Z</time>
      </trkpt>
      <trkpt lat="45.41336" lon="5.89159">
        <ele>1281.09</ele>
        <time>2013-06-30T16:19:41Z</time>
      </trkpt>
      <trkpt lat="45.41335" lon="5.89158">
        <ele>1280.13</ele>
        <time>2013-06-30T16:19:43Z</time>
      </trkpt>
      <trkpt lat="45.41332" lon="5.89156">
        <ele>1279.17</ele>
        <time>2013-06-30T16:19:46Z</time>
      </trkpt>
      <trkpt lat="45.41328" lon="5.89153">
        <ele>1277.25</ele>
        <time>2013-06-30T16:19:52Z</time>
      </trkpt>
      <trkpt lat="45.41325" lon="5.89149">
        <ele>1275.81</ele>
        <time>2013-06-30T16:19:57Z</time>
      </trkpt>
      <trkpt lat="45.41318" lon="5.89148">
        <ele>1271.96</ele>
        <time>2013-06-30T16:20:02Z</time>
      </trkpt>
      <trkpt lat="45.41314" lon="5.89147">
        <ele>1270.52</ele>
        <time>2013-06-30T16:20:04Z</time>
      </trkpt>
      <trkpt lat="45.4131" lon="5.89146">
        <ele>1269.08</ele>
        <time>2013-06-30T16:20:07Z</time>
      </trkpt>
      <trkpt lat="45.41304" lon="5.89141">
        <ele>1266.19</ele>
        <time>2013-06-30T16:20:11Z</time>
      </trkpt>
      <trkpt lat="45.41296" lon="5.89135">
        <ele>1262.35</ele>
        <time>2013-06-30T16:20:15Z</time>
      </trkpt>
      <trkpt lat="45.41295" lon="5.89133">
        <ele>1261.39</ele>
        <time>2013-06-30T16:20:16Z</time>
      </trkpt>
      <trkpt lat="45.41288" lon="5.89128">
        <ele>1256.58</ele>
        <time>2013-06-30T16:20:22Z</time>
      </trkpt>
      <trkpt lat="45.41285" lon="5.89128">
        <ele>1255.62</ele>
        <time>2013-06-30T16:20:24Z</time>
      </trkpt>
      <trkpt lat="45.41284" lon="5.89128">
        <ele>1254.18</ele>
        <time>2013-06-30T16:20:25Z</time>
      </trkpt>
      <trkpt lat="45.41274" lon="5.89125">
        <ele>1250.81</ele>
        <time>2013-06-30T16:20:29Z</time>
      </trkpt>
      <trkpt lat="45.41271" lon="5.89122">
        <ele>1249.85</ele>
        <time>2013-06-30T16:20:31Z</time>
      </trkpt>
      <trkpt lat="45.41266" lon="5.89118">
        <ele>1246.49</ele>
        <time>2013-06-30T16:20:34Z</time>
      </trkpt>
      <trkpt lat="45.41259" lon="5.89114">
        <ele>1243.6</ele>
        <time>2013-06-30T16:20:40Z</time>
      </trkpt>
      <trkpt lat="45.41252" lon="5.89107">
        <ele>1239.28</ele>
        <time>2013-06-30T16:20:45Z</time>
      </trkpt>
      <trkpt lat="45.41246" lon="5.89103">
        <ele>1238.8</ele>
        <time>2013-06-30T16:20:56Z</time>
      </trkpt>
      <trkpt lat="45.41242" lon="5.89106">
        <ele>1237.35</ele>
        <time>2013-06-30T16:21:18Z</time>
      </trkpt>
      <trkpt lat="45.41234" lon="5.89102">
        <ele>1233.99</ele>
        <time>2013-06-30T16:21:29Z</time>
      </trkpt>
      <trkpt lat="45.41233" lon="5.89102">
        <ele>1233.51</ele>
        <time>2013-06-30T16:21:30Z</time>
      </trkpt>
      <trkpt lat="45.4122" lon="5.89101">
        <ele>1229.66</ele>
        <time>2013-06-30T16:21:40Z</time>
      </trkpt>
      <trkpt lat="45.41212" lon="5.89102">
        <ele>1226.3</ele>
        <time>2013-06-30T16:21:51Z</time>
      </trkpt>
      <trkpt lat="45.41206" lon="5.89102">
        <ele>1223.9</ele>
        <time>2013-06-30T16:21:59Z</time>
      </trkpt>
      <trkpt lat="45.412" lon="5.89101">
        <ele>1222.45</ele>
        <time>2013-06-30T16:22:13Z</time>
      </trkpt>
      <trkpt lat="45.412" lon="5.89103">
        <ele>1219.57</ele>
        <time>2013-06-30T16:22:26Z</time>
      </trkpt>
      <trkpt lat="45.41201" lon="5.891">
        <ele>1221.49</ele>
        <time>2013-06-30T16:22:47Z</time>
      </trkpt>
      <trkpt lat="45.41201" lon="5.89102">
        <ele>1221.01</ele>
        <time>2013-06-30T16:23:09Z</time>
      </trkpt>
      <trkpt lat="45.41211" lon="5.89102">
        <ele>1220.53</ele>
        <time>2013-06-30T16:23:44Z</time>
      </trkpt>
      <trkpt lat="45.41202" lon="5.891">
        <ele>1220.53</ele>
        <time>2013-06-30T16:23:58Z</time>
      </trkpt>
      <trkpt lat="45.41203" lon="5.89098">
        <ele>1220.05</ele>
        <time>2013-06-30T16:24:16Z</time>
      </trkpt>
      <trkpt lat="45.412" lon="5.89099">
        <ele>1220.05</ele>
        <time>2013-06-30T16:24:36Z</time>
      </trkpt>
      <trkpt lat="45.41198" lon="5.89101">
        <ele>1219.57</ele>
        <time>2013-06-30T16:24:58Z</time>
      </trkpt>
      <trkpt lat="45.41194" lon="5.89101">
        <ele>1219.57</ele>
        <time>2013-06-30T16:25:12Z</time>
      </trkpt>
      <trkpt lat="45.41192" lon="5.89099">
        <ele>1216.21</ele>
        <time>2013-06-30T16:25:24Z</time>
      </trkpt>
      <trkpt lat="45.41186" lon="5.89092">
        <ele>1212.84</ele>
        <time>2013-06-30T16:25:36Z</time>
      </trkpt>
      <trkpt lat="45.41179" lon="5.89089">
        <ele>1209.48</ele>
        <time>2013-06-30T16:25:47Z</time>
      </trkpt>
      <trkpt lat="45.4117" lon="5.89078">
        <ele>1206.59</ele>
        <time>2013-06-30T16:25:59Z</time>
      </trkpt>
      <trkpt lat="45.41162" lon="5.89072">
        <ele>1203.23</ele>
        <time>2013-06-30T16:26:11Z</time>
      </trkpt>
      <trkpt lat="45.41158" lon="5.89064">
        <ele>1200.34</ele>
        <time>2013-06-30T16:26:25Z</time>
      </trkpt>
      <trkpt lat="45.41152" lon="5.89058">
        <ele>1196.98</ele>
        <time>2013-06-30T16:26:37Z</time>
      </trkpt>
      <trkpt lat="45.41146" lon="5.89051">
        <ele>1193.61</ele>
        <time>2013-06-30T16:26:44Z</time>
      </trkpt>
      <trkpt lat="45.41146" lon="5.89051">
        <ele>1193.61</ele>
        <time>2013-06-30T16:26:45Z</time>
      </trkpt>
      <trkpt lat="45.41139" lon="5.89047">
        <ele>1190.25</ele>
        <time>2013-06-30T16:26:52Z</time>
      </trkpt>
      <trkpt lat="45.41139" lon="5.89046">
        <ele>1189.77</ele>
        <time>2013-06-30T16:26:53Z</time>
      </trkpt>
      <trkpt lat="45.41133" lon="5.8904">
        <ele>1186.4</ele>
        <time>2013-06-30T16:27:02Z</time>
      </trkpt>
      <trkpt lat="45.4113" lon="5.89038">
        <ele>1185.44</ele>
        <time>2013-06-30T16:27:05Z</time>
      </trkpt>
      <trkpt lat="45.41127" lon="5.89037">
        <ele>1184</ele>
        <time>2013-06-30T16:27:08Z</time>
      </trkpt>
      <trkpt lat="45.41122" lon="5.89032">
        <ele>1181.6</ele>
        <time>2013-06-30T16:27:14Z</time>
      </trkpt>
      <trkpt lat="45.41118" lon="5.8903">
        <ele>1178.23</ele>
        <time>2013-06-30T16:27:20Z</time>
      </trkpt>
      <trkpt lat="45.41113" lon="5.8903">
        <ele>1174.39</ele>
        <time>2013-06-30T16:27:30Z</time>
      </trkpt>
      <trkpt lat="45.41108" lon="5.8903">
        <ele>1172.47</ele>
        <time>2013-06-30T16:27:43Z</time>
      </trkpt>
      <trkpt lat="45.41107" lon="5.89029">
        <ele>1171.98</ele>
        <time>2013-06-30T16:27:45Z</time>
      </trkpt>
      <trkpt lat="45.41106" lon="5.89026">
        <ele>1171.02</ele>
        <time>2013-06-30T16:27:47Z</time>
      </trkpt>
      <trkpt lat="45.411" lon="5.8902">
        <ele>1167.66</ele>
        <time>2013-06-30T16:27:54Z</time>
      </trkpt>
      <trkpt lat="45.41095" lon="5.89015">
        <ele>1164.77</ele>
        <time>2013-06-30T16:28:01Z</time>
      </trkpt>
      <trkpt lat="45.41089" lon="5.89007">
        <ele>1160.93</ele>
        <time>2013-06-30T16:28:11Z</time>
      </trkpt>
      <trkpt lat="45.41087" lon="5.89004">
        <ele>1159.49</ele>
        <time>2013-06-30T16:28:14Z</time>
      </trkpt>
      <trkpt lat="45.41083" lon="5.89002">
        <ele>1157.56</ele>
        <time>2013-06-30T16:28:18Z</time>
      </trkpt>
      <trkpt lat="45.41077" lon="5.89">
        <ele>1154.2</ele>
        <time>2013-06-30T16:28:25Z</time>
      </trkpt>
      <trkpt lat="45.41075" lon="5.88999">
        <ele>1153.24</ele>
        <time>2013-06-30T16:28:27Z</time>
      </trkpt>
      <trkpt lat="45.41071" lon="5.88998">
        <ele>1151.8</ele>
        <time>2013-06-30T16:28:30Z</time>
      </trkpt>
      <trkpt lat="45.41068" lon="5.88997">
        <ele>1150.84</ele>
        <time>2013-06-30T16:28:32Z</time>
      </trkpt>
      <trkpt lat="45.41062" lon="5.88993">
        <ele>1147.47</ele>
        <time>2013-06-30T16:28:40Z</time>
      </trkpt>
      <trkpt lat="45.4106" lon="5.88992">
        <ele>1146.99</ele>
        <time>2013-06-30T16:28:42Z</time>
      </trkpt>
      <trkpt lat="45.41059" lon="5.88989">
        <ele>1146.03</ele>
        <time>2013-06-30T16:28:44Z</time>
      </trkpt>
      <trkpt lat="45.41056" lon="5.88981">
        <ele>1142.66</ele>
        <time>2013-06-30T16:28:50Z</time>
      </trkpt>
      <trkpt lat="45.41055" lon="5.88979">
        <ele>1142.66</ele>
        <time>2013-06-30T16:28:51Z</time>
      </trkpt>
      <trkpt lat="45.41051" lon="5.88973">
        <ele>1138.82</ele>
        <time>2013-06-30T16:28:58Z</time>
      </trkpt>
      <trkpt lat="45.41048" lon="5.88962">
        <ele>1137.86</ele>
        <time>2013-06-30T16:29:13Z</time>
      </trkpt>
      <trkpt lat="45.41048" lon="5.88959">
        <ele>1137.86</ele>
        <time>2013-06-30T16:29:26Z</time>
      </trkpt>
      <trkpt lat="45.41048" lon="5.88959">
        <ele>1137.86</ele>
        <time>2013-06-30T16:29:46Z</time>
      </trkpt>
      <trkpt lat="45.41047" lon="5.88957">
        <ele>1137.38</ele>
        <time>2013-06-30T16:30:09Z</time>
      </trkpt>
      <trkpt lat="45.41045" lon="5.88961">
        <ele>1137.38</ele>
        <time>2013-06-30T16:30:34Z</time>
      </trkpt>
      <trkpt lat="45.41046" lon="5.8896">
        <ele>1137.38</ele>
        <time>2013-06-30T16:30:45Z</time>
      </trkpt>
      <trkpt lat="45.41046" lon="5.88956">
        <ele>1135.94</ele>
        <time>2013-06-30T16:30:50Z</time>
      </trkpt>
      <trkpt lat="45.4105" lon="5.88944">
        <ele>1132.57</ele>
        <time>2013-06-30T16:30:57Z</time>
      </trkpt>
      <trkpt lat="45.41054" lon="5.88931">
        <ele>1129.69</ele>
        <time>2013-06-30T16:31:04Z</time>
      </trkpt>
      <trkpt lat="45.41059" lon="5.88925">
        <ele>1128.73</ele>
        <time>2013-06-30T16:31:08Z</time>
      </trkpt>
      <trkpt lat="45.41065" lon="5.88912">
        <ele>1124.4</ele>
        <time>2013-06-30T16:31:16Z</time>
      </trkpt>
      <trkpt lat="45.41071" lon="5.88905">
        <ele>1122</ele>
        <time>2013-06-30T16:31:21Z</time>
      </trkpt>
      <trkpt lat="45.41075" lon="5.88901">
        <ele>1119.11</ele>
        <time>2013-06-30T16:31:24Z</time>
      </trkpt>
      <trkpt lat="45.41082" lon="5.88888">
        <ele>1115.27</ele>
        <time>2013-06-30T16:31:30Z</time>
      </trkpt>
      <trkpt lat="45.41084" lon="5.88886">
        <ele>1114.79</ele>
        <time>2013-06-30T16:31:32Z</time>
      </trkpt>
      <trkpt lat="45.41089" lon="5.88882">
        <ele>1112.38</ele>
        <time>2013-06-30T16:31:36Z</time>
      </trkpt>
      <trkpt lat="45.41092" lon="5.88878">
        <ele>1110.94</ele>
        <time>2013-06-30T16:31:38Z</time>
      </trkpt>
      <trkpt lat="45.41096" lon="5.88871">
        <ele>1109.5</ele>
        <time>2013-06-30T16:31:41Z</time>
      </trkpt>
      <trkpt lat="45.41102" lon="5.88863">
        <ele>1105.65</ele>
        <time>2013-06-30T16:31:46Z</time>
      </trkpt>
      <trkpt lat="45.41115" lon="5.8885">
        <ele>1102.77</ele>
        <time>2013-06-30T16:31:51Z</time>
      </trkpt>
      <trkpt lat="45.41132" lon="5.88831">
        <ele>1099.4</ele>
        <time>2013-06-30T16:32:00Z</time>
      </trkpt>
      <trkpt lat="45.41141" lon="5.88819">
        <ele>1098.44</ele>
        <time>2013-06-30T16:32:11Z</time>
      </trkpt>
      <trkpt lat="45.41144" lon="5.88815">
        <ele>1096.52</ele>
        <time>2013-06-30T16:32:13Z</time>
      </trkpt>
      <trkpt lat="45.41148" lon="5.88802">
        <ele>1094.12</ele>
        <time>2013-06-30T16:32:23Z</time>
      </trkpt>
      <trkpt lat="45.41153" lon="5.88797">
        <ele>1093.64</ele>
        <time>2013-06-30T16:32:36Z</time>
      </trkpt>
      <trkpt lat="45.41153" lon="5.88796">
        <ele>1093.16</ele>
        <time>2013-06-30T16:32:37Z</time>
      </trkpt>
      <trkpt lat="45.41163" lon="5.88785">
        <ele>1089.31</ele>
        <time>2013-06-30T16:32:48Z</time>
      </trkpt>
      <trkpt lat="45.41174" lon="5.88775">
        <ele>1086.91</ele>
        <time>2013-06-30T16:33:02Z</time>
      </trkpt>
      <trkpt lat="45.41181" lon="5.88756">
        <ele>1082.58</ele>
        <time>2013-06-30T16:33:14Z</time>
      </trkpt>
      <trkpt lat="45.41185" lon="5.8874">
        <ele>1080.18</ele>
        <time>2013-06-30T16:33:27Z</time>
      </trkpt>
      <trkpt lat="45.41187" lon="5.88736">
        <ele>1079.22</ele>
        <time>2013-06-30T16:33:33Z</time>
      </trkpt>
      <trkpt lat="45.41201" lon="5.88721">
        <ele>1075.85</ele>
        <time>2013-06-30T16:33:47Z</time>
      </trkpt>
      <trkpt lat="45.41211" lon="5.88713">
        <ele>1074.41</ele>
        <time>2013-06-30T16:33:54Z</time>
      </trkpt>
      <trkpt lat="45.41216" lon="5.88708">
        <ele>1073.45</ele>
        <time>2013-06-30T16:33:58Z</time>
      </trkpt>
      <trkpt lat="45.41235" lon="5.8868">
        <ele>1071.05</ele>
        <time>2013-06-30T16:34:16Z</time>
      </trkpt>
      <trkpt lat="45.41251" lon="5.88662">
        <ele>1070.08</ele>
        <time>2013-06-30T16:34:35Z</time>
      </trkpt>
      <trkpt lat="45.41257" lon="5.8866">
        <ele>1069.6</ele>
        <time>2013-06-30T16:34:46Z</time>
      </trkpt>
      <trkpt lat="45.41253" lon="5.88665">
        <ele>1069.6</ele>
        <time>2013-06-30T16:35:01Z</time>
      </trkpt>
      <trkpt lat="45.41251" lon="5.88667">
        <ele>1069.6</ele>
        <time>2013-06-30T16:35:10Z</time>
      </trkpt>
      <trkpt lat="45.41251" lon="5.88665">
        <ele>1068.64</ele>
        <time>2013-06-30T16:35:23Z</time>
      </trkpt>
      <trkpt lat="45.41252" lon="5.88666">
        <ele>1070.08</ele>
        <time>2013-06-30T16:35:53Z</time>
      </trkpt>
      <trkpt lat="45.41253" lon="5.88667">
        <ele>1069.6</ele>
        <time>2013-06-30T16:36:15Z</time>
      </trkpt>
      <trkpt lat="45.41252" lon="5.88668">
        <ele>1069.12</ele>
        <time>2013-06-30T16:36:40Z</time>
      </trkpt>
      <trkpt lat="45.41249" lon="5.88667">
        <ele>1068.64</ele>
        <time>2013-06-30T16:37:01Z</time>
      </trkpt>
      <trkpt lat="45.4125" lon="5.88667">
        <ele>1068.64</ele>
        <time>2013-06-30T16:37:18Z</time>
      </trkpt>
      <trkpt lat="45.4125" lon="5.88667">
        <ele>1068.64</ele>
        <time>2013-06-30T16:37:19Z</time>
      </trkpt>
    </trkseg>
  </trk>
</gpx>